[[{"header":{"parameterUnit":"m.s-1","parameterCategory":1,"la1":31.0,"la2":29.5877,"lo1":-88.7671,"lo2":-86.6584,"dx":0.0162,"dy":0.0185,"nx":115,"ny":88,"refTime":"2023-01-01T18:00:00:Z","depth":0,"parameterNumber":2,"parameterNumberName":"U-component_of_WINDS"},"data":[0.0,0.0,0.0,0.0,0.0,0.0,0.0,0.0,0.0,0.0,0.0,0.0,0.0,0.0,0.0,0.0,0.0,0.0,0.0,0.0,0.0,0.0,0.0,0.0,0.0,0.0,0.0,0.0,0.0,0.0,0.0,0.0,0.0,0.0,0.0,0.0,0.0,0.0,0.0,0.0,0.0,0.0,0.0,0.0,0.0,0.0,0.0,0.0,0.0,0.0,0.0,0.0,0.0,0.0,0.0,0.0,0.0,0.0,0.0,0.0,0.0,0.0,0.0,0.0,0.0,0.0,0.0,0.0,0.0,0.0,0.0,0.0,0.0,0.0,0.0,0.0,0.0,0.0,0.0,0.0,0.0,0.0,0.0,0.0,0.0,0.0,0.0,0.0,0.0,0.0,0.0,0.0,0.0,0.0,0.0,0.0,0.0,0.0,0.0,0.0,0.0,0.0,0.0,0.0,0.0,0.0,0.0,0.0,0.0,0.0,0.0,0.0,0.0,0.0,0.0,0.0,0.0,0.0,0.0,0.0,0.0,0.0,0.0,0.0,0.0,0.0,0.0,0.0,0.0,0.0,0.0,0.0,0.0,0.0,0.0,0.0,0.0,0.0,0.0,0.0,0.0,0.0,0.0,0.0,0.0,0.0,0.0,0.0,0.0,0.0,0.0,0.0,0.0,0.0,0.0,0.0,0.0,0.0,0.0,0.0,0.0,0.0,0.0,0.0,0.0,0.0,0.0,0.0,0.0,0.0,0.0,0.0,0.0,0.0,0.0,0.0,0.0,0.0,0.0,0.0,0.0,0.0,0.0,0.0,0.0,0.0,0.0,0.0,0.0,0.0,0.0,0.0,0.0,0.0,0.0,0.0,0.0,0.0,0.0,0.0,0.0,0.0,0.0,0.0,0.0,0.0,0.0,0.0,0.0,0.0,0.0,0.0,0.0,0.0,0.0,0.0,0.0,0.0,0.0,0.0,0.0,0.0,0.0,0.0,0.0,0.0,0.0,0.0,0.0,0.0,0.0,0.0,0.0,0.0,0.0,0.0,0.0,0.0,0.0,0.0,0.0,0.0,0.0,0.0,0.0,0.0,0.0,0.0,0.0,0.0,0.0,0.0,0.0,0.0,0.0,0.0,0.0,0.0,0.0,0.0,0.0,0.0,0.0,0.0,0.0,0.0,0.0,0.0,0.0,0.0,0.0,0.0,0.0,0.0,0.0,0.0,0.0,0.0,0.0,0.0,0.0,0.0,0.0,0.0,0.0,0.0,0.0,0.0,0.0,0.0,0.0,0.0,0.0,0.0,0.0,0.0,0.0,0.0,0.0,0.0,0.0,0.0,0.0,0.0,0.0,0.0,0.0,0.0,0.0,0.0,0.0,0.0,0.0,0.0,0.0,0.0,0.0,0.0,0.0,0.0,0.0,0.0,0.0,0.0,0.0,0.0,0.0,0.0,0.0,0.0,0.0,0.0,0.0,0.0,0.0,0.0,0.0,0.0,0.0,0.0,0.0,0.0,0.0,0.0,0.0,0.0,0.0,0.0,0.0,0.0,0.0,0.0,0.0,0.0,0.0,0.0,0.0,0.0,0.0,0.0,0.0,0.0,0.0,0.0,0.0,0.0,0.0,0.0,0.0,0.0,0.0,0.0,0.0,0.0,0.0,0.0,0.0,0.0,0.0,0.0,0.0,0.0,0.0,0.0,0.0,0.0,0.0,0.0,0.0,0.0,0.0,0.0,0.0,0.0,0.0,0.0,0.0,0.0,0.0,0.0,0.0,0.0,0.0,0.0,0.0,0.0,0.0,0.0,0.0,0.0,0.0,0.0,0.0,0.0,0.0,0.0,0.0,0.0,0.0,0.0,0.0,0.0,0.0,0.0,0.0,0.0,0.0,0.0,0.0,0.0,0.0,0.0,0.0,0.0,0.0,0.0,0.0,0.0,0.0,0.0,0.0,0.0,0.0,0.0,0.0,0.0,0.0,0.0,0.0,0.0,0.0,0.0,0.0,0.0,0.0,0.0,0.0,0.0,0.0,0.0,0.0,0.0,0.0,0.0,0.0,0.0,0.0,0.0,0.0,0.0,0.0,0.0,0.0,0.0,0.0,0.0,0.0,0.0,0.0,0.0,0.0,0.0,0.0,0.0,0.0,0.0,0.0,0.0,0.0,0.0,0.0,0.0,0.0,0.0,0.0,0.0,0.0,0.0,0.0,0.0,0.0,0.0,0.0,0.0,0.0,0.0,0.0,0.0,0.0,0.0,0.0,0.0,0.0,0.0,0.0,0.0,0.0,0.0,0.0,0.0,0.0,0.0,0.0,0.0,0.0,0.0,0.0,0.0,0.0,0.0,0.0,0.0,0.0,0.0,0.0,0.0,0.0,0.0,0.0,0.0,0.0,0.0,0.0,0.0,0.0,0.0,0.0,0.0,0.0,0.0,0.0,0.0,0.0,0.0,0.0,0.0,0.0,0.0,0.0,0.0,0.0,0.0,0.0,0.0,0.0,0.0,0.0,0.0,0.0,0.0,0.0,0.0,0.0,0.0,0.0,0.0,0.0,0.0,0.0,0.0,0.0,0.0,0.0,0.0,0.0,0.0,0.0,0.0,0.0,0.0,0.0,0.0,0.0,0.0,0.0,0.0,0.0,0.0,0.0,0.0,0.0,0.0,0.0,0.0,0.0,0.0,0.0,0.0,0.0,0.0,0.0,0.0,0.0,0.0,0.0,0.0,0.0,0.0,0.0,0.0,0.0,0.0,0.0,0.0,0.0,0.0,0.0,0.0,0.0,0.0,0.0,0.0,0.0,0.0,0.0,0.0,0.0,0.0,0.0,0.0,0.0,0.0,0.0,0.0,0.0,0.0,0.0,0.0,0.0,0.0,0.0,0.0,0.0,0.0,0.0,0.0,0.0,0.0,0.0,0.0,0.0,0.0,0.0,0.0,0.0,0.0,0.0,0.0,0.0,0.0,0.0,0.0,0.0,0.0,0.0,0.0,0.0,0.0,0.0,0.0,0.0,0.0,0.0,0.0,0.0,0.0,0.0,0.0,0.0,0.0,0.0,0.0,0.0,0.0,0.0,0.0,0.0,0.0,0.0,0.0,0.0,0.0,0.0,0.0,0.0,0.0,0.0,0.0,0.0,0.0,0.0,0.0,0.0,0.0,0.0,0.0,0.0,0.0,0.0,0.0,0.0,0.0,0.0,0.0,0.0,0.0,0.0,0.0,0.0,0.0,0.0,0.0,0.0,0.0,0.0,0.0,0.0,0.0,0.0,0.0,0.0,0.0,0.0,0.0,0.0,0.0,0.0,0.0,0.0,0.0,0.0,0.0,0.0,0.0,0.0,0.0,0.0,0.0,0.0,0.0,0.0,0.0,0.0,0.0,0.0,0.0,0.0,0.0,0.0,0.0,0.0,0.0,0.0,0.0,0.0,0.0,0.0,0.0,0.0,0.0,0.0,0.0,0.0,0.0,0.0,0.0,0.0,0.0,0.0,0.0,0.0,0.0,0.0,0.0,0.0,0.0,0.0,0.0,0.0,0.0,0.0,0.0,0.0,0.0,0.0,0.0,0.0,0.0,0.0,0.0,0.0,0.0,0.0,0.0,0.0,0.0,0.0,0.0,0.0,0.0,0.0,0.0,0.0,0.0,0.0,0.0,0.0,0.0,0.0,0.0,0.0,0.0,0.0,0.0,0.0,0.0,0.0,0.0,0.0,0.0,0.0,0.0,0.0,0.0,0.0,0.0,0.0,0.0,0.0,0.0,0.0,0.0,0.0,0.0,0.0,0.0,0.0,0.0,0.0,0.0,0.0,0.0,0.0,0.0,0.0,0.0,0.0,0.0,0.0,0.0,0.0,0.0,0.0,0.0,0.0,0.0,0.0,0.0,0.0,0.0,0.0,0.0,0.0,0.0,0.0,0.0,0.0,0.0,0.0,0.0,0.0,0.0,0.0,0.0,0.0,0.0,0.0,0.0,0.0,0.0,0.0,0.0,0.0,0.0,0.0,0.0,0.0,0.0,0.0,0.0,0.0,0.0,0.0,0.0,0.0,0.0,0.0,0.0,0.0,0.0,0.0,0.0,0.0,0.0,0.0,0.0,0.0,0.0,0.0,0.0,0.0,0.0,0.0,0.0,0.0,0.0,0.0,0.0,0.0,0.0,0.0,0.0,0.0,0.0,0.0,0.0,0.0,0.0,0.0,0.0,0.0,0.0,0.0,0.0,0.0,0.0,0.0,0.0,0.0,0.0,0.0,0.0,-1.9983,0.0,0.0,0.0,-1.788,0.0,0.0,0.0,0.0,0.0,0.0,0.0,0.0,0.0,0.0,0.0,0.0,0.0,0.0,0.0,0.0,0.0,0.0,0.0,0.0,0.0,0.0,0.0,0.0,0.0,0.0,0.0,0.0,0.0,0.0,0.0,0.0,0.0,0.0,0.0,0.0,0.0,0.0,0.0,0.0,0.0,0.0,0.0,0.0,0.0,0.0,0.0,0.0,0.0,0.0,0.0,0.0,0.0,0.0,0.0,0.0,0.0,0.0,0.0,0.0,0.0,0.0,0.0,0.0,0.0,0.0,0.0,0.0,0.0,0.0,0.0,0.0,0.0,0.0,0.0,0.0,0.0,0.0,0.0,0.0,0.0,0.0,0.0,0.0,0.0,0.0,0.0,0.0,0.0,0.0,0.0,0.0,0.0,0.0,0.0,0.0,0.0,0.0,0.0,0.0,0.0,0.0,0.0,0.0,0.0,0.0,0.0,0.0,0.0,0.0,-1.9752,-1.8933,-1.9245,-1.8833,-1.7587,0.0,0.0,0.0,0.0,0.0,0.0,0.0,0.0,0.0,0.0,0.0,0.0,0.0,0.0,0.0,0.0,0.0,0.0,0.0,0.0,0.0,0.0,0.0,0.0,0.0,0.0,0.0,0.0,0.0,0.0,0.0,0.0,0.0,0.0,0.0,0.0,0.0,0.0,0.0,0.0,0.0,0.0,0.0,0.0,0.0,0.0,0.0,0.0,0.0,0.0,0.0,0.0,0.0,0.0,0.0,0.0,0.0,0.0,0.0,0.0,0.0,0.0,0.0,0.0,0.0,0.0,0.0,0.0,0.0,0.0,0.0,0.0,0.0,0.0,0.0,0.0,0.0,0.0,0.0,0.0,0.0,0.0,0.0,0.0,0.0,0.0,0.0,0.0,0.0,0.0,0.0,0.0,0.0,0.0,0.0,0.0,0.0,0.0,0.0,0.0,0.0,0.0,0.0,0.0,0.0,0.0,0.0,0.0,0.0,0.0,0.0,0.0,-1.8592,-1.8164,-1.7459,0.0,0.0,0.0,0.0,0.0,0.0,0.0,0.0,0.0,0.0,0.0,0.0,0.0,0.0,0.0,0.0,0.0,0.0,0.0,0.0,0.0,0.0,0.0,0.0,0.0,0.0,0.0,0.0,0.0,0.0,0.0,0.0,0.0,0.0,0.0,0.0,0.0,0.0,0.0,0.0,0.0,0.0,0.0,0.0,0.0,0.0,0.0,0.0,0.0,0.0,0.0,0.0,0.0,0.0,0.0,0.0,0.0,0.0,0.0,0.0,0.0,0.0,0.0,0.0,0.0,0.0,0.0,0.0,0.0,0.0,0.0,0.0,0.0,0.0,0.0,0.0,0.0,0.0,0.0,0.0,0.0,0.0,0.0,0.0,0.0,0.0,0.0,0.0,0.0,0.0,0.0,0.0,0.0,0.0,0.0,0.0,0.0,0.0,0.0,0.0,0.0,0.0,0.0,0.0,0.0,0.0,0.0,0.0,0.0,0.0,-1.7907,-1.8595,-1.7917,0.0,-1.7288,0.0,0.0,0.0,0.0,0.0,0.0,0.0,0.0,0.0,0.0,0.0,0.0,0.0,0.0,0.0,0.0,0.0,0.0,0.0,0.0,0.0,0.0,0.0,0.0,0.0,0.0,0.0,0.0,0.0,0.0,0.0,0.0,0.0,0.0,0.0,0.0,0.0,0.0,0.0,0.0,0.0,0.0,0.0,0.0,0.0,0.0,0.0,0.0,0.0,0.0,0.0,0.0,0.0,0.0,0.0,0.0,0.0,0.0,0.0,0.0,0.0,0.0,0.0,0.0,0.0,0.0,0.0,0.0,0.0,0.0,0.0,0.0,0.0,0.0,0.0,0.0,0.0,0.0,0.0,0.0,0.0,0.0,0.0,0.0,0.0,0.0,0.0,0.0,0.0,0.0,0.0,0.0,0.0,0.0,0.0,0.0,0.0,0.0,0.0,0.0,0.0,0.0,0.0,0.0,0.0,0.0,0.0,0.0,0.0,0.0,-1.8183,-1.8535,-1.8256,-1.7589,0.0,0.0,0.0,0.0,0.0,0.0,0.0,0.0,0.0,0.0,0.0,0.0,0.0,0.0,0.0,0.0,0.0,0.0,0.0,0.0,0.0,0.0,0.0,0.0,0.0,0.0,0.0,0.0,0.0,0.0,0.0,0.0,0.0,0.0,0.0,0.0,0.0,0.0,0.0,0.0,0.0,0.0,0.0,0.0,0.0,0.0,0.0,0.0,0.0,0.0,0.0,0.0,0.0,0.0,0.0,0.0,0.0,0.0,0.0,0.0,0.0,0.0,0.0,0.0,0.0,0.0,0.0,0.0,0.0,0.0,0.0,0.0,0.0,0.0,0.0,0.0,0.0,0.0,0.0,0.0,0.0,0.0,0.0,0.0,0.0,0.0,0.0,0.0,0.0,0.0,0.0,0.0,0.0,0.0,0.0,0.0,0.0,0.0,0.0,0.0,0.0,0.0,0.0,0.0,0.0,0.0,0.0,0.0,0.0,0.0,-1.8012,-1.8441,-1.8445,-1.8282,-1.7468,-1.5954,0.0,0.0,0.0,0.0,0.0,0.0,0.0,0.0,0.0,0.0,0.0,0.0,0.0,0.0,0.0,0.0,0.0,0.0,0.0,0.0,0.0,0.0,0.0,0.0,0.0,0.0,0.0,0.0,0.0,0.0,0.0,0.0,0.0,0.0,0.0,0.0,0.0,0.0,0.0,0.0,0.0,0.0,0.0,0.0,0.0,0.0,0.0,0.0,0.0,0.0,0.0,0.0,0.0,0.0,0.0,0.0,0.0,0.0,0.0,0.0,0.0,0.0,0.0,0.0,0.0,0.0,0.0,0.0,0.0,0.0,0.0,0.0,0.0,0.0,0.0,0.0,0.0,0.0,0.0,0.0,0.0,0.0,0.0,0.0,0.0,0.0,0.0,0.0,0.0,0.0,0.0,0.0,0.0,0.0,0.0,0.0,0.0,0.0,0.0,0.0,0.0,0.0,0.0,0.0,0.0,0.0,0.0,0.0,-2.03,-1.9031,-1.8346,-1.8416,-1.7591,-1.6768,0.0,0.0,0.0,0.0,0.0,0.0,0.0,0.0,0.0,0.0,0.0,0.0,0.0,0.0,0.0,0.0,0.0,0.0,0.0,0.0,0.0,0.0,0.0,0.0,0.0,0.0,0.0,0.0,0.0,0.0,0.0,0.0,0.0,0.0,0.0,0.0,0.0,0.0,0.0,0.0,0.0,0.0,0.0,0.0,0.0,0.0,0.0,0.0,0.0,0.0,0.0,0.0,0.0,0.0,0.0,0.0,0.0,0.0,0.0,0.0,0.0,0.0,0.0,0.0,0.0,0.0,0.0,0.0,0.0,0.0,0.0,0.0,0.0,0.0,0.0,0.0,0.0,0.0,0.0,0.0,0.0,0.0,0.0,0.0,0.0,0.0,0.0,0.0,0.0,0.0,0.0,0.0,0.0,0.0,0.0,0.0,0.0,0.0,0.0,0.0,0.0,0.0,0.0,0.0,0.0,0.0,0.0,0.0,0.0,-1.6613,-1.7177,-1.8015,-1.9061,-1.7782,-1.6867,0.0,0.0,0.0,0.0,0.0,0.0,0.0,0.0,0.0,0.0,0.0,0.0,0.0,0.0,0.0,0.0,0.0,0.0,0.0,0.0,0.0,0.0,0.0,0.0,0.0,0.0,0.0,0.0,0.0,0.0,0.0,0.0,0.0,0.0,0.0,0.0,0.0,0.0,0.0,0.0,0.0,0.0,0.0,0.0,0.0,0.0,0.0,0.0,0.0,0.0,0.0,0.0,0.0,0.0,0.0,0.0,0.0,0.0,0.0,0.0,0.0,0.0,0.0,0.0,0.0,0.0,0.0,0.0,0.0,0.0,0.0,0.0,0.0,0.0,0.0,0.0,0.0,0.0,0.0,0.0,0.0,0.0,0.0,0.0,0.0,0.0,0.0,0.0,0.0,0.0,0.0,0.0,0.0,0.0,0.0,0.0,0.0,0.0,0.0,0.0,0.0,0.0,0.0,0.0,0.0,0.0,0.0,0.0,0.0,-1.5928,-1.7677,-1.8895,-1.9434,-1.8155,-1.698,0.0,0.0,0.0,0.0,0.0,0.0,0.0,0.0,0.0,0.0,0.0,0.0,0.0,0.0,0.0,0.0,0.0,0.0,0.0,0.0,0.0,0.0,0.0,0.0,0.0,0.0,0.0,0.0,0.0,0.0,0.0,0.0,0.0,0.0,0.0,0.0,0.0,0.0,0.0,0.0,0.0,0.0,0.0,0.0,0.0,0.0,0.0,0.0,0.0,0.0,0.0,0.0,0.0,0.0,0.0,0.0,0.0,0.0,0.0,0.0,0.0,0.0,0.0,0.0,0.0,0.0,0.0,0.0,0.0,0.0,0.0,0.0,0.0,0.0,0.0,0.0,0.0,0.0,0.0,0.0,0.0,0.0,0.0,0.0,0.0,0.0,0.0,0.0,0.0,0.0,0.0,0.0,0.0,0.0,0.0,0.0,0.0,0.0,0.0,0.0,0.0,0.0,0.0,0.0,0.0,0.0,0.0,0.0,-1.5853,-1.9062,-2.0807,-2.0842,-1.9457,-1.8533,-1.6966,0.0,0.0,0.0,0.0,0.0,0.0,0.0,0.0,0.0,0.0,0.0,0.0,0.0,0.0,0.0,0.0,0.0,0.0,0.0,0.0,0.0,0.0,0.0,0.0,0.0,0.0,0.0,0.0,0.0,0.0,0.0,0.0,0.0,0.0,0.0,0.0,0.0,0.0,0.0,0.0,0.0,0.0,0.0,0.0,0.0,0.0,0.0,0.0,0.0,0.0,0.0,0.0,0.0,0.0,0.0,0.0,0.0,0.0,0.0,0.0,0.0,0.0,0.0,0.0,0.0,0.0,0.0,0.0,0.0,0.0,0.0,0.0,0.0,0.0,0.0,0.0,0.0,0.0,0.0,0.0,0.0,0.0,0.0,0.0,0.0,0.0,0.0,0.0,0.0,0.0,0.0,0.0,0.0,0.0,0.0,0.0,0.0,0.0,0.0,0.0,0.0,0.0,0.0,0.0,0.0,0.0,0.0,0.0,0.0,-1.6586,-1.8595,-1.9514,-1.9091,-1.7666,-1.6828,0.0,0.0,0.0,0.0,0.0,0.0,0.0,0.0,0.0,0.0,0.0,0.0,0.0,0.0,0.0,0.0,0.0,0.0,0.0,0.0,0.0,0.0,0.0,0.0,0.0,0.0,0.0,0.0,0.0,0.0,0.0,0.0,0.0,0.0,0.0,0.0,0.0,0.0,0.0,0.0,0.0,0.0,0.0,0.0,0.0,0.0,0.0,0.0,0.0,0.0,0.0,0.0,0.0,0.0,0.0,0.0,0.0,0.0,0.0,0.0,0.0,0.0,0.0,0.0,0.0,0.0,0.0,0.0,0.0,0.0,0.0,0.0,0.0,0.0,0.0,0.0,0.0,0.0,0.0,0.0,0.0,0.0,0.0,0.0,0.0,0.0,0.0,0.0,0.0,0.0,0.0,0.0,0.0,0.0,0.0,0.0,0.0,0.0,0.0,0.0,0.0,0.0,0.0,0.0,0.0,0.0,0.0,0.0,0.0,-1.7654,-1.9902,-2.0896,-2.0373,-1.868,-1.7564,-1.7112,0.0,0.0,0.0,0.0,0.0,0.0,0.0,0.0,0.0,0.0,0.0,0.0,0.0,0.0,0.0,0.0,0.0,0.0,0.0,0.0,0.0,0.0,0.0,0.0,0.0,0.0,0.0,0.0,0.0,0.0,0.0,0.0,0.0,0.0,0.0,0.0,0.0,0.0,0.0,0.0,0.0,0.0,0.0,0.0,0.0,0.0,0.0,0.0,0.0,0.0,0.0,0.0,0.0,0.0,0.0,0.0,0.0,0.0,0.0,0.0,0.0,0.0,0.0,0.0,0.0,0.0,0.0,0.0,0.0,0.0,0.0,0.0,0.0,0.0,0.0,0.0,0.0,0.0,0.0,0.0,0.0,0.0,0.0,0.0,0.0,0.0,0.0,0.0,0.0,0.0,0.0,0.0,0.0,0.0,0.0,0.0,0.0,0.0,0.0,0.0,0.0,0.0,0.0,0.0,0.0,0.0,0.0,0.0,-2.1391,-2.4034,-2.4555,-2.2813,-2.1052,-1.8968,0.0,0.0,0.0,0.0,0.0,0.0,0.0,0.0,0.0,0.0,0.0,0.0,0.0,0.0,0.0,0.0,0.0,0.0,0.0,0.0,0.0,0.0,0.0,0.0,0.0,0.0,0.0,0.0,0.0,0.0,0.0,0.0,0.0,0.0,0.0,0.0,0.0,0.0,0.0,0.0,0.0,0.0,0.0,0.0,0.0,0.0,0.0,0.0,0.0,0.0,0.0,0.0,0.0,0.0,0.0,0.0,0.0,0.0,0.0,0.0,0.0,0.0,0.0,0.0,0.0,0.0,0.0,0.0,0.0,0.0,0.0,0.0,0.0,0.0,0.0,0.0,0.0,0.0,0.0,0.0,0.0,0.0,0.0,0.0,0.0,0.0,0.0,0.0,0.0,0.0,0.0,0.0,0.0,0.0,0.0,0.0,0.0,0.0,0.0,0.0,0.0,0.0,0.0,0.0,0.0,0.0,0.0,0.0,0.0,-2.375,-2.5839,-2.5968,-2.3987,-2.1231,-1.9356,0.0,0.0,0.0,0.0,0.0,0.0,0.0,0.0,0.0,0.0,0.0,0.0,0.0,0.0,0.0,0.0,0.0,0.0,0.0,0.0,0.0,0.0,0.0,0.0,0.0,0.0,0.0,0.0,0.0,0.0,0.0,0.0,0.0,0.0,0.0,0.0,0.0,0.0,0.0,0.0,0.0,0.0,0.0,0.0,0.0,0.0,0.0,0.0,0.0,0.0,0.0,0.0,0.0,0.0,0.0,0.0,0.0,0.0,0.0,0.0,0.0,0.0,0.0,0.0,0.0,0.0,0.0,0.0,0.0,0.0,0.0,0.0,0.0,0.0,0.0,0.0,0.0,0.0,0.0,0.0,0.0,0.0,0.0,0.0,0.0,0.0,0.0,0.0,0.0,0.0,0.0,0.0,0.0,0.0,0.0,0.0,0.0,0.0,0.0,0.0,0.0,0.0,0.0,0.0,0.0,0.0,0.0,0.0,-2.3025,-2.5219,-2.7138,-2.7423,-2.591,-2.2676,-2.0382,0.0,0.0,0.0,0.0,0.0,0.0,0.0,0.0,0.0,0.0,0.0,0.0,0.0,0.0,0.0,0.0,0.0,0.0,0.0,0.0,0.0,0.0,0.0,0.0,0.0,0.0,0.0,0.0,0.0,0.0,0.0,0.0,0.0,0.0,0.0,0.0,0.0,0.0,0.0,0.0,0.0,0.0,0.0,0.0,0.0,0.0,0.0,0.0,0.0,0.0,0.0,0.0,0.0,0.0,0.0,0.0,0.0,0.0,0.0,0.0,0.0,0.0,0.0,0.0,0.0,0.0,0.0,0.0,0.0,0.0,0.0,0.0,0.0,0.0,0.0,0.0,0.0,0.0,0.0,0.0,0.0,0.0,0.0,0.0,0.0,0.0,0.0,0.0,0.0,0.0,0.0,0.0,0.0,0.0,0.0,0.0,0.0,0.0,0.0,0.0,0.0,0.0,0.0,0.0,0.0,0.0,0.0,0.0,-2.432,-2.6007,-2.79,-2.8533,-2.778,-2.4554,-2.1665,0.0,0.0,0.0,0.0,0.0,0.0,0.0,0.0,0.0,0.0,0.0,0.0,0.0,0.0,0.0,0.0,0.0,0.0,0.0,0.0,0.0,0.0,0.0,0.0,0.0,0.0,0.0,0.0,0.0,0.0,0.0,0.0,0.0,0.0,0.0,0.0,0.0,0.0,0.0,0.0,0.0,0.0,0.0,0.0,0.0,0.0,0.0,0.0,0.0,0.0,0.0,0.0,0.0,0.0,0.0,0.0,0.0,0.0,0.0,0.0,0.0,0.0,0.0,0.0,0.0,0.0,0.0,0.0,0.0,0.0,0.0,0.0,0.0,0.0,0.0,0.0,0.0,0.0,0.0,0.0,0.0,0.0,0.0,0.0,0.0,0.0,0.0,0.0,0.0,0.0,0.0,0.0,0.0,0.0,0.0,0.0,0.0,0.0,0.0,0.0,0.0,0.0,0.0,0.0,0.0,0.0,0.0,0.0,-2.4495,-2.6202,-2.7489,-2.7908,-2.7407,-2.4431,-2.1784,0.0,0.0,0.0,0.0,0.0,0.0,0.0,0.0,0.0,0.0,0.0,0.0,0.0,0.0,0.0,0.0,0.0,0.0,0.0,0.0,0.0,0.0,0.0,0.0,0.0,0.0,0.0,0.0,0.0,0.0,0.0,0.0,0.0,0.0,0.0,0.0,0.0,0.0,0.0,0.0,0.0,0.0,0.0,0.0,0.0,0.0,0.0,0.0,-1.5747,0.0,0.0,0.0,0.0,0.0,0.0,0.0,0.0,0.0,0.0,0.0,0.0,0.0,0.0,0.0,0.0,0.0,0.0,0.0,0.0,0.0,0.0,0.0,0.0,0.0,0.0,0.0,0.0,0.0,0.0,0.0,0.0,0.0,0.0,0.0,0.0,0.0,0.0,0.0,0.0,0.0,0.0,0.0,0.0,0.0,0.0,0.0,0.0,0.0,0.0,0.0,0.0,0.0,0.0,0.0,0.0,0.0,0.0,0.0,-2.453,-2.626,-2.7352,-2.771,-2.7265,-2.5268,-2.275,0.0,0.0,0.0,0.0,0.0,0.0,0.0,0.0,0.0,0.0,0.0,0.0,0.0,0.0,0.0,0.0,0.0,0.0,0.0,0.0,0.0,0.0,0.0,0.0,0.0,0.0,0.0,0.0,0.0,0.0,0.0,0.0,0.0,0.0,0.0,0.0,0.0,0.0,0.0,0.0,0.0,0.0,0.0,0.0,0.0,0.0,0.0,0.0,0.0,0.0,0.0,0.0,0.0,0.0,0.0,0.0,0.0,0.0,0.0,0.0,0.0,0.0,0.0,0.0,0.0,0.0,0.0,0.0,0.0,0.0,0.0,0.0,0.0,0.0,0.0,0.0,0.0,0.0,0.0,0.0,0.0,0.0,0.0,0.0,0.0,0.0,0.0,0.0,0.0,0.0,0.0,0.0,0.0,0.0,0.0,0.0,0.0,0.0,0.0,0.0,0.0,0.0,0.0,0.0,0.0,0.0,0.0,-2.1946,-2.4365,-2.6296,-2.7242,-2.7545,-2.7192,-2.6088,-2.3611,-1.9754,0.0,0.0,0.0,0.0,0.0,0.0,0.0,0.0,0.0,0.0,0.0,0.0,0.0,0.0,0.0,0.0,0.0,0.0,0.0,0.0,0.0,0.0,0.0,0.0,0.0,0.0,0.0,0.0,0.0,0.0,0.0,0.0,0.0,0.0,0.0,0.0,0.0,0.0,-1.1499,-1.2783,0.0,0.0,0.0,0.0,0.0,0.0,0.0,0.0,-1.5552,0.0,0.0,0.0,0.0,0.0,0.0,0.0,0.0,0.0,0.0,0.0,0.0,0.0,0.0,0.0,0.0,0.0,0.0,0.0,0.0,0.0,0.0,0.0,0.0,0.0,0.0,0.0,0.0,0.0,0.0,0.0,0.0,0.0,0.0,0.0,0.0,0.0,0.0,0.0,0.0,0.0,0.0,0.0,0.0,0.0,0.0,0.0,0.0,0.0,0.0,0.0,0.0,0.0,0.0,0.0,0.0,-2.2006,-2.2043,-2.3518,-2.6536,-2.6789,-2.6873,-2.6757,-2.5272,-2.2916,-1.9796,0.0,0.0,0.0,0.0,0.0,0.0,0.0,0.0,0.0,0.0,0.0,0.0,0.0,0.0,0.0,0.0,0.0,0.0,0.0,0.0,0.0,0.0,0.0,0.0,0.0,0.0,0.0,0.0,0.0,0.0,0.0,0.0,0.0,0.0,0.0,0.0,0.0,0.0,0.0,-1.4759,-1.4908,0.0,0.0,0.0,0.0,0.0,0.0,0.0,0.0,-1.6485,0.0,0.0,0.0,0.0,0.0,0.0,0.0,0.0,0.0,0.0,0.0,0.0,0.0,0.0,0.0,0.0,0.0,0.0,0.0,0.0,0.0,0.0,0.0,0.0,0.0,0.0,0.0,0.0,0.0,0.0,0.0,0.0,0.0,0.0,0.0,0.0,0.0,0.0,0.0,0.0,0.0,0.0,0.0,0.0,0.0,0.0,0.0,0.0,0.0,0.0,0.0,0.0,0.0,0.0,0.0,-2.0896,-2.2456,-2.4332,-2.6607,-2.6708,-2.659,-2.6333,-2.5217,-2.2899,0.0,0.0,0.0,0.0,0.0,0.0,0.0,0.0,0.0,0.0,0.0,0.0,0.0,0.0,0.0,0.0,0.0,0.0,0.0,0.0,0.0,0.0,0.0,0.0,0.0,0.0,0.0,0.0,0.0,0.0,0.0,0.0,0.0,0.0,0.0,0.0,0.0,0.0,0.0,0.0,-1.5165,-1.5876,-1.7809,0.0,0.0,0.0,0.0,0.0,0.0,-1.6412,-1.5905,0.0,0.0,0.0,0.0,0.0,0.0,0.0,0.0,0.0,0.0,0.0,0.0,0.0,0.0,0.0,0.0,0.0,0.0,0.0,0.0,0.0,0.0,0.0,0.0,0.0,0.0,0.0,0.0,0.0,0.0,0.0,0.0,0.0,0.0,0.0,0.0,0.0,0.0,0.0,0.0,0.0,0.0,0.0,0.0,0.0,0.0,0.0,0.0,0.0,0.0,0.0,0.0,0.0,0.0,0.0,-1.9592,-2.249,-2.4766,-2.6317,-2.6385,-2.6228,-2.5819,-2.4962,-2.2637,0.0,0.0,0.0,0.0,0.0,0.0,0.0,0.0,0.0,0.0,0.0,0.0,0.0,0.0,0.0,0.0,0.0,0.0,0.0,0.0,0.0,0.0,0.0,0.0,0.0,0.0,0.0,0.0,0.0,0.0,0.0,0.0,0.0,0.0,0.0,0.0,0.0,0.0,0.0,0.0,0.0,-1.6547,-1.8337,-1.7046,0.0,0.0,0.0,0.0,-1.6195,-1.6274,0.0,0.0,0.0,0.0,0.0,0.0,0.0,0.0,0.0,0.0,0.0,0.0,0.0,0.0,0.0,0.0,0.0,0.0,0.0,0.0,0.0,0.0,0.0,0.0,0.0,0.0,0.0,0.0,0.0,0.0,0.0,0.0,0.0,0.0,0.0,0.0,0.0,0.0,0.0,0.0,0.0,0.0,0.0,0.0,0.0,0.0,0.0,0.0,0.0,0.0,0.0,0.0,0.0,0.0,0.0,0.0,-2.0073,-2.1268,-2.3,-2.5225,-2.5373,-2.5338,-2.5281,-2.3566,-2.1358,0.0,0.0,0.0,0.0,0.0,0.0,0.0,0.0,0.0,0.0,0.0,0.0,0.0,0.0,0.0,0.0,0.0,0.0,0.0,0.0,0.0,0.0,0.0,0.0,0.0,0.0,0.0,0.0,0.0,0.0,0.0,0.0,0.0,0.0,0.0,0.0,0.0,0.0,0.0,0.0,0.0,-1.6272,-1.7489,-1.6614,-1.5809,0.0,0.0,-1.8322,-1.9012,-2.0031,0.0,0.0,0.0,0.0,0.0,0.0,0.0,0.0,0.0,0.0,0.0,0.0,0.0,0.0,0.0,0.0,0.0,0.0,0.0,0.0,0.0,0.0,0.0,0.0,0.0,0.0,0.0,0.0,0.0,0.0,0.0,0.0,0.0,0.0,0.0,0.0,0.0,0.0,0.0,0.0,0.0,0.0,0.0,0.0,0.0,0.0,0.0,0.0,0.0,0.0,0.0,0.0,0.0,0.0,0.0,-1.7296,-1.9675,-2.1978,-2.3817,-2.5134,-2.5202,-2.5051,-2.4756,-2.294,-2.0713,0.0,0.0,0.0,0.0,0.0,0.0,0.0,0.0,0.0,0.0,0.0,0.0,0.0,0.0,0.0,0.0,0.0,0.0,0.0,0.0,0.0,0.0,0.0,0.0,0.0,0.0,0.0,0.0,0.0,0.0,0.0,0.0,0.0,0.0,0.0,0.0,0.0,0.0,0.0,0.0,0.0,0.0,-1.9095,-1.8189,0.0,0.0,0.0,-1.8407,-1.7806,0.0,0.0,0.0,0.0,0.0,0.0,0.0,0.0,0.0,0.0,0.0,0.0,0.0,0.0,0.0,0.0,0.0,0.0,0.0,0.0,0.0,0.0,0.0,0.0,0.0,0.0,0.0,0.0,0.0,0.0,0.0,0.0,0.0,0.0,0.0,0.0,0.0,0.0,0.0,0.0,0.0,0.0,0.0,0.0,0.0,0.0,0.0,0.0,0.0,0.0,0.0,0.0,0.0,0.0,0.0,0.0,0.0,-1.9186,-2.2478,-2.4389,-2.4792,-2.4796,-2.4612,-2.4189,-2.2571,0.0,0.0,0.0,0.0,0.0,0.0,0.0,0.0,0.0,0.0,0.0,0.0,0.0,0.0,0.0,0.0,0.0,0.0,0.0,0.0,0.0,0.0,0.0,0.0,0.0,0.0,0.0,-0.749,0.0,0.0,0.0,0.0,0.0,0.0,0.0,0.0,0.0,0.0,0.0,0.0,0.0,0.0,-1.849,-1.9868,-1.9228,-1.9134,0.0,0.0,-1.8391,-1.7686,-1.9614,-2.0018,0.0,0.0,0.0,0.0,0.0,0.0,0.0,0.0,0.0,0.0,0.0,0.0,0.0,0.0,0.0,0.0,0.0,0.0,0.0,0.0,0.0,0.0,0.0,0.0,0.0,0.0,0.0,0.0,0.0,0.0,0.0,0.0,0.0,0.0,0.0,0.0,0.0,0.0,0.0,0.0,0.0,0.0,0.0,0.0,0.0,0.0,0.0,0.0,0.0,0.0,0.0,0.0,0.0,0.0,-1.7742,-1.9058,-2.207,-2.3674,-2.3724,-2.3724,-2.3687,-2.3638,-2.2316,-2.0191,0.0,0.0,0.0,0.0,0.0,0.0,0.0,0.0,0.0,0.0,0.0,0.0,0.0,0.0,0.0,0.0,0.0,0.0,0.0,0.0,0.0,0.0,0.0,0.0,0.0,0.0,0.0,0.0,0.0,0.0,0.0,0.0,0.0,0.0,0.0,0.0,0.0,0.0,0.0,0.0,0.0,-1.6904,-1.8359,-1.8623,-1.9298,0.0,-1.9802,-1.9222,-2.0721,-2.2196,-2.1739,-1.7404,0.0,0.0,0.0,0.0,0.0,0.0,0.0,0.0,0.0,0.0,0.0,0.0,0.0,0.0,0.0,0.0,0.0,0.0,0.0,0.0,0.0,0.0,0.0,0.0,0.0,0.0,0.0,0.0,0.0,0.0,0.0,0.0,0.0,0.0,0.0,0.0,0.0,0.0,0.0,0.0,0.0,0.0,0.0,0.0,0.0,0.0,0.0,0.0,0.0,0.0,0.0,0.0,0.0,-1.7006,-1.8324,-2.1024,-2.2643,-2.3031,-2.3031,-2.3054,-2.3046,-2.1831,-1.9991,0.0,0.0,0.0,0.0,0.0,0.0,0.0,0.0,0.0,0.0,0.0,0.0,0.0,0.0,0.0,0.0,0.0,0.0,0.0,0.0,0.0,0.0,0.0,0.0,0.0,0.0,0.0,0.0,-1.1597,-1.1693,-1.0211,0.0,0.0,0.0,0.0,0.0,0.0,0.0,0.0,0.0,0.0,-1.8939,-2.0575,-2.0885,0.0,0.0,-2.1597,-2.0884,-2.083,-2.1352,-2.0715,-1.7561,-1.6391,0.0,0.0,0.0,0.0,0.0,0.0,0.0,0.0,0.0,0.0,0.0,0.0,0.0,0.0,0.0,0.0,0.0,0.0,0.0,0.0,0.0,0.0,0.0,0.0,0.0,0.0,0.0,0.0,0.0,0.0,0.0,0.0,0.0,0.0,0.0,0.0,0.0,0.0,0.0,0.0,0.0,0.0,0.0,0.0,0.0,0.0,0.0,0.0,0.0,0.0,0.0,0.0,-1.6456,-1.7713,-2.0516,-2.2178,-2.2653,-2.2828,-2.2904,-2.2876,-2.19,-2.0386,0.0,0.0,0.0,0.0,0.0,0.0,0.0,0.0,0.0,0.0,0.0,0.0,0.0,0.0,0.0,0.0,0.0,0.0,0.0,0.0,0.0,0.0,0.0,0.0,0.0,0.0,0.0,0.0,-1.2005,-1.1938,-1.0417,0.0,0.0,0.0,0.0,0.0,0.0,0.0,0.0,0.0,0.0,-2.0217,-2.1569,-2.1617,-2.1676,-2.21,-2.1464,-2.0721,-2.0064,-2.0346,-1.986,-1.7535,0.0,0.0,0.0,0.0,0.0,0.0,0.0,0.0,0.0,0.0,0.0,0.0,0.0,0.0,0.0,0.0,0.0,0.0,0.0,0.0,0.0,0.0,0.0,0.0,0.0,0.0,0.0,-0.7739,0.0,0.0,-0.7729,0.0,0.0,0.0,0.0,0.0,0.0,0.0,0.0,0.0,0.0,0.0,0.0,0.0,0.0,0.0,0.0,0.0,0.0,0.0,0.0,0.0,0.0,-1.6235,-1.7325,-2.0755,-2.2586,-2.26,-2.31,-2.335,-2.3324,-2.2711,-2.1602,-1.9932,0.0,0.0,0.0,0.0,0.0,0.0,0.0,0.0,0.0,0.0,0.0,0.0,0.0,0.0,0.0,0.0,0.0,0.0,0.0,0.0,0.0,0.0,0.0,0.0,0.0,0.0,-0.7373,-0.8662,-0.9916,0.0,0.0,0.0,0.0,0.0,0.0,0.0,0.0,0.0,-1.6458,-1.8579,-1.9978,-2.0473,-2.0118,-1.9896,-1.9909,-1.8809,-1.8166,-1.8747,-1.9625,-1.9562,0.0,0.0,0.0,0.0,0.0,0.0,0.0,0.0,0.0,0.0,0.0,0.0,0.0,0.0,0.0,0.0,0.0,0.0,0.0,0.0,0.0,0.0,0.0,0.0,0.0,0.0,0.0,-0.9188,-0.8909,0.0,0.0,0.0,0.0,0.0,0.0,0.0,0.0,0.0,0.0,0.0,-1.2995,-1.3376,0.0,0.0,0.0,0.0,0.0,0.0,0.0,0.0,0.0,0.0,0.0,0.0,-1.6068,-1.7311,-2.0308,-2.2048,-2.2458,-2.2658,-2.2724,-2.2724,-2.2524,-2.1433,-1.9328,0.0,0.0,0.0,0.0,0.0,0.0,0.0,0.0,0.0,0.0,0.0,0.0,0.0,0.0,0.0,0.0,0.0,0.0,0.0,0.0,0.0,0.0,0.0,0.0,0.0,-0.9678,0.0,0.0,0.0,0.0,0.0,0.0,0.0,0.0,0.0,0.0,-1.2419,-1.4674,-1.649,-1.8044,-1.9331,-2.0224,-2.0526,-2.0912,0.0,0.0,0.0,0.0,0.0,0.0,0.0,0.0,0.0,0.0,0.0,0.0,0.0,-1.7436,-1.6967,-1.3713,-1.3431,-1.3706,-1.3718,0.0,0.0,0.0,0.0,0.0,0.0,0.0,0.0,0.0,0.0,0.0,0.0,0.0,0.0,-1.0571,-0.9938,-0.9997,0.0,0.0,0.0,0.0,0.0,0.0,0.0,0.0,-1.3381,-1.4476,-1.4603,-1.4932,-1.4716,-1.3973,-1.312,-1.2112,0.0,0.0,0.0,0.0,0.0,0.0,0.0,0.0,-1.5512,-1.6753,-1.9468,-2.108,-2.1496,-2.1968,-2.2223,-2.2223,-2.2503,-2.1797,-2.0023,-1.8712,-1.7219,0.0,0.0,0.0,0.0,0.0,0.0,0.0,0.0,0.0,0.0,0.0,0.0,0.0,0.0,0.0,0.0,0.0,0.0,0.0,0.0,0.0,0.0,0.0,-1.0201,0.0,0.0,0.0,0.0,0.0,0.0,0.0,0.0,0.0,-1.1623,-1.4048,-1.6241,-1.767,-1.9172,-1.9998,-1.9709,0.0,0.0,0.0,0.0,0.0,0.0,0.0,-1.7909,-1.8007,-1.7727,-1.7776,-1.8743,-1.9775,-2.0297,-1.9821,0.0,0.0,-1.6692,-1.6369,-1.6643,-1.6643,-1.651,-1.6471,-1.6652,-1.7102,-1.7423,0.0,0.0,0.0,0.0,-1.05,0.0,0.0,0.0,-1.2466,-1.1838,0.0,-1.0952,0.0,0.0,0.0,0.0,-0.8334,-1.0591,0.0,0.0,-1.589,-1.744,-1.6967,-1.6926,-1.7006,-1.6925,-1.5234,-1.4258,-1.3934,-1.2691,-1.1589,0.0,0.0,0.0,0.0,0.0,-1.4696,-1.5854,-1.8426,-1.9769,-1.9896,-2.116,-2.1865,-2.1854,-2.2573,-2.2592,-2.1813,-1.9608,-1.7975,-1.7092,-1.3383,0.0,0.0,0.0,0.0,0.0,0.0,0.0,0.0,0.0,0.0,0.0,0.0,0.0,0.0,0.0,0.0,0.0,0.0,0.0,0.0,-0.9603,0.0,0.0,0.0,0.0,0.0,0.0,0.0,0.0,0.0,-1.361,-1.4261,-1.59,-1.7794,-1.9695,0.0,0.0,0.0,0.0,-2.0303,-1.8263,-1.7726,-1.7532,-1.7099,-1.8706,-2.0104,-2.0251,0.0,0.0,-2.1539,-2.1231,-2.0925,-1.9658,-2.144,-2.2332,-2.0519,-1.9277,-1.8545,-1.8497,-1.8221,-1.7894,-1.8366,-1.9437,-1.9919,-1.2117,0.0,0.0,0.0,0.0,-1.2411,-1.3358,-1.5112,-1.4175,-1.3206,-1.2285,-1.1715,0.0,0.0,0.0,0.0,0.0,0.0,-1.1237,-1.2451,-1.4413,-1.5798,-1.6703,-1.7109,-1.729,-1.7229,-1.5773,-1.4991,-1.4885,-1.386,-1.2476,-1.0811,0.0,0.0,0.0,0.0,-1.6084,-1.7242,-1.9268,-2.0335,-2.0378,-2.0746,-2.0985,-2.0974,-2.1207,-2.1195,-2.0974,-2.0279,-1.906,-1.7183,-1.5991,0.0,0.0,0.0,0.0,0.0,0.0,0.0,0.0,0.0,0.0,0.0,0.0,0.0,0.0,0.0,0.0,0.0,0.0,0.0,-0.8271,-1.0012,-1.0588,0.0,0.0,0.0,0.0,0.0,0.0,0.0,0.0,0.0,-1.6205,-1.6414,-1.6545,0.0,0.0,-1.8027,-1.7317,-1.9321,-2.1104,-2.1812,-2.2186,0.0,-2.23,-2.1167,-2.0333,-2.0366,-2.2329,-2.3571,-2.2718,-2.4157,-2.502,-2.3592,-2.4467,-2.5123,-2.419,-2.3424,-2.2896,-2.2896,-2.2784,-2.2735,-2.2914,-2.3167,-2.329,-1.3217,-1.2395,-1.1571,-1.2288,-1.3832,-1.3491,-1.4397,-1.6118,-1.5326,-1.4438,-1.3538,-1.3028,-1.1668,-0.9778,-0.9397,0.0,0.0,0.0,-1.1714,-1.2935,-1.4123,-1.5347,-1.6557,-1.693,-1.7274,-1.7531,-1.6224,-1.5635,-1.577,-1.4271,-1.2885,-1.1667,0.0,-1.1659,-1.1916,-1.425,-1.5918,-1.683,-1.8637,-1.9552,-1.9562,-1.9911,-2.0225,-2.0579,-2.059,-2.043,-2.0107,-2.0074,-1.9254,-1.7541,-1.6792,-1.5646,0.0,0.0,0.0,0.0,0.0,0.0,0.0,0.0,0.0,0.0,0.0,-0.9692,-0.8532,0.0,0.0,0.0,-1.0069,-0.9649,-0.9207,-1.0748,0.0,0.0,0.0,0.0,0.0,0.0,0.0,-1.2333,-1.443,-1.6248,-1.7164,-1.7073,-1.7073,-1.7543,-1.825,-1.8523,-1.7897,0.0,-2.2539,-2.3155,-2.3904,-2.4443,-2.4486,-2.3511,-2.2864,-2.3387,-2.4189,-2.4708,-2.4307,-2.5314,-2.5636,-2.486,-2.5229,-2.581,-2.5419,-2.5393,-2.5297,-2.4908,-2.48,-2.48,-2.48,-2.48,-2.48,-1.4142,-1.3988,-1.2068,-1.2478,-1.4252,-1.3843,-1.4611,-1.6032,-1.5956,-1.5367,-1.4426,-1.4463,-1.3129,-1.0766,-0.9845,0.0,-1.1042,-1.202,-1.2892,-1.3711,-1.4681,-1.5601,-1.6447,-1.6517,-1.7024,-1.7777,-1.6467,-1.6023,-1.6271,-1.4147,-1.2952,-1.2849,-1.2538,-1.2204,-1.1964,-1.3585,-1.4704,-1.5313,-1.701,-1.7959,-1.8057,-1.8838,-1.9627,-2.0365,-2.0398,-2.0009,-1.9233,-1.921,-1.8821,-1.7993,-1.6484,-1.5576,-1.5361,0.0,0.0,0.0,0.0,0.0,0.0,0.0,0.0,0.0,0.0,0.0,0.0,0.0,0.0,-1.2031,-1.283,0.0,-1.1589,-1.1614,0.0,0.0,0.0,-1.2248,-1.3429,-1.4591,-1.5359,-1.5457,0.0,0.0,-1.7603,-1.7944,-1.8874,-2.0646,-2.1535,-2.14,-1.9727,-2.2212,-2.4046,-2.2983,-2.3825,-2.4539,-2.4508,-2.4975,-2.5672,-2.6675,-2.6949,-2.5983,-2.5503,-2.4995,-2.4186,-2.3635,-2.4319,-2.5004,-2.4992,-2.568,-2.6046,-2.5041,-2.4936,-2.4983,-2.5021,-2.5046,-2.5071,-1.4616,-1.4382,-1.3878,-1.4336,-1.5313,-1.5233,-1.5683,-1.6454,-1.5803,-1.514,-1.4508,-1.3825,-1.3158,-1.2577,-1.2325,-1.2381,-1.2647,-1.2906,-1.313,-1.3368,-1.4309,-1.4866,-1.5085,-1.5785,-1.627,-1.641,-1.5405,-1.497,-1.4994,-1.3786,-1.2922,-1.2457,-1.2366,-1.2333,-1.2365,-1.3427,-1.4397,-1.5212,-1.646,-1.7533,-1.8397,-1.8651,-1.8724,-1.864,-1.862,-1.8529,-1.8337,-1.8293,-1.8212,-1.7998,-1.7617,-1.6867,-1.5664,-1.3561,0.0,0.0,0.0,0.0,0.0,0.0,0.0,0.0,0.0,-0.9307,-0.7723,0.0,-0.9996,0.0,-1.2785,-1.3122,-1.0844,-1.1746,0.0,0.0,-1.283,-1.334,-1.537,-1.652,-1.7129,-1.7053,-1.8264,-1.9242,-1.9588,-1.9714,-2.0206,-2.1422,-2.0389,-1.9475,-1.9547,-2.1654,-2.3378,-2.3634,-2.4925,-2.5645,-2.486,-2.3888,-2.3761,-2.4327,-2.4632,-2.4537,-2.3982,-2.4724,-2.4851,-2.3734,-2.4172,-2.475,-2.4842,-2.5055,-2.5289,-2.5385,-2.5775,-2.6109,-2.6109,-2.6084,-2.6097,-1.4914,-1.4716,-1.4716,-1.4959,-1.5369,-1.5091,-1.5202,-1.5516,-1.5001,-1.4621,-1.433,-1.3655,-1.3407,-1.3353,-1.3227,-1.3206,-1.3206,-1.3206,-1.3206,-1.3246,-1.3745,-1.4194,-1.4608,-1.5134,-1.5626,-1.5962,-1.5057,-1.4576,-1.4538,-1.366,-1.3039,-1.2705,-1.2705,-1.2666,-1.267,-1.3132,-1.3579,-1.397,-1.5385,-1.6537,-1.7397,-1.7924,-1.767,-1.6599,-1.7338,-1.7244,-1.6191,-1.6481,-1.6449,-1.5988,-1.5928,-1.556,-1.4708,-1.3296,-1.2182,0.0,0.0,0.0,0.0,0.0,0.0,0.0,0.0,0.0,0.0,0.0,-1.023,-1.0197,-1.2639,-1.3211,-1.0784,-1.1985,-1.3347,-1.4349,-1.4526,-1.5447,-1.7676,-1.8737,-1.9296,-1.9222,-2.0062,-2.074,-2.0973,-2.1002,-2.1285,-2.207,-2.1093,-2.0467,-2.0929,-2.2525,-2.3856,-2.425,-2.554,-2.6307,-2.5641,-2.485,-2.4388,-2.465,-2.4562,-2.4304,-2.3822,-2.3978,-2.3845,-2.2982,-2.3492,-2.4119,-2.4147,-2.4541,-2.4909,-2.5158,-2.5352,-2.5731,-2.6352,-2.6487,-2.6487,-1.5057,-1.5068,-1.5062,-1.5042,-1.4968,-1.4416,-1.4182,-1.4142,-1.4102,-1.4088,-1.4075,-1.3814,-1.366,-1.364,-1.3434,-1.332,-1.3327,-1.3327,-1.3327,-1.332,-1.332,-1.3744,-1.4506,-1.4545,-1.4961,-1.5714,-1.4915,-1.4538,-1.4545,-1.3705,-1.3247,-1.3213,-1.3206,-1.3019,-1.2694,-1.2784,-1.2725,-1.2613,-1.425,-1.5364,-1.5883,-1.6804,-1.6438,-1.4824,-1.6249,-1.6112,-1.4075,-1.4573,-1.4475,-1.359,-1.3517,-1.349,-1.3442,-1.2832,-1.2227,0.0,-1.0624,0.0,0.0,0.0,0.0,0.0,0.0,0.0,0.0,-1.117,-1.1025,-1.0222,-1.2487,-1.3237,-1.1411,-1.2523,-1.4017,-1.5656,-1.6617,-1.7915,-1.9811,-2.081,-2.1298,-2.1356,-2.1728,-2.1973,-2.2041,-2.2051,-2.2197,-2.251,-2.251,-2.2383,-2.2634,-2.3618,-2.4396,-2.4575,-2.542,-2.5724,-2.5766,-2.5839,-2.5775,-2.5817,-2.5083,-2.4492,-2.4033,-2.3289,-2.2523,-2.2284,-2.2796,-2.3308,-2.3267,-2.4004,-2.4581,-2.4673,-2.4642,-2.4961,-2.598,-2.6248,-2.6349,-1.5531,-1.5317,-1.5317,-1.5177,-1.5001,-1.4888,-1.4663,-1.4422,-1.4188,-1.4088,-1.4088,-1.4028,-1.4001,-1.4001,-1.3941,-1.3963,-1.3921,-1.3921,-1.3921,-1.3921,-1.3921,-1.3998,-1.4206,-1.4199,-1.4282,-1.4441,-1.4282,-1.4199,-1.4199,-1.3998,-1.3681,-1.322,-1.3206,-1.2812,-1.2114,0.0,0.0,0.0,-1.4129,-1.4694,-1.5317,-1.5068,-1.4786,-1.4473,-1.4722,0.0,-1.4789,-1.454,-1.4351,-1.4151,-1.4135,0.0,0.0,0.0,0.0,0.0,0.0,0.0,0.0,0.0,0.0,0.0,-1.1108,-1.1038,-1.0944,-1.1649,-1.1954,-1.1669,-1.2595,-1.3182,-1.3111,-1.419,-1.5451,-1.6832,-1.8205,-1.9565,-2.0788,-2.1455,-2.1885,-2.2236,-2.2344,-2.2519,-2.2769,-2.2857,-2.2877,-2.2935,-2.2974,-2.2974,-2.2974,-2.3294,-2.342,-2.3474,-2.3767,-2.381,-2.3767,-2.3854,-2.3973,-2.3681,-2.3637,-2.3444,-2.3394,-2.3244,-2.3027,-2.2838,-2.302,-2.3173,-2.3196,-2.3302,-2.3727,-2.4073,-2.4788,-2.5407,-2.5703,-2.5517,-2.5523,-1.5745,-1.5611,-1.5611,-1.5524,0.0,-1.5237,-1.509,-1.4923,-1.4489,-1.4222,-1.4088,-1.4088,-1.4088,-1.4088,-1.4088,-1.4088,-1.4088,-1.4088,-1.4088,-1.4088,-1.4088,-1.4088,-1.4088,-1.4088,-1.4088,-1.4088,-1.4088,-1.4088,-1.4088,-1.4088,-1.3935,-1.3647,-1.3641,-1.3414,-1.3025,-1.3113,-1.3313,-1.3537,-1.3655,-1.4036,-1.4624,-1.4871,-1.4543,-1.3685,-1.4473,0.0,0.0,0.0,0.0,0.0,0.0,0.0,0.0,-1.2131,-1.1666,-1.1158,-1.1062,-1.1015,-1.0959,-1.1358,-1.1919,-1.2652,-1.2713,-1.2437,-1.1737,-1.2328,-1.275,-1.2777,-1.3111,-1.3654,-1.4563,-1.5171,-1.6279,-1.817,-1.9131,-2.0075,-2.1339,-2.1943,-2.2266,-2.2448,-2.2652,-2.2867,-2.3062,-2.3101,-2.3101,-2.3101,-2.3101,-2.3188,-2.3389,-2.3227,-2.3101,-2.3101,-2.3101,-2.3101,-2.3101,-2.3101,-2.3198,-2.3389,-2.3467,-2.3555,-2.3686,-2.3725,-2.3676,-2.3481,-2.3467,-2.3531,-2.3884,-2.393,-2.4235,-2.5005,-2.5495,-2.5927,-2.6294,-2.6467,-2.6636,-1.5825,-1.5825,-1.5825,-1.5825,-1.5805,-1.5571,-1.5444,-1.5364,-1.483,0.0,0.0,-1.4168,-1.4142,-1.4088,-1.4088,-1.4088,-1.4088,-1.4088,-1.4115,-1.4162,-1.4115,-1.4115,-1.4162,-1.4115,-1.4088,-1.4088,-1.4088,-1.4088,-1.4088,-1.4088,-1.4088,-1.4088,-1.4088,-1.4088,-1.4088,-1.4088,-1.3765,-1.3093,-1.3048,-1.332,-1.3828,-1.4574,-1.4259,-1.2756,-1.4198,-1.4104,-1.2235,-1.2644,-1.2511,-1.1617,-1.1368,-1.1309,-1.1407,-1.1201,-1.1046,-1.0974,-1.1552,-1.1954,-1.1974,-1.2634,-1.334,-1.4041,-1.4088,-1.3715,-1.2851,-1.3125,-1.3467,-1.366,-1.3926,-1.4572,-1.5722,-1.6254,-1.7342,-1.9483,-1.9962,-2.0669,-2.1829,-2.2363,-2.2627,-2.2656,-2.292,-2.313,-2.3208,-2.3227,-2.3247,-2.3315,-2.3393,-2.3422,-2.3769,-2.3598,-2.3403,-2.3403,-2.3442,-2.3364,-2.3335,-2.3374,-2.3471,-2.3848,-2.3896,-2.4033,-2.4316,-2.4424,-2.4277,-2.3955,-2.3896,-2.4232,-2.4831,-2.4932,-2.5349,-2.6429,-2.6418,-2.6456,-2.7262,-2.796,-2.8262,-1.5825,-1.5825,-1.5825,-1.5825,-1.5825,-1.5738,-1.5625,-1.5371,-1.5089,-1.4736,-1.4456,-1.4462,-1.4322,-1.4088,-1.4088,-1.4088,-1.4088,-1.4088,-1.4222,-1.4442,-1.4202,-1.4222,-1.4392,-1.4208,-1.4088,-1.4088,-1.4088,-1.4088,-1.4088,-1.4088,-1.4088,-1.4088,-1.4088,-1.4088,-1.4088,-1.4088,-1.3558,-1.2463,-1.2546,-1.2653,-1.2732,-1.2445,-1.2342,-1.2442,-1.2666,-1.2859,-1.2946,-1.2622,-1.2338,-1.2148,-1.1249,-1.0921,-1.1396,-1.0543,-1.0571,-1.1932,-1.2159,-1.2666,-1.3642,-1.3873,-1.3948,-1.4075,-1.4088,-1.4057,-1.3903,-1.3956,-1.3988,-1.407,-1.512,-1.5978,-1.6334,-1.817,-1.9587,-2.0174,-2.1306,-2.2175,-2.2422,-2.2773,-2.2994,-2.3013,-2.3042,-2.3266,-2.3633,-2.3701,-2.3818,-2.4121,-2.415,-2.4248,-2.4287,-2.4277,-2.4238,-2.4238,-2.4238,-2.4238,-2.4141,-2.4228,-2.4219,-2.4307,-2.4326,-2.4365,-2.4456,-2.4531,-2.4473,-2.4336,-2.4336,-2.476,-2.5753,-2.5658,-2.5991,-2.7012,-2.7487,-2.7869,-2.8112,-2.8784,-2.9189,-1.5825,-1.5825,-1.5825,-1.5825,-1.5825,-1.5825,-1.5704,-1.5618,-1.5491,-1.5177,-1.4763,-1.4589,-1.4442,-1.4322,-1.4322,-1.4322,-1.4329,-1.4489,-1.4636,-1.4743,-1.4623,-1.4673,-1.4723,-1.4456,-1.4315,-1.4315,-1.4162,-1.4088,-1.4088,-1.4088,-1.4088,-1.4088,-1.4088,-1.4088,-1.4053,-1.3581,-1.3034,-1.249,-1.3038,-1.305,-1.2416,-1.2803,-1.308,-1.3308,-1.3286,-1.3386,-1.3624,-1.3393,-1.3267,-1.3273,-1.2157,-1.1653,-1.1875,-1.081,-1.0562,-1.1321,-1.1938,-1.2541,-1.3075,-1.3874,-1.4255,-1.4108,-1.4235,-1.4322,-1.4315,-1.4175,-1.4438,-1.5205,-1.593,-1.6931,-1.8245,-1.9498,-2.0506,-2.1349,-2.2086,-2.2555,-2.2779,-2.2955,-2.3188,-2.3447,-2.3496,-2.3662,-2.4082,-2.4131,-2.418,-2.4404,-2.459,-2.4756,-2.4785,-2.4971,-2.4941,-2.4541,-2.4414,-2.4414,-2.4434,-2.4424,-2.4512,-2.4717,-2.4766,-2.4873,-2.5049,-2.507,-2.4972,-2.4824,-2.4775,-2.5159,-2.6052,-2.6547,-2.7094,-2.7885,-2.8872,-2.9276,-2.9229,-2.9495,-2.9552,-1.5825,-1.5825,-1.5825,-1.5629,-1.5391,-1.5683,-1.5486,-1.5003,-1.5486,-1.5431,-1.478,-1.4703,-1.4683,-1.4623,-1.4616,-1.4623,-1.4605,-1.4582,-1.4759,-1.505,-1.472,-1.472,-1.503,-1.4756,-1.4623,-1.4589,-1.4329,-1.4188,-1.4182,-1.4122,-1.4128,-1.4175,-1.4182,-1.4215,-1.4289,-1.3517,-1.286,-1.2398,-1.333,-1.3231,-1.2029,-1.2912,-1.337,-1.3307,-1.3548,-1.3688,-1.373,-1.3955,-1.3988,-1.3736,-1.2593,-1.1851,-1.1548,-1.072,-1.0357,-1.0664,-1.1686,-1.2443,-1.2814,-1.3851,-1.4456,-1.4309,-1.4489,-1.4623,-1.4603,-1.4422,-1.4742,-1.5835,-1.6592,-1.7814,-1.9521,-2.0577,-2.1348,-2.2479,-2.2613,-2.2783,-2.3033,-2.3169,-2.3398,-2.373,-2.3867,-2.4092,-2.4443,-2.456,-2.4629,-2.4775,-2.501,-2.5195,-2.5264,-2.5537,-2.5343,-2.4923,-2.4717,-2.4766,-2.4717,-2.4699,-2.4893,-2.5185,-2.5262,-2.5352,-2.5538,-2.5654,-2.5615,-2.5293,-2.5225,-2.5617,-2.6293,-2.6933,-2.7886,-2.8846,-2.9692,-3.0115,-3.0013,-2.9841,-2.9792,-1.5791,-1.5825,-1.5798,-1.5092,-1.422,-1.5242,-1.4418,-1.277,-1.4717,-1.5127,-1.4141,-1.4915,-1.5164,-1.4988,-1.4923,-1.4968,-1.4834,-1.3742,-1.3994,-1.5074,-1.3865,-1.3936,-1.5271,-1.5064,-1.4961,-1.4934,-1.4623,-1.4476,-1.4462,-1.4235,-1.4229,-1.4456,-1.4482,-1.4603,-1.485,-1.4763,-1.3634,-1.1476,-1.2553,-1.2383,-1.1018,-1.1052,-1.1038,-1.0918,-1.1943,-1.2462,-1.2504,-1.3512,-1.3683,-1.2756,-1.1573,-1.0469,-0.9571,-0.9306,-0.9629,-1.0544,-1.1692,-1.2863,-1.4126,-1.4422,-1.4636,-1.4901,-1.4941,-1.4917,-1.4968,-1.4941,-1.4934,-1.5531,-1.7403,-1.8828,-1.9325,-2.1319,-2.2698,-2.2969,-2.3042,-2.3052,-2.3179,-2.3496,-2.375,-2.3779,-2.416,-2.4521,-2.4912,-2.501,-2.5156,-2.5382,-2.5518,-2.5586,-2.5605,-2.5606,-2.5674,-2.5547,-2.5538,-2.5508,-2.5479,-2.5547,-2.5489,-2.5625,-2.5654,-2.5625,-2.5664,-2.5684,-2.5645,-2.5605,-2.5615,-2.597,-2.6668,-2.7277,-2.7636,-2.8978,-2.9657,-2.9885,-3.0301,-3.0218,-2.9955,-1.6346,-1.6228,-1.5314,-1.4068,-1.292,-1.3301,-1.292,-1.2091,-1.3011,-1.3638,-1.3962,-1.4343,-1.4773,-1.5231,-1.5263,-1.5224,-1.5139,-1.4062,-1.4284,-1.545,-1.4178,-1.429,-1.5511,-1.5351,-1.5217,-1.5197,-1.4923,-1.4827,-1.4763,-1.4663,-1.4707,-1.477,-1.4783,-1.485,-1.497,-1.4383,-1.3147,-1.147,-1.127,-1.0522,-0.9405,-1.0292,-1.0895,-1.0789,-1.1154,-1.1396,-1.1359,-1.1778,-1.1895,-1.1501,-1.0409,-0.961,-0.9271,-0.9317,-0.9777,-1.0745,-1.2569,-1.3857,-1.4472,-1.4836,-1.5017,-1.5022,-1.5169,-1.5263,-1.5217,-1.5217,-1.5277,-1.5761,-1.7658,-1.939,-2.0323,-2.2045,-2.3198,-2.3457,-2.3525,-2.3613,-2.3832,-2.4053,-2.4238,-2.4502,-2.4687,-2.4971,-2.5352,-2.5469,-2.5547,-2.5664,-2.5684,-2.5684,-2.5684,-2.5684,-2.5684,-2.5684,-2.5684,-2.5684,-2.5684,-2.5684,-2.5684,-2.5684,-2.5684,-2.5684,-2.5684,-2.5684,-2.5684,-2.5684,-2.5684,-2.582,-2.6215,-2.7049,-2.764,-2.86,-2.9401,-2.972,-2.9997,-3.0387,-3.0538,-1.5525,-1.5331,-1.4217,-1.2816,-1.1491,-1.1775,-1.1458,-1.1023,-1.1556,-1.2285,-1.2856,-1.3584,-1.4308,-1.4958,-1.5318,-1.5518,-1.5398,-1.4374,-1.4555,-1.5534,-1.4507,-1.4603,-1.5704,-1.5625,-1.5518,-1.5464,-1.5217,-1.5082,-1.5028,-1.5015,-1.5048,-1.5109,-1.5129,-1.4981,-1.4643,-1.3894,-1.2736,-1.1178,-1.0316,-0.9298,-0.8303,-0.9422,-1.0125,-0.9985,-1.0218,-1.0316,-1.0274,-1.0518,-1.0568,-1.0436,-0.9629,-0.9095,-0.8941,-0.9601,-1.0619,-1.188,-1.3604,-1.4676,-1.4756,-1.5157,-1.5344,-1.5237,-1.5404,-1.5518,-1.5518,-1.5518,-1.5605,-1.59,-1.7619,-1.9307,-2.0309,-2.1841,-2.2952,-2.3379,-2.3673,-2.4102,-2.4355,-2.4492,-2.4707,-2.5067,-2.5146,-2.5361,-2.5596,-2.5664,-2.5674,-2.5674,-2.5684,-2.5684,-2.5684,-2.5684,-2.5684,-2.5684,-2.5684,-2.5684,-2.5684,-2.5684,-2.5684,-2.5684,-2.5684,-2.5684,-2.5684,-2.5684,-2.5684,-2.5684,-2.5684,-2.5732,-2.5917,-2.6628,-2.7243,-2.7359,-2.8199,-2.9488,-2.9922,-3.0511,-3.0803,-1.2607,-1.2582,-1.2365,-1.1513,-1.0335,-1.1344,-1.0435,-0.8577,-1.0774,-1.1268,-1.0774,-1.2813,-1.3914,-1.4088,-1.5244,-1.5798,-1.5609,-1.4447,-1.4555,-1.5581,-1.4507,-1.4561,-1.5778,-1.5812,-1.5758,-1.5704,-1.5318,-1.5205,-1.5062,-1.5042,-1.5149,-1.5364,-1.5378,-1.4939,-1.4112,-1.3909,-1.2598,-1.0409,-1.0038,-0.9357,-0.817,-0.8159,-0.8153,-0.8038,-0.8673,-0.9245,-0.9397,-1.0274,-1.0359,-0.9577,-0.9434,-0.8973,-0.8227,-1.0113,-1.2308,-1.4379,-1.4847,-1.5102,-1.5284,-1.5384,-1.5504,-1.5671,-1.5704,-1.5751,-1.5765,-1.5765,-1.5785,-1.5825,-1.7151,-1.8168,-1.8696,-2.0864,-2.2345,-2.2804,-2.3718,-2.4322,-2.4463,-2.4853,-2.501,-2.5146,-2.543,-2.5596,-2.5674,-2.5684,-2.5684,-2.5684,-2.5684,-2.5684,-2.5684,-2.5684,-2.5684,-2.5684,-2.5684,-2.5684,-2.5684,-2.5684,-2.5684,-2.5684,-2.5684,-2.5684,-2.5684,-2.5684,-2.5684,-2.5684,-2.5684,-2.5684,-2.5732,-2.6014,-2.6466,-2.704,-2.8028,-2.9046,-2.9782,-2.9792,-3.0361,-1.236,-1.144,-1.1292,-1.0378,-0.9052,-0.9287,-0.8871,-0.8134,-0.8973,-0.9653,-1.0243,-1.1891,-1.3102,-1.3968,-1.5242,-1.5825,-1.5683,-1.4459,-1.4561,-1.5534,-1.4507,-1.4561,-1.5629,-1.5003,-1.5051,-1.5615,-1.4896,-1.4801,-1.5485,-1.5518,-1.5565,-1.5604,-1.5671,-1.505,-1.4106,-1.3878,-1.2619,-1.0293,-1.0002,-0.9365,-0.8137,-0.7988,-0.7931,-0.7885,-0.8104,-0.8233,-0.82,-0.8556,-0.8629,-0.8423,-0.8431,-0.824,-0.8175,-1.0201,-1.2651,-1.4878,-1.5237,-1.5284,-1.5404,-1.5531,-1.5712,-1.5758,-1.5825,-1.5825,-1.5825,-1.5825,-1.5825,-1.5974,-1.6429,-1.7279,-1.8715,-2.0769,-2.2747,-2.3956,-2.4542,-2.4941,-2.5215,-2.541,-2.5488,-2.5518,-2.5654,-2.5674,-2.5684,-2.5684,-2.5684,-2.5684,-2.5684,-2.5684,-2.5684,-2.5684,-2.5684,-2.5684,-2.5684,-2.5684,-2.5684,-2.5684,-2.5684,-2.5684,-2.5684,-2.5684,-2.5684,-2.5684,-2.5684,-2.5684,-2.5684,-2.5684,-2.5732,-2.5732,-2.6149,-2.6436,-2.7492,-2.8764,-2.9635,-2.9977,-3.0894,-1.1246,-1.0311,-1.0136,-0.9395,-0.8378,-0.818,-0.8035,-0.7995,-0.7988,-0.8726,-1.0096,-1.1365,-1.2619,-1.3974,-1.5248,-1.5825,-1.573,-1.4895,-1.4997,-1.5635,-1.4507,-1.4364,-1.4848,-1.3878,-1.3686,-1.4322,-1.3686,-1.374,-1.4519,-1.4997,-1.4949,-1.4513,-1.4949,-1.4316,-1.2952,-1.2619,-1.1502,-0.9706,-0.9365,-0.8874,-0.8088,-0.7988,-0.7988,-0.7975,-0.7891,-0.7845,-0.774,-0.7695,-0.7736,-0.7858,-0.7882,-0.8269,-0.9284,-1.0734,-1.2805,-1.5105,-1.5538,-1.5538,-1.5551,-1.5671,-1.5778,-1.5825,-1.5825,-1.5825,-1.5825,-1.5825,-1.5865,-1.5999,-1.6239,-1.7155,-1.9264,-2.1151,-2.2852,-2.4372,-2.5025,-2.54,-2.5635,-2.5674,-2.5674,-2.5654,-2.5664,-2.5684,-2.5684,-2.5684,-2.5684,-2.5684,-2.5684,-2.5684,-2.5684,-2.5684,-2.5684,-2.5684,-2.5684,-2.5684,-2.5684,-2.5684,-2.5684,-2.5684,-2.5684,-2.5684,-2.5684,-2.5684,-2.5684,-2.5684,-2.5684,-2.5684,-2.5684,-2.5684,-2.5781,-2.582,-2.6931,-2.8375,-2.9329,-3.0326,-3.0782,-0.8989,-0.9013,-0.8771,-0.8721,-0.8472,-0.8316,-0.8177,-0.8022,-0.7992,-0.8676,-0.9854,-1.1214,-1.2431,-1.383,-1.4997,-1.573,-1.5778,-1.5629,-1.5676,-1.5676,-1.4459,-1.3926,-1.3974,-1.2571,-1.1945,-1.2091,-1.1994,-1.1994,-1.2285,-1.3301,-1.3295,-1.2479,-1.3349,-1.2716,-1.0141,-1.0342,-0.9558,-0.8428,-0.8184,-0.8088,-0.7988,-0.7988,-0.7988,-0.7988,-0.7978,-0.7965,-0.7965,-0.7885,-0.7879,-0.7951,-0.7975,-0.9209,-1.1161,-1.1823,-1.3043,-1.5257,-1.5812,-1.5764,-1.5805,-1.5764,-1.5825,-1.5825,-1.5825,-1.5825,-1.5825,-1.5832,-1.5939,-1.6206,-1.6585,-1.7818,-2.0382,-2.1445,-2.2414,-2.3624,-2.5003,-2.5635,-2.5664,-2.5684,-2.5684,-2.5684,-2.5684,-2.5684,-2.5684,-2.5684,-2.5684,-2.5684,-2.5684,-2.5684,-2.5684,-2.5684,-2.5684,-2.5684,-2.5684,-2.5684,-2.5684,-2.5684,-2.5684,-2.5684,-2.5684,-2.5684,-2.5684,-2.5684,-2.5684,-2.5684,-2.5684,-2.5684,-2.5684,-2.5684,-2.5684,-2.5965,-2.7078,-2.7861,-2.8598,-2.9326,-2.9681,-0.8937,-0.8865,-0.8774,-0.8686,-0.8604,-0.8377,-0.8238,-0.8187,-0.8089,-0.8237,-0.8821,-0.9998,-1.1312,-1.2624,-1.3878,-1.4997,-1.5778,-1.5825,-1.5825,-1.5581,-1.4459,-1.383,-1.344,-1.1599,-1.0583,-1.073,-1.1512,-1.1896,-1.1896,-1.2334,-1.2237,-1.2091,-1.2285,-1.1653,-1.0043,-0.9953,-0.9316,-0.8187,-0.7988,-0.7988,-0.7988,-0.7988,-0.7988,-0.7988,-0.7988,-0.7988,-0.7985,-0.7991,-0.7941,-0.7988,-0.7988,-0.9164,-1.1312,-1.1896,-1.3156,-1.5391,-1.5825,-1.5825,-1.5825,-1.5825,-1.5825,-1.5825,-1.5825,-1.5825,-1.5825,-1.5838,-1.5972,-1.6253,-1.6583,-1.7946,-2.048,-2.1486,-2.26,-2.4805,-2.544,-2.5684,-2.5684,-2.5684,-2.5684,-2.5684,-2.5684,-2.5684,-2.5684,-2.5684,-2.5684,-2.5684,-2.5684,-2.5684,-2.5684,-2.5684,-2.5684,-2.5684,-2.5684,-2.5684,-2.5684,-2.5684,-2.5684,-2.5684,-2.5684,-2.5684,-2.5684,-2.5684,-2.5684,-2.5684,-2.5684,-2.5684,-2.5684,-2.5684,-2.5684,-2.6014,-2.6897,-2.7363,-2.7683,-2.8179,-2.8762,-0.8937,-0.8871,-0.8835,-0.8757,-0.8696,-0.8503,-0.837,-0.8269,-0.817,-0.8339,-0.8886,-0.9608,-1.0685,-1.1994,-1.3295,-1.4316,-1.5099,-1.554,-1.5825,-1.5486,-1.3878,-1.3199,-1.2813,-1.0485,-0.9266,-0.9361,-1.0043,-1.0435,-1.0485,-1.0925,-1.0921,-1.0534,-1.0925,-1.0534,-0.9361,-0.9217,-0.8772,-0.8088,-0.7988,-0.7988,-0.7988,-0.7988,-0.7988,-0.7988,-0.7988,-0.7988,-0.7988,-0.7988,-0.7988,-0.7988,-0.7988,-0.9266,-1.1604,-1.1945,-1.306,-1.5194,-1.5825,-1.5825,-1.5825,-1.5825,-1.5825,-1.5825,-1.5825,-1.5825,-1.5845,-1.5899,-1.6126,-1.6406,-1.6707,-1.7923,-2.0128,-2.1293,-2.2709,-2.4658,-2.5382,-2.5635,-2.5684,-2.5684,-2.5684,-2.5684,-2.5684,-2.5684,-2.5684,-2.5684,-2.5684,-2.5684,-2.5684,-2.5684,-2.5684,-2.5684,-2.5684,-2.5684,-2.5684,-2.5684,-2.5684,-2.5684,-2.5684,-2.5684,-2.5684,-2.5684,-2.5684,-2.5684,-2.5684,-2.5684,-2.5684,-2.5684,-2.5684,-2.5684,-2.5732,-2.6294,-2.662,-2.6945,-2.7258,-2.7814,-2.8226,-0.8937,-0.8937,-0.8881,-0.8797,-0.874,-0.8696,-0.8547,-0.8333,-0.8337,-0.8813,-0.9585,-0.9739,-1.0538,-1.1834,-1.2856,-1.3579,-1.413,-1.5111,-1.5701,-1.5083,-1.3431,-1.2083,-1.1463,-0.9361,-0.8287,-0.8187,-0.8283,-0.8233,-0.8531,-0.9414,-0.9262,-0.8528,-0.9365,-0.9316,-0.8382,-0.8041,-0.8137,-0.8038,-0.7988,-0.7988,-0.7988,-0.7988,-0.7988,-0.7988,-0.7988,-0.7988,-0.7988,-0.7988,-0.7988,-0.7988,-0.7988,-0.9164,-1.1312,-1.1896,-1.306,-1.5534,-1.5825,-1.5825,-1.5825,-1.5825,-1.5825,-1.5825,-1.5825,-1.5845,-1.5912,-1.6099,-1.6366,-1.6693,-1.6961,-1.7942,-1.9706,-2.0923,-2.2408,-2.3732,-2.5069,-2.5635,-2.5684,-2.5684,-2.5684,-2.5684,-2.5684,-2.5684,-2.5684,-2.5684,-2.5684,-2.5684,-2.5684,-2.5684,-2.5684,-2.5684,-2.5684,-2.5684,-2.5684,-2.5684,-2.5684,-2.5684,-2.5684,-2.5684,-2.5684,-2.5684,-2.5684,-2.5684,-2.5684,-2.5684,-2.5684,-2.5684,-2.5684,-2.5684,-2.5684,-2.5917,-2.6245,-2.6514,-2.6839,-2.7258,-2.7352,-0.8937,-0.8937,-0.8937,-0.8858,-0.8807,-0.8764,-0.8669,-0.8581,-0.8472,-0.8654,-0.8925,-0.8873,-0.9552,-1.0615,-1.113,-1.2204,-1.361,-1.4524,-1.5303,-1.5373,-1.3406,-1.1589,-1.0408,-0.8874,-0.7995,-0.7995,-0.7995,-0.7988,-0.8038,-0.8432,-0.8386,-0.8038,-0.8382,-0.8432,-0.8038,-0.7988,-0.7988,-0.7988,-0.7988,-0.7988,-0.7988,-0.7988,-0.7988,-0.7988,-0.7988,-0.7988,-0.7988,-0.7988,-0.7988,-0.7988,-0.7988,-0.9213,-1.156,-1.1945,-1.306,-1.5289,-1.5825,-1.5825,-1.5825,-1.5825,-1.5825,-1.5825,-1.5825,-1.5878,-1.6146,-1.6226,-1.6576,-1.6945,-1.7224,-1.8278,-2.0503,-2.1499,-2.2767,-2.4716,-2.5479,-2.5684,-2.5684,-2.5684,-2.5684,-2.5684,-2.5684,-2.5684,-2.5684,-2.5684,-2.5684,-2.5684,-2.5684,-2.5684,-2.5684,-2.5684,-2.5684,-2.5684,-2.5684,-2.5684,-2.5684,-2.5684,-2.5684,-2.5684,-2.5684,-2.5684,-2.5684,-2.5684,-2.5684,-2.5684,-2.5684,-2.5684,-2.5684,-2.5684,-2.5684,-2.5684,-2.582,-2.61,-2.6004,-2.6245,-2.6332,-0.8937,-0.8937,-0.8937,-0.8937,-0.8871,-0.8842,-0.8771,-0.8703,-0.8621,-0.8537,-0.8492,-0.8535,-0.8845,-0.9484,-1.0131,-1.109,-1.2423,-1.3297,-1.3914,-1.3949,-1.236,-1.0736,-0.9415,-0.8384,-0.8136,-0.8126,-0.8022,-0.7992,-0.7988,-0.7988,-0.7988,-0.7988,-0.7988,-0.7988,-0.7988,-0.7988,-0.7988,-0.7988,-0.7988,-0.7988,-0.7988,-0.7988,-0.7988,-0.7988,-0.7988,-0.7988,-0.7988,-0.7988,-0.7988,-0.7988,-0.8088,-0.9164,-1.1556,-1.1896,-1.3108,-1.5534,-1.5825,-1.5825,-1.5825,-1.5825,-1.5825,-1.5825,-1.5825,-1.5979,-1.6219,-1.6373,-1.673,-1.7105,-1.7286,-1.8515,-2.0425,-2.1803,-2.3434,-2.5177,-2.5684,-2.5684,-2.5684,-2.5684,-2.5684,-2.5684,-2.5684,-2.5684,-2.5684,-2.5684,-2.5684,-2.5684,-2.5684,-2.5684,-2.5684,-2.5684,-2.5684,-2.5684,-2.5684,-2.5684,-2.5684,-2.5684,-2.5684,-2.5684,-2.5684,-2.5684,-2.5684,-2.5684,-2.5684,-2.5684,-2.5684,-2.5684,-2.5684,-2.5684,-2.5684,-2.5684,-2.5684,-2.5684,-2.5684,-2.5684,-2.5684,-0.8937,-0.8937,-0.8937,-0.8937,-0.8937,-0.8878,-0.8804,-0.8754,-0.8737,-0.8665,-0.8577,-0.854,-0.8652,-0.8615,-0.9655,-1.0333,-1.0582,-1.186,-1.2208,-1.2061,-1.1135,-0.988,-0.8708,-0.8453,-0.8292,-0.8275,-0.8096,-0.8052,-0.8049,-0.8029,-0.8005,-0.7995,-0.7988,-0.7988,-0.7988,-0.7988,-0.7988,-0.7988,-0.7988,-0.7988,-0.7988,-0.7988,-0.7988,-0.7988,-0.7988,-0.7988,-0.7988,-0.7988,-0.7988,-0.7988,-0.7988,-0.9262,-1.1312,-1.1702,-1.306,-1.5003,-1.5635,-1.5825,-1.5825,-1.5825,-1.5825,-1.5832,-1.5865,-1.6005,-1.6319,-1.6593,-1.6945,-1.7273,-1.7592,-1.8814,-2.0531,-2.2525,-2.4205,-2.5479,-2.5684,-2.5684,-2.5684,-2.5684,-2.5684,-2.5684,-2.5684,-2.5684,-2.5684,-2.5684,-2.5684,-2.5684,-2.5684,-2.5684,-2.5684,-2.5684,-2.5684,-2.5684,-2.5684,-2.5684,-2.5684,-2.5684,-2.5684,-2.5684,-2.5684,-2.5684,-2.5684,-2.5684,-2.5684,-2.5684,-2.5684,-2.5684,-2.5684,-2.5684,-2.5684,-2.5684,-2.5684,-2.5684,-2.5684,-2.5684,-2.5684,-0.8937,-0.8937,-0.8937,-0.8937,-0.8937,-0.8881,-0.8865,-0.8831,-0.8828,-0.8797,-0.8784,-0.8832,-0.8764,-0.8669,-0.9125,-0.962,-1.033,-1.1026,-1.1344,-1.1138,-1.0877,-0.9865,-0.8796,-0.8506,-0.8442,-0.8425,-0.8408,-0.8326,-0.8248,-0.8201,-0.8157,-0.8008,-0.7995,-0.7988,-0.7988,-0.7988,-0.7988,-0.7988,-0.7988,-0.7988,-0.7988,-0.7988,-0.7988,-0.7988,-0.7988,-0.7988,-0.7988,-0.7988,-0.7988,-0.7988,-0.8088,-0.8825,-1.0342,-1.1414,-1.2721,-1.4172,-1.5337,-1.5825,-1.5825,-1.5825,-1.5825,-1.5845,-1.6032,-1.6306,-1.6587,-1.686,-1.7213,-1.7624,-1.8523,-2.0033,-2.2265,-2.4205,-2.5177,-2.5577,-2.5684,-2.5684,-2.5684,-2.5684,-2.5684,-2.5684,-2.5684,-2.5684,-2.5684,-2.5684,-2.5684,-2.5684,-2.5684,-2.5684,-2.5684,-2.5684,-2.5684,-2.5684,-2.5684,-2.5684,-2.5684,-2.5684,-2.5684,-2.5684,-2.5684,-2.5684,-2.5684,-2.5684,-2.5684,-2.5684,-2.5684,-2.5684,-2.5684,-2.5684,-2.5684,-2.5684,-2.5684,-2.5684,-2.5684,-2.5684,-2.5684,-0.8937,-0.8937,-0.8937,-0.8937,-0.8937,-0.8937,-0.8937,-0.8937,-0.8937,-0.8937,-0.8937,-0.8937,-0.8834,-0.8825,-0.8893,-0.9261,-0.9611,-0.9922,-1.003,-0.9954,-0.9837,-0.9461,-0.9026,-0.8733,-0.8669,-0.8598,-0.8506,-0.8487,-0.8426,-0.8354,-0.8225,-0.8143,-0.8029,-0.7992,-0.7988,-0.7988,-0.7988,-0.7988,-0.7988,-0.7988,-0.7988,-0.7988,-0.7988,-0.7988,-0.7988,-0.7988,-0.7988,-0.7988,-0.7988,-0.7988,-0.8038,-0.8581,-0.9899,-1.117,-1.2479,-1.383,-1.5092,-1.573,-1.5825,-1.5825,-1.5825,-1.5784,-1.6099,-1.6393,-1.6687,-1.7025,-1.732,-1.7803,-1.8909,-2.07,-2.3384,-2.4864,-2.5577,-2.5684,-2.5684,-2.5684,-2.5684,-2.5684,-2.5684,-2.5684,-2.5684,-2.5684,-2.5684,-2.5684,-2.5684,-2.5684,-2.5684,-2.5684,-2.5684,-2.5684,-2.5684,-2.5684,-2.5684,-2.5684,-2.5684,-2.5684,-2.5684,-2.5684,-2.5684,-2.5684,-2.5684,-2.5684,-2.5684,-2.5684,-2.5684,-2.5684,-2.5684,-2.5684,-2.5684,-2.5684,-2.5684,-2.5684,-2.5684,-2.5684,-2.5684,-0.8937,-0.8937,-0.8937,-0.8937,-0.8937,-0.8937,-0.8937,-0.8937,-0.8937,-0.8937,-0.8937,-0.8937,-0.8875,-0.8878,-0.8875,-0.8937,-0.8927,-0.8978,-0.9137,-0.9133,-0.9127,-0.902,-0.8906,-0.8834,-0.8787,-0.8733,-0.8648,-0.857,-0.8496,-0.8432,-0.8354,-0.8248,-0.8113,-0.7995,-0.7988,-0.7988,-0.7988,-0.7988,-0.7988,-0.7988,-0.7988,-0.7988,-0.7988,-0.7988,-0.7988,-0.7988,-0.7988,-0.7988,-0.7988,-0.7988,-0.7988,-0.8627,-0.9657,-1.117,-1.2334,-1.359,-1.4902,-1.573,-1.5825,-1.5825,-1.5832,-1.5798,-1.6172,-1.6433,-1.6707,-1.7085,-1.7387,-1.8043,-1.9169,-2.1261,-2.3692,-2.502,-2.5635,-2.5684,-2.5684,-2.5684,-2.5684,-2.5684,-2.5684,-2.5684,-2.5684,-2.5684,-2.5684,-2.5684,-2.5684,-2.5684,-2.5684,-2.5684,-2.5684,-2.5684,-2.5684,-2.5684,-2.5684,-2.5684,-2.5684,-2.5684,-2.5684,-2.5684,-2.5684,-2.5684,-2.5684,-2.5684,-2.5684,-2.5684,-2.5684,-2.5684,-2.5684,-2.5684,-2.5684,-2.5684,-2.5684,-2.5684,-2.5684,-2.5684,-2.5684,-0.8937,-0.8937,-0.8937,-0.8937,-0.8937,-0.8937,-0.8937,-0.8937,-0.8937,-0.8937,-0.8937,-0.8937,-0.8937,-0.8937,-0.8937,-0.8937,-0.8937,-0.8937,-0.8937,-0.8937,-0.8937,-0.8937,-0.8937,-0.8937,-0.8861,-0.8854,-0.8842,-0.8771,-0.8659,-0.8526,-0.8453,-0.8272,-0.813,-0.8008,-0.7992,-0.7988,-0.7988,-0.7988,-0.7988,-0.7988,-0.7988,-0.7988,-0.7988,-0.7988,-0.7988,-0.7988,-0.7988,-0.7988,-0.7988,-0.7988,-0.7988,-0.8137,-0.8825,-1.0578,-1.1848,-1.277,-1.4609,-1.5825,-1.5825,-1.5825,-1.5825,-1.5945,-1.6299,-1.658,-1.6807,-1.7213,-1.7657,-1.845,-2.0076,-2.2366,-2.503,-2.5538,-2.5635,-2.5684,-2.5684,-2.5684,-2.5684,-2.5684,-2.5684,-2.5684,-2.5684,-2.5684,-2.5684,-2.5684,-2.5684,-2.5684,-2.5684,-2.5684,-2.5684,-2.5684,-2.5684,-2.5684,-2.5684,-2.5684,-2.5684,-2.5684,-2.5684,-2.5684,-2.5684,-2.5684,-2.5684,-2.5684,-2.5684,-2.5684,-2.5684,-2.5684,-2.5684,-2.5684,-2.5684,-2.5684,-2.5684,-2.5684,-2.5684,-2.5684,-2.5684,-0.8937,-0.8937,-0.8937,-0.8937,-0.8937,-0.8937,-0.8937,-0.8937,-0.8937,-0.8937,-0.8937,-0.8937,-0.8937,-0.8937,-0.8937,-0.8937,-0.8937,-0.8937,-0.8937,-0.8937,-0.8937,-0.8937,-0.8937,-0.8937,-0.8937,-0.8878,-0.8875,-0.8851,-0.8821,-0.8676,-0.8523,-0.8432,-0.8231,-0.8123,-0.8005,-0.7988,-0.7992,-0.7992,-0.7988,-0.7988,-0.7988,-0.7988,-0.7988,-0.7988,-0.7988,-0.7988,-0.7988,-0.7988,-0.7988,-0.7988,-0.7988,-0.7988,-0.8577,-0.9702,-1.1268,-1.2193,-1.4322,-1.5778,-1.5778,-1.5825,-1.5825,-1.5844,-1.6373,-1.6667,-1.6847,-1.7291,-1.8269,-1.9672,-2.0479,-2.2767,-2.5323,-2.5635,-2.5684,-2.5684,-2.5684,-2.5684,-2.5684,-2.5684,-2.5684,-2.5684,-2.5684,-2.5684,-2.5684,-2.5684,-2.5684,-2.5684,-2.5684,-2.5684,-2.5684,-2.5684,-2.5684,-2.5684,-2.5684,-2.5684,-2.5684,-2.5684,-2.5684,-2.5684,-2.5684,-2.5684,-2.5684,-2.5684,-2.5684,-2.5684,-2.5684,-2.5684,-2.5684,-2.5684,-2.5684,-2.5684,-2.5684,-2.5684,-2.5684,-2.5684,-2.5684,-0.8937,-0.8937,-0.8937,-0.8937,-0.8937,-0.8937,-0.8937,-0.8937,-0.8937,-0.8937,-0.8937,-0.8937,-0.8937,-0.8937,-0.8937,-0.8937,-0.8937,-0.8937,-0.8937,-0.8937,-0.8937,-0.8937,-0.8937,-0.8937,-0.8937,-0.8937,-0.8937,-0.8937,-0.8838,-0.8764,-0.8645,-0.8523,-0.8436,-0.8238,-0.813,-0.8113,-0.8029,-0.7992,-0.7988,-0.7988,-0.7988,-0.7988,-0.7988,-0.7988,-0.7988,-0.7988,-0.7988,-0.7988,-0.7988,-0.7988,-0.7988,-0.7988,-0.8283,-0.9509,-1.0828,-1.2096,-1.4178,-1.5248,-1.5778,-1.5825,-1.5825,-1.5804,-1.638,-1.6726,-1.7481,-1.8389,-1.9568,-2.1499,-2.2206,-2.3126,-2.5274,-2.5684,-2.5684,-2.5684,-2.5684,-2.5684,-2.5684,-2.5684,-2.5684,-2.5684,-2.5684,-2.5684,-2.5684,-2.5684,-2.5684,-2.5684,-2.5684,-2.5684,-2.5684,-2.5684,-2.5684,-2.5684,-2.5684,-2.5684,-2.5684,-2.5684,-2.5684,-2.5684,-2.5684,-2.5684,-2.5684,-2.5684,-2.5684,-2.5684,-2.5684,-2.5684,-2.5684,-2.5684,-2.5684,-2.5684,-2.5684,-2.5684,-2.5684,-2.5684,-2.5684,-0.8937,-0.8937,-0.8937,-0.8937,-0.8937,-0.8937,-0.8937,-0.8937,-0.8937,-0.8937,-0.8937,-0.8937,-0.8937,-0.8937,-0.8937,-0.8937,-0.8937,-0.8937,-0.8937,-0.8937,-0.8937,-0.8937,-0.8937,-0.8937,-0.8937,-0.8937,-0.8937,-0.8937,-0.8854,-0.874,-0.871,-0.8642,-0.8523,-0.8377,-0.8228,-0.8208,-0.8174,-0.8015,-0.7988,-0.7988,-0.7988,-0.7988,-0.7988,-0.7988,-0.7988,-0.7988,-0.7988,-0.7988,-0.7988,-0.7988,-0.7988,-0.7988,-0.8382,-1.0382,-1.1463,-1.2237,-1.3295,-1.4609,-1.5534,-1.5825,-1.5825,-1.5925,-1.6373,-1.7259,-1.8354,-1.9888,-2.1397,-2.3176,-2.3375,-2.3989,-2.5274,-2.5684,-2.5684,-2.5684,-2.5684,-2.5684,-2.5684,-2.5684,-2.5684,-2.5684,-2.5684,-2.5684,-2.5684,-2.5684,-2.5684,-2.5684,-2.5684,-2.5684,-2.5684,-2.5684,-2.5684,-2.5684,-2.5684,-2.5684,-2.5684,-2.5684,-2.5684,-2.5684,-2.5684,-2.5684,-2.5684,-2.5684,-2.5684,-2.5684,-2.5684,-2.5684,-2.5684,-2.5684,-2.5684,-2.5684,-2.5684,-2.5684,-2.5684,-2.5684,-2.5684,-0.8937,-0.8937,-0.8937,-0.8937,-0.8937,-0.8937,-0.8937,-0.8937,-0.8937,-0.8937,-0.8937,-0.8937,-0.8937,-0.8937,-0.8937,-0.8937,-0.8937,-0.8937,-0.8937,-0.8937,-0.8937,-0.8937,-0.8937,-0.8937,-0.8937,-0.8937,-0.8937,-0.8937,-0.8854,-0.8817,-0.8808,-0.871,-0.8635,-0.8482,-0.8313,-0.8327,-0.8177,-0.8082,-0.7988,-0.7988,-0.7988,-0.7988,-0.7988,-0.7988,-0.7988,-0.7988,-0.7988,-0.7988,-0.7988,-0.7988,-0.7988,-0.7988,-0.8137,-0.9164,-1.0141,-1.1945,-1.2382,-1.374,-1.5391,-1.573,-1.5832,-1.5972,-1.6471,-1.7424,-1.9084,-2.0825,-2.2366,-2.3534,-2.3692,-2.4353,-2.5372,-2.5684,-2.5684,-2.5684,-2.5684,-2.5684,-2.5684,-2.5684,-2.5684,-2.5684,-2.5684,-2.5684,-2.5684,-2.5684,-2.5684,-2.5684,-2.5684,-2.5684,-2.5684,-2.5684,-2.5684,-2.5684,-2.5684,-2.5684,-2.5684,-2.5684,-2.5684,-2.5684,-2.5684,-2.5684,-2.5684,-2.5684,-2.5684,-2.5684,-2.5684,-2.5684,-2.5684,-2.5684,-2.5684,-2.5684,-2.5684,-2.5684,-2.5684,-2.5684,-2.5684,-0.8937,-0.8937,-0.8937,-0.8937,-0.8937,-0.8937,-0.8937,-0.8937,-0.8937,-0.8937,-0.8937,-0.8937,-0.8937,-0.8937,-0.8937,-0.8937,-0.8937,-0.8937,-0.8937,-0.8937,-0.8937,-0.8937,-0.8937,-0.8937,-0.8937,-0.8937,-0.8937,-0.8937,-0.8937,-0.892,-0.8866,-0.8767,-0.8774,-0.8601,-0.8404,-0.8323,-0.8252,-0.8005,-0.7988,-0.7988,-0.7988,-0.7988,-0.7988,-0.7988,-0.7988,-0.7988,-0.7988,-0.7988,-0.7988,-0.7988,-0.7988,-0.8137,-0.863,-0.946,-1.0627,-1.2285,-1.3108,-1.4076,-1.5296,-1.5832,-1.5818,-1.6278,-1.7372,-1.8872,-2.0076,-2.1558,-2.2976,-2.4295,-2.4353,-2.4864,-2.5372,-2.5684,-2.5684,-2.5684,-2.5684,-2.5684,-2.5684,-2.5684,-2.5684,-2.5684,-2.5684,-2.5684,-2.5684,-2.5684,-2.5684,-2.5684,-2.5684,-2.5684,-2.5684,-2.5684,-2.5684,-2.5684,-2.5684,-2.5684,-2.5684,-2.5684,-2.5684,-2.5684,-2.5684,-2.5684,-2.5684,-2.5684,-2.5684,-2.5684,-2.5684,-2.5684,-2.5684,-2.5684,-2.5684,-2.5684,-2.5684,-2.5684,-2.5684,-2.5684,-2.5684,-0.8937,-0.8937,-0.8937,-0.8937,-0.8937,-0.8937,-0.8937,-0.8937,-0.8937,-0.8937,-0.8937,-0.8937,-0.8937,-0.8937,-0.8937,-0.8937,-0.8937,-0.8937,-0.8937,-0.8937,-0.8937,-0.8937,-0.8937,-0.8937,-0.8937,-0.8937,-0.8937,-0.8937,-0.8937,-0.8937,-0.8875,-0.8865,-0.8828,-0.8716,-0.8523,-0.8374,-0.8252,-0.8032,-0.7988,-0.7988,-0.7988,-0.7988,-0.7988,-0.7988,-0.7988,-0.7988,-0.7988,-0.7988,-0.8184,-0.8184,-0.8283,-0.8871,-0.9752,-1.0534,-1.1848,-1.3102,-1.4172,-1.4902,-1.5635,-1.5845,-1.5992,-1.7016,-1.8641,-2.0478,-2.1188,-2.385,-2.5226,-2.5274,-2.5167,-2.5323,-2.5635,-2.5684,-2.5684,-2.5684,-2.5684,-2.5684,-2.5684,-2.5684,-2.5684,-2.5684,-2.5684,-2.5684,-2.5684,-2.5684,-2.5684,-2.5684,-2.5684,-2.5684,-2.5684,-2.5684,-2.5684,-2.5684,-2.5684,-2.5684,-2.5684,-2.5684,-2.5684,-2.5684,-2.5684,-2.5684,-2.5684,-2.5684,-2.5684,-2.5684,-2.5684,-2.5684,-2.5684,-2.5684,-2.5684,-2.5684,-2.5684,-2.5684,-2.5684,-2.5684,-2.5684,-0.8937,-0.8937,-0.8937,-0.8937,-0.8937,-0.8937,-0.8937,-0.8937,-0.8937,-0.8937,-0.8937,-0.8937,-0.8937,-0.8937,-0.8937,-0.8937,-0.8937,-0.8937,-0.8937,-0.8937,-0.8937,-0.8937,-0.8937,-0.8937,-0.8937,-0.8937,-0.8937,-0.8937,-0.8937,-0.8937,-0.8937,-0.8881,-0.8937,-0.8743,-0.855,-0.834,-0.8163,-0.8099,-0.8038,-0.7988,-0.7988,-0.7988,-0.7988,-0.7988,-0.7988,-0.7988,-0.7988,-0.7988,-0.8482,-0.9019,-0.9164,-1.0002,-1.0944,-1.177,-1.27,-1.3823,-1.4712,-1.5198,-1.5783,-1.5892,-1.6039,-1.6987,-1.9102,-2.1228,-2.1887,-2.4196,-2.543,-2.5684,-2.5684,-2.5684,-2.5684,-2.5684,-2.5684,-2.5684,-2.5684,-2.5684,-2.5684,-2.5684,-2.5684,-2.5684,-2.5684,-2.5684,-2.5684,-2.5684,-2.5684,-2.5684,-2.5684,-2.5684,-2.5684,-2.5684,-2.5684,-2.5684,-2.5684,-2.5684,-2.5684,-2.5684,-2.5684,-2.5684,-2.5684,-2.5684,-2.5684,-2.5684,-2.5684,-2.5684,-2.5684,-2.5684,-2.5684,-2.5684,-2.5684,-2.5684,-2.5684,-2.5684,-2.5684,-2.5684,-2.5684,-0.8937,-0.8937,-0.8937,-0.8937,-0.8937,-0.8937,-0.8937,-0.8937,-0.8937,-0.8937,-0.8937,-0.8937,-0.8937,-0.8937,-0.8937,-0.8937,-0.8937,-0.8937,-0.8937,-0.8937,-0.8937,-0.8937,-0.8937,-0.8937,-0.8937,-0.8937,-0.8937,-0.8937,-0.8937,-0.8937,-0.8937,-0.8937,-0.8923,-0.8774,-0.8564,-0.8272,-0.8089,-0.8048,-0.8432,-0.8581,-0.8627,-0.9118,-0.9312,-0.9361,-0.941,-0.946,-0.9509,-0.9608,-0.9846,-1.0288,-1.0685,-1.1296,-1.2114,-1.2829,-1.3399,-1.4169,-1.4789,-1.5183,-1.5789,-1.6139,-1.6515,-1.774,-1.9685,-2.1329,-2.2611,-2.4353,-2.5577,-2.5684,-2.5684,-2.5684,-2.5684,-2.5684,-2.5684,-2.5684,-2.5684,-2.5684,-2.5684,-2.5684,-2.5684,-2.5684,-2.5684,-2.5684,-2.5684,-2.5684,-2.5684,-2.5684,-2.5684,-2.5684,-2.5684,-2.5684,-2.5684,-2.5684,-2.5684,-2.5684,-2.5684,-2.5684,-2.5684,-2.5684,-2.5684,-2.5684,-2.5684,-2.5684,-2.5684,-2.5684,-2.5684,-2.5684,-2.5684,-2.5684,-2.5684,-2.5684,-2.5684,-2.5684,-2.5684,-2.5684,-2.5684,-0.8937,-0.8937,-0.8937,-0.8937,-0.8937,-0.8937,-0.8937,-0.8937,-0.8937,-0.8937,-0.8937,-0.8937,-0.8937,-0.8937,-0.8937,-0.8937,-0.8937,-0.8937,-0.8937,-0.8937,-0.8937,-0.8937,-0.8937,-0.8937,-0.8937,-0.8937,-0.8937,-0.8937,-0.8937,-0.8937,-0.8937,-0.8937,-0.8871,-0.8784,-0.8682,-0.846,-0.8245,-0.8258,-0.9365,-0.985,-1.0145,-1.0828,-1.1116,-1.1165,-1.1116,-1.1072,-1.1023,-1.1023,-1.1312,-1.1745,-1.1942,-1.2698,-1.3964,-1.4231,-1.4943,-1.6099,-1.6338,-1.6527,-1.6673,-1.6673,-1.7503,-1.8714,-2.041,-2.1895,-2.3421,-2.4815,-2.5684,-2.5684,-2.5684,-2.5684,-2.5684,-2.5684,-2.5684,-2.5684,-2.5684,-2.5684,-2.5684,-2.5684,-2.5684,-2.5684,-2.5684,-2.5684,-2.5684,-2.5684,-2.5684,-2.5684,-2.5684,-2.5684,-2.5684,-2.5684,-2.5684,-2.5684,-2.5684,-2.5684,-2.5684,-2.5684,-2.5684,-2.5684,-2.5684,-2.5684,-2.5684,-2.5684,-2.5684,-2.5684,-2.5684,-2.5684,-2.5684,-2.5684,-2.5684,-2.5684,-2.5684,-2.5684,-2.5684,-2.5684,-2.5684,-0.8937,-0.8937,-0.8937,-0.8937,-0.8937,-0.8937,-0.8937,-0.8937,-0.8937,-0.8937,-0.8937,-0.8937,-0.8937,-0.8937,-0.8937,-0.8937,-0.8937,-0.8937,-0.8937,-0.8937,-0.8992,-0.8937,-0.8937,-0.8992,-0.8937,-0.8937,-0.8937,-0.8937,-0.8937,-0.8937,-0.8937,-0.8937,-0.9027,-0.8791,-0.8839,-0.901,-0.9481,-0.9591,-1.0485,-1.1268,-1.1317,-1.175,-1.2042,-1.2091,-1.2091,-1.2139,-1.2188,-1.2237,-1.2576,-1.313,-1.3337,-1.4094,-1.53,-1.5635,-1.6082,-1.6663,-1.6727,-1.6807,-1.7218,-1.7691,-1.857,-1.9617,-2.0722,-2.2278,-2.3579,-2.4903,-2.5479,-2.5684,-2.5684,-2.5684,-2.5684,-2.5684,-2.5684,-2.5684,-2.5684,-2.5684,-2.5684,-2.5684,-2.5684,-2.5684,-2.5684,-2.5684,-2.5684,-2.5684,-2.5684,-2.5684,-2.5684,-2.5684,-2.5684,-2.5684,-2.5684,-2.5684,-2.5684,-2.5684,-2.5684,-2.5684,-2.5684,-2.5684,-2.5684,-2.5684,-2.5684,-2.5684,-2.5684,-2.5684,-2.5684,-2.5684,-2.5684,-2.5684,-2.5684,-2.5684,-2.5684,-2.5684,-2.5684,-2.5684,-2.5684,-0.8937,-0.8937,-0.8937,-0.8937,-0.8937,-0.8937,-0.8937,-0.8937,-0.8937,-0.8937,-0.8937,-0.8937,-0.8937,-0.8937,-0.8937,-0.8937,-0.8937,-0.8937,-0.8937,-0.8992,-0.9533,-0.9372,-0.921,-0.9316,-0.9372,-0.9154,-0.8937,-0.8937,-0.8937,-0.8937,-0.8937,-0.9047,-0.942,-0.966,-0.9697,-1.0015,-1.0133,-1.0436,-1.1388,-1.2619,-1.2764,-1.306,-1.3397,-1.3403,-1.3403,-1.3403,-1.3307,-1.3403,-1.3596,-1.4328,-1.4818,-1.5329,-1.6196,-1.658,-1.6807,-1.6921,-1.7034,-1.7377,-1.8154,-1.8658,-1.9626,-2.1054,-2.1652,-2.2772,-2.4091,-2.5265,-2.5577,-2.5684,-2.5684,-2.5684,-2.5684,-2.5684,-2.5684,-2.5684,-2.5684,-2.5684,-2.5684,-2.5684,-2.5684,-2.5684,-2.5684,-2.5684,-2.5684,-2.5684,-2.5684,-2.5684,-2.5684,-2.5684,-2.5684,-2.5684,-2.5684,-2.5684,-2.5684,-2.5684,-2.5684,-2.5684,-2.5684,-2.5684,-2.5684,-2.5684,-2.5684,-2.5684,-2.5684,-2.5684,-2.5684,-2.5684,-2.5684,-2.5684,-2.5684,-2.5684,-2.5684,-2.5684,-2.5684,-2.5684,-2.5684,-0.8937,-0.8937,-0.8937,-0.8937,-0.8937,-0.8937,-0.8937,-0.8937,-0.8937,-0.8937,-0.8937,-0.8937,-0.8937,-0.8937,-0.8937,-0.8937,-0.9099,-0.9047,-0.921,-0.9644,-1.0566,-1.008,-0.997,-1.0237,-0.986,-0.9265,-0.9158,-0.9482,-0.9099,-0.9754,-0.9699,-0.9699,-1.0726,-1.0933,-1.0977,-1.1163,-1.1173,-1.1793,-1.3002,-1.3945,-1.4195,-1.4875,-1.5048,-1.5083,-1.5099,-1.5099,-1.5146,-1.5242,-1.5391,-1.5607,-1.5742,-1.6129,-1.65,-1.6707,-1.7088,-1.7382,-1.7508,-1.8175,-1.9088,-1.9553,-2.0977,-2.2464,-2.3471,-2.4492,-2.5118,-2.5538,-2.5635,-2.5684,-2.5684,-2.5684,-2.5684,-2.5684,-2.5684,-2.5684,-2.5684,-2.5684,-2.5684,-2.5684,-2.5684,-2.5684,-2.5684,-2.5684,-2.5684,-2.5684,-2.5684,-2.5684,-2.5684,-2.5684,-2.5684,-2.5684,-2.5684,-2.5684,-2.5684,-2.5684,-2.5684,-2.5684,-2.5684,-2.5684,-2.5684,-2.5684,-2.5684,-2.5684,-2.5684,-2.5684,-2.5684,-2.5684,-2.5684,-2.5684,-2.5684,-2.5684,-2.5684,-2.5684,-2.5684,-2.5684,-2.5684,-0.8937,-0.8937,-0.8937,-0.8937,-0.8937,-0.8937,-0.8937,-0.8937,-0.8937,-0.8937,-0.8937,-0.8937,-0.8937,-0.8937,-0.8937,-0.8937,-0.932,-0.986,-1.0347,-1.0945,-1.1433,-1.1328,-1.1055,-1.0781,-1.0131,-0.9805,-0.9809,-1.0515,-1.0781,-1.1214,-1.1864,-1.2295,-1.2349,-1.2553,-1.2836,-1.3262,-1.3349,-1.3717,-1.4991,-1.5287,-1.5479,-1.5897,-1.6059,-1.5952,-1.5912,-1.5912,-1.5864,-1.5824,-1.5818,-1.5811,-1.6039,-1.6353,-1.664,-1.6901,-1.728,-1.7508,-1.7726,-1.8192,-1.9472,-2.0538,-2.1904,-2.3534,-2.451,-2.5128,-2.5635,-2.5684,-2.5684,-2.5684,-2.5684,-2.5684,-2.5684,-2.5684,-2.5684,-2.5684,-2.5684,-2.5684,-2.5684,-2.5684,-2.5684,-2.5684,-2.5684,-2.5684,-2.5684,-2.5684,-2.5684,-2.5684,-2.5684,-2.5684,-2.5684,-2.5684,-2.5684,-2.5684,-2.5684,-2.5684,-2.5684,-2.5684,-2.5684,-2.5684,-2.5684,-2.5684,-2.5684,-2.5684,-2.5684,-2.5684,-2.5684,-2.5684,-2.5684,-2.5684,-2.5684,-2.5684,-2.5684,-2.5684,-2.5684,-2.5684,-2.5684,-0.8937,-0.8937,-0.8937,-0.8937,-0.8937,-0.8937,-0.8937,-0.8937,-0.8937,-0.8937,-0.8937,-0.8937,-0.8937,-0.8937,-0.8937,-0.8937,-0.8995,-0.9537,-0.9966,-1.0292,-1.1973,-1.1,-1.0731,-1.1324,-1.1109,-1.0781,-1.1051,-1.1973,-1.2295,-1.267,-1.321,-1.321,-1.3696,-1.4073,-1.4447,-1.5194,-1.582,-1.5978,-1.6309,-1.6527,-1.6513,-1.6446,-1.6313,-1.6199,-1.6146,-1.6097,-1.6077,-1.6079,-1.5999,-1.5965,-1.6166,-1.6299,-1.6673,-1.7068,-1.7387,-1.7575,-1.7635,-1.876,-2.0231,-2.1143,-2.2617,-2.4097,-2.5167,-2.5479,-2.5684,-2.5684,-2.5684,-2.5684,-2.5684,-2.5684,-2.5684,-2.5684,-2.5684,-2.5684,-2.5684,-2.5684,-2.5684,-2.5684,-2.5684,-2.5684,-2.5684,-2.5684,-2.5684,-2.5684,-2.5684,-2.5684,-2.5684,-2.5684,-2.5684,-2.5684,-2.5684,-2.5684,-2.5684,-2.5684,-2.5684,-2.5684,-2.5684,-2.5684,-2.5684,-2.5684,-2.5684,-2.5635,-2.5586,-2.5635,-2.5684,-2.5635,-2.5479,-2.5635,-2.5684,-2.5684,-2.5684,-2.5684,-2.5684,-2.5684,-2.5684,-0.8937,-0.8937,-0.8937,-0.8937,-0.8937,-0.8937,-0.8937,-0.8937,-0.8937,-0.8937,-0.8937,-0.8937,-0.8937,-0.8937,-0.8937,-0.8937,-0.9103,-0.9482,-0.986,-0.9261,-1.1701,-1.1647,-1.1324,-1.1864,-1.2349,-1.224,-1.2615,-1.3642,-1.375,-1.418,-1.4395,-1.375,-1.4936,-1.5583,-1.5778,-1.662,-1.7075,-1.7055,-1.694,-1.6854,-1.678,-1.6734,-1.672,-1.6667,-1.6647,-1.6647,-1.658,-1.646,-1.6273,-1.6172,-1.6106,-1.6166,-1.6673,-1.7575,-1.7789,-1.8028,-1.8192,-1.9517,-2.0939,-2.1904,-2.3335,-2.4658,-2.5684,-2.5684,-2.5684,-2.5684,-2.5684,-2.5684,-2.5684,-2.5684,-2.5684,-2.5684,-2.5684,-2.5684,-2.5684,-2.5684,-2.5684,-2.5684,-2.5684,-2.5684,-2.5684,-2.5684,-2.5684,-2.5684,-2.5684,-2.5684,-2.5684,-2.5684,-2.5684,-2.5684,-2.5684,-2.5684,-2.5684,-2.5684,-2.5684,-2.5684,-2.5684,-2.5684,-2.5684,-2.5684,-2.5684,-2.5586,-2.5489,-2.5226,-2.4962,-2.5226,-2.5226,-2.543,-2.5577,-2.5684,-2.5684,-2.5684,-2.5684,-2.5684,-2.5684,-0.8937,-0.8937,-0.8937,-0.8937,-0.8937,-0.8937,-0.8937,-0.8937,-0.8937,-0.8937,-0.8937,-0.8937,-0.8937,-0.8937,-0.8937,-0.8937,-0.9047,-0.9592,-1.0402,-1.1051,-1.2457,-1.2295,-1.2453,-1.3264,-1.375,-1.3642,-1.4126,-1.537,-1.5908,-1.6287,-1.6446,-1.6505,-1.6935,-1.6823,-1.6876,-1.7582,-1.7575,-1.7562,-1.7422,-1.7168,-1.7105,-1.7052,-1.7025,-1.6827,-1.674,-1.6774,-1.668,-1.648,-1.6339,-1.6226,-1.5979,-1.6179,-1.6673,-1.8212,-1.8457,-1.8199,-1.9465,-2.0735,-2.1693,-2.2667,-2.3949,-2.4971,-2.5684,-2.5684,-2.5684,-2.5684,-2.5684,-2.5684,-2.5684,-2.5684,-2.5684,-2.5684,-2.5684,-2.5684,-2.5684,-2.5684,-2.5684,-2.5684,-2.5684,-2.5684,-2.5684,-2.5684,-2.5684,-2.5684,-2.5684,-2.5684,-2.5684,-2.5684,-2.5684,-2.5684,-2.5684,-2.5684,-2.5684,-2.5684,-2.5684,-2.5684,-2.5684,-2.5684,-2.5684,-2.5684,-2.5635,-2.5118,-2.4609,-2.4304,-2.4097,-2.4304,-2.4658,-2.5226,-2.5421,-2.5577,-2.5684,-2.5684,-2.5684,-2.5684,-2.5684,-0.8937,-0.8937,-0.8937,-0.8937,-0.8937,-0.8937,-0.8937,-0.8937,-0.8937,-0.8937,-0.8937,-0.8937,-0.8937,-0.8937,-0.8937,-0.8937,-0.9047,-0.9647,-0.9754,-1.0731,-1.1755,-1.2023,-1.2832,-1.3911,-1.4341,-1.4449,-1.5689,-1.6882,-1.7529,-1.7529,-1.7477,-1.7589,-1.7589,-1.7589,-1.7589,-1.7589,-1.7589,-1.7589,-1.7589,-1.7534,-1.7373,-1.7353,-1.734,-1.7114,-1.7088,-1.7081,-1.7001,-1.6814,-1.6613,-1.6506,-1.6326,-1.6933,-1.7668,-1.8818,-1.9472,-1.9878,-2.0786,-2.1954,-2.2617,-2.3384,-2.4412,-2.5274,-2.5684,-2.5684,-2.5684,-2.5684,-2.5684,-2.5684,-2.5684,-2.5684,-2.5684,-2.5684,-2.5684,-2.5684,-2.5684,-2.5684,-2.5684,-2.5684,-2.5684,-2.5684,-2.5684,-2.5684,-2.5684,-2.5684,-2.5684,-2.5684,-2.5684,-2.5684,-2.5684,-2.5684,-2.5684,-2.5713,-2.5742,-2.5703,-2.5684,-2.5684,-2.5684,-2.5684,-2.5752,-2.5273,-2.493,-2.4273,-2.3741,-2.322,-2.302,-2.3285,-2.3741,-2.4609,-2.5274,-2.5538,-2.5635,-2.5684,-2.5684,-2.5684,-2.5684,-0.8937,-0.8937,-0.8937,-0.8937,-0.8937,-0.8937,-0.8937,-0.8937,-0.8937,-0.8937,-0.8937,-0.8937,-0.8937,-0.8937,-0.8937,-0.8937,-0.8992,-0.921,-0.9103,-0.9158,-0.9592,-1.0781,-1.1973,-1.2999,-1.4395,-1.5689,-1.6823,-1.7259,-1.7589,-1.7589,-1.7589,-1.7589,-1.7589,-1.7589,-1.7589,-1.7589,-1.7589,-1.7589,-1.7589,-1.7589,-1.7575,-1.7589,-1.7535,-1.7555,-1.7589,-1.7589,-1.7548,-1.7347,-1.7001,-1.68,-1.664,-1.715,-1.8275,-1.9306,-2.0107,-2.0794,-2.2055,-2.2876,-2.3434,-2.3949,-2.4766,-2.5372,-2.5577,-2.5684,-2.5684,-2.5684,-2.5684,-2.5684,-2.5684,-2.5684,-2.5684,-2.5684,-2.5684,-2.5684,-2.5684,-2.5684,-2.5684,-2.5684,-2.5684,-2.5684,-2.5684,-2.5684,-2.5684,-2.5684,-2.5684,-2.5684,-2.5684,-2.5684,-2.5684,-2.5684,-2.5684,-2.583,-2.5908,-2.5859,-2.5801,-2.5937,-2.6015,-2.6016,-2.5985,-2.5041,-2.4262,-2.3666,-2.29,-2.1885,-2.1817,-2.2391,-2.3176,-2.4088,-2.4707,-2.5538,-2.5635,-2.5684,-2.5684,-2.5684,-2.5684,-0.8937,-0.8937,-0.8937,-0.8937,-0.8937,-0.8937,-0.8937,-0.8937,-0.8937,-0.8937,-0.8937,-0.8937,-0.8937,-0.8937,-0.8937,-0.8937,-0.8937,-0.8937,-0.8937,-0.8992,-0.9647,-1.0511,-1.1592,-1.3215,-1.5524,-1.6552,-1.7041,-1.7424,-1.7477,-1.7529,-1.7589,-1.7589,-1.7589,-1.7589,-1.7589,-1.7589,-1.7589,-1.7589,-1.7589,-1.7589,-1.7589,-1.7589,-1.7589,-1.7589,-1.7589,-1.7589,-1.7561,-1.7347,-1.7058,-1.68,-1.6784,-1.715,-1.8304,-1.975,-2.0774,-2.1608,-2.2926,-2.389,-2.4353,-2.4716,-2.5421,-2.5528,-2.5684,-2.5684,-2.5684,-2.5684,-2.5684,-2.5684,-2.5684,-2.5684,-2.5684,-2.5684,-2.5684,-2.5684,-2.5684,-2.5684,-2.5684,-2.5684,-2.5684,-2.5684,-2.5684,-2.5684,-2.5684,-2.5684,-2.5684,-2.5684,-2.5684,-2.5684,-2.5684,-2.5684,-2.5684,-2.5859,-2.5986,-2.6182,-2.6269,-2.6523,-2.6611,-2.6514,-2.6156,-2.5277,-2.432,-2.3177,-2.231,-2.1223,-2.1237,-2.1769,-2.2667,-2.384,-2.4756,-2.5538,-2.5635,-2.5684,-2.5684,-2.5684,-2.5684]},{"header":{"parameterUnit":"m.s-1","parameterCategory":1,"la1":31.0,"la2":29.5877,"lo1":-88.7671,"lo2":-86.6584,"dx":0.0162,"dy":0.0185,"nx":115,"ny":88,"refTime":"2023-01-01T18:00:00:Z","depth":0,"parameterNumber":3,"parameterNumberName":"V-component_of_WINDS"},"data":[0.0,0.0,0.0,0.0,0.0,0.0,0.0,0.0,0.0,0.0,0.0,0.0,0.0,0.0,0.0,0.0,0.0,0.0,0.0,0.0,0.0,0.0,0.0,0.0,0.0,0.0,0.0,0.0,0.0,0.0,0.0,0.0,0.0,0.0,0.0,0.0,0.0,0.0,0.0,0.0,0.0,0.0,0.0,0.0,0.0,0.0,0.0,0.0,0.0,0.0,0.0,0.0,0.0,0.0,0.0,0.0,0.0,0.0,0.0,0.0,0.0,0.0,0.0,0.0,0.0,0.0,0.0,0.0,0.0,0.0,0.0,0.0,0.0,0.0,0.0,0.0,0.0,0.0,0.0,0.0,0.0,0.0,0.0,0.0,0.0,0.0,0.0,0.0,0.0,0.0,0.0,0.0,0.0,0.0,0.0,0.0,0.0,0.0,0.0,0.0,0.0,0.0,0.0,0.0,0.0,0.0,0.0,0.0,0.0,0.0,0.0,0.0,0.0,0.0,0.0,0.0,0.0,0.0,0.0,0.0,0.0,0.0,0.0,0.0,0.0,0.0,0.0,0.0,0.0,0.0,0.0,0.0,0.0,0.0,0.0,0.0,0.0,0.0,0.0,0.0,0.0,0.0,0.0,0.0,0.0,0.0,0.0,0.0,0.0,0.0,0.0,0.0,0.0,0.0,0.0,0.0,0.0,0.0,0.0,0.0,0.0,0.0,0.0,0.0,0.0,0.0,0.0,0.0,0.0,0.0,0.0,0.0,0.0,0.0,0.0,0.0,0.0,0.0,0.0,0.0,0.0,0.0,0.0,0.0,0.0,0.0,0.0,0.0,0.0,0.0,0.0,0.0,0.0,0.0,0.0,0.0,0.0,0.0,0.0,0.0,0.0,0.0,0.0,0.0,0.0,0.0,0.0,0.0,0.0,0.0,0.0,0.0,0.0,0.0,0.0,0.0,0.0,0.0,0.0,0.0,0.0,0.0,0.0,0.0,0.0,0.0,0.0,0.0,0.0,0.0,0.0,0.0,0.0,0.0,0.0,0.0,0.0,0.0,0.0,0.0,0.0,0.0,0.0,0.0,0.0,0.0,0.0,0.0,0.0,0.0,0.0,0.0,0.0,0.0,0.0,0.0,0.0,0.0,0.0,0.0,0.0,0.0,0.0,0.0,0.0,0.0,0.0,0.0,0.0,0.0,0.0,0.0,0.0,0.0,0.0,0.0,0.0,0.0,0.0,0.0,0.0,0.0,0.0,0.0,0.0,0.0,0.0,0.0,0.0,0.0,0.0,0.0,0.0,0.0,0.0,0.0,0.0,0.0,0.0,0.0,0.0,0.0,0.0,0.0,0.0,0.0,0.0,0.0,0.0,0.0,0.0,0.0,0.0,0.0,0.0,0.0,0.0,0.0,0.0,0.0,0.0,0.0,0.0,0.0,0.0,0.0,0.0,0.0,0.0,0.0,0.0,0.0,0.0,0.0,0.0,0.0,0.0,0.0,0.0,0.0,0.0,0.0,0.0,0.0,0.0,0.0,0.0,0.0,0.0,0.0,0.0,0.0,0.0,0.0,0.0,0.0,0.0,0.0,0.0,0.0,0.0,0.0,0.0,0.0,0.0,0.0,0.0,0.0,0.0,0.0,0.0,0.0,0.0,0.0,0.0,0.0,0.0,0.0,0.0,0.0,0.0,0.0,0.0,0.0,0.0,0.0,0.0,0.0,0.0,0.0,0.0,0.0,0.0,0.0,0.0,0.0,0.0,0.0,0.0,0.0,0.0,0.0,0.0,0.0,0.0,0.0,0.0,0.0,0.0,0.0,0.0,0.0,0.0,0.0,0.0,0.0,0.0,0.0,0.0,0.0,0.0,0.0,0.0,0.0,0.0,0.0,0.0,0.0,0.0,0.0,0.0,0.0,0.0,0.0,0.0,0.0,0.0,0.0,0.0,0.0,0.0,0.0,0.0,0.0,0.0,0.0,0.0,0.0,0.0,0.0,0.0,0.0,0.0,0.0,0.0,0.0,0.0,0.0,0.0,0.0,0.0,0.0,0.0,0.0,0.0,0.0,0.0,0.0,0.0,0.0,0.0,0.0,0.0,0.0,0.0,0.0,0.0,0.0,0.0,0.0,0.0,0.0,0.0,0.0,0.0,0.0,0.0,0.0,0.0,0.0,0.0,0.0,0.0,0.0,0.0,0.0,0.0,0.0,0.0,0.0,0.0,0.0,0.0,0.0,0.0,0.0,0.0,0.0,0.0,0.0,0.0,0.0,0.0,0.0,0.0,0.0,0.0,0.0,0.0,0.0,0.0,0.0,0.0,0.0,0.0,0.0,0.0,0.0,0.0,0.0,0.0,0.0,0.0,0.0,0.0,0.0,0.0,0.0,0.0,0.0,0.0,0.0,0.0,0.0,0.0,0.0,0.0,0.0,0.0,0.0,0.0,0.0,0.0,0.0,0.0,0.0,0.0,0.0,0.0,0.0,0.0,0.0,0.0,0.0,0.0,0.0,0.0,0.0,0.0,0.0,0.0,0.0,0.0,0.0,0.0,0.0,0.0,0.0,0.0,0.0,0.0,0.0,0.0,0.0,0.0,0.0,0.0,0.0,0.0,0.0,0.0,0.0,0.0,0.0,0.0,0.0,0.0,0.0,0.0,0.0,0.0,0.0,0.0,0.0,0.0,0.0,0.0,0.0,0.0,0.0,0.0,0.0,0.0,0.0,0.0,0.0,0.0,0.0,0.0,0.0,0.0,0.0,0.0,0.0,0.0,0.0,0.0,0.0,0.0,0.0,0.0,0.0,0.0,0.0,0.0,0.0,0.0,0.0,0.0,0.0,0.0,0.0,0.0,0.0,0.0,0.0,0.0,0.0,0.0,0.0,0.0,0.0,0.0,0.0,0.0,0.0,0.0,0.0,0.0,0.0,0.0,0.0,0.0,0.0,0.0,0.0,0.0,0.0,0.0,0.0,0.0,0.0,0.0,0.0,0.0,0.0,0.0,0.0,0.0,0.0,0.0,0.0,0.0,0.0,0.0,0.0,0.0,0.0,0.0,0.0,0.0,0.0,0.0,0.0,0.0,0.0,0.0,0.0,0.0,0.0,0.0,0.0,0.0,0.0,0.0,0.0,0.0,0.0,0.0,0.0,0.0,0.0,0.0,0.0,0.0,0.0,0.0,0.0,0.0,0.0,0.0,0.0,0.0,0.0,0.0,0.0,0.0,0.0,0.0,0.0,0.0,0.0,0.0,0.0,0.0,0.0,0.0,0.0,0.0,0.0,0.0,0.0,0.0,0.0,0.0,0.0,0.0,0.0,0.0,0.0,0.0,0.0,0.0,0.0,0.0,0.0,0.0,0.0,0.0,0.0,0.0,0.0,0.0,0.0,0.0,0.0,0.0,0.0,0.0,0.0,0.0,0.0,0.0,0.0,0.0,0.0,0.0,0.0,0.0,0.0,0.0,0.0,0.0,0.0,0.0,0.0,0.0,0.0,0.0,0.0,0.0,0.0,0.0,0.0,0.0,0.0,0.0,0.0,0.0,0.0,0.0,0.0,0.0,0.0,0.0,0.0,0.0,0.0,0.0,0.0,0.0,0.0,0.0,0.0,0.0,0.0,0.0,0.0,0.0,0.0,0.0,0.0,0.0,0.0,0.0,0.0,0.0,0.0,0.0,0.0,0.0,0.0,0.0,0.0,0.0,0.0,0.0,0.0,0.0,0.0,0.0,0.0,0.0,0.0,0.0,0.0,0.0,0.0,0.0,0.0,0.0,0.0,0.0,0.0,0.0,0.0,0.0,0.0,0.0,0.0,0.0,0.0,0.0,0.0,0.0,0.0,0.0,0.0,0.0,0.0,0.0,0.0,0.0,0.0,0.0,0.0,0.0,0.0,0.0,0.0,0.0,0.0,0.0,0.0,0.0,0.0,0.0,0.0,0.0,0.0,0.0,0.0,0.0,0.0,0.0,0.0,0.0,0.0,0.0,0.0,0.0,0.0,0.0,0.0,0.0,0.0,0.0,0.0,0.0,0.0,0.0,0.0,0.0,0.0,0.0,0.0,0.0,0.0,0.0,0.0,0.0,0.0,0.0,0.0,0.0,0.0,0.0,0.0,0.0,0.0,0.0,0.0,0.0,0.0,0.0,0.0,0.0,0.0,0.0,0.0,0.0,0.0,0.0,0.0,0.0,0.0,0.0,0.0,0.0,0.0,0.0,0.0,0.0,0.0,0.0,0.0,0.0,0.0,0.0,0.0,0.0,0.0,0.3749,0.0,0.0,0.0,0.3617,0.0,0.0,0.0,0.0,0.0,0.0,0.0,0.0,0.0,0.0,0.0,0.0,0.0,0.0,0.0,0.0,0.0,0.0,0.0,0.0,0.0,0.0,0.0,0.0,0.0,0.0,0.0,0.0,0.0,0.0,0.0,0.0,0.0,0.0,0.0,0.0,0.0,0.0,0.0,0.0,0.0,0.0,0.0,0.0,0.0,0.0,0.0,0.0,0.0,0.0,0.0,0.0,0.0,0.0,0.0,0.0,0.0,0.0,0.0,0.0,0.0,0.0,0.0,0.0,0.0,0.0,0.0,0.0,0.0,0.0,0.0,0.0,0.0,0.0,0.0,0.0,0.0,0.0,0.0,0.0,0.0,0.0,0.0,0.0,0.0,0.0,0.0,0.0,0.0,0.0,0.0,0.0,0.0,0.0,0.0,0.0,0.0,0.0,0.0,0.0,0.0,0.0,0.0,0.0,0.0,0.0,0.0,0.0,0.0,0.0,0.4019,0.383,0.3763,0.3832,0.3959,0.0,0.0,0.0,0.0,0.0,0.0,0.0,0.0,0.0,0.0,0.0,0.0,0.0,0.0,0.0,0.0,0.0,0.0,0.0,0.0,0.0,0.0,0.0,0.0,0.0,0.0,0.0,0.0,0.0,0.0,0.0,0.0,0.0,0.0,0.0,0.0,0.0,0.0,0.0,0.0,0.0,0.0,0.0,0.0,0.0,0.0,0.0,0.0,0.0,0.0,0.0,0.0,0.0,0.0,0.0,0.0,0.0,0.0,0.0,0.0,0.0,0.0,0.0,0.0,0.0,0.0,0.0,0.0,0.0,0.0,0.0,0.0,0.0,0.0,0.0,0.0,0.0,0.0,0.0,0.0,0.0,0.0,0.0,0.0,0.0,0.0,0.0,0.0,0.0,0.0,0.0,0.0,0.0,0.0,0.0,0.0,0.0,0.0,0.0,0.0,0.0,0.0,0.0,0.0,0.0,0.0,0.0,0.0,0.0,0.0,0.0,0.0,0.4122,0.4152,0.4333,0.0,0.0,0.0,0.0,0.0,0.0,0.0,0.0,0.0,0.0,0.0,0.0,0.0,0.0,0.0,0.0,0.0,0.0,0.0,0.0,0.0,0.0,0.0,0.0,0.0,0.0,0.0,0.0,0.0,0.0,0.0,0.0,0.0,0.0,0.0,0.0,0.0,0.0,0.0,0.0,0.0,0.0,0.0,0.0,0.0,0.0,0.0,0.0,0.0,0.0,0.0,0.0,0.0,0.0,0.0,0.0,0.0,0.0,0.0,0.0,0.0,0.0,0.0,0.0,0.0,0.0,0.0,0.0,0.0,0.0,0.0,0.0,0.0,0.0,0.0,0.0,0.0,0.0,0.0,0.0,0.0,0.0,0.0,0.0,0.0,0.0,0.0,0.0,0.0,0.0,0.0,0.0,0.0,0.0,0.0,0.0,0.0,0.0,0.0,0.0,0.0,0.0,0.0,0.0,0.0,0.0,0.0,0.0,0.0,0.0,0.5008,0.5157,0.4822,0.0,0.4754,0.0,0.0,0.0,0.0,0.0,0.0,0.0,0.0,0.0,0.0,0.0,0.0,0.0,0.0,0.0,0.0,0.0,0.0,0.0,0.0,0.0,0.0,0.0,0.0,0.0,0.0,0.0,0.0,0.0,0.0,0.0,0.0,0.0,0.0,0.0,0.0,0.0,0.0,0.0,0.0,0.0,0.0,0.0,0.0,0.0,0.0,0.0,0.0,0.0,0.0,0.0,0.0,0.0,0.0,0.0,0.0,0.0,0.0,0.0,0.0,0.0,0.0,0.0,0.0,0.0,0.0,0.0,0.0,0.0,0.0,0.0,0.0,0.0,0.0,0.0,0.0,0.0,0.0,0.0,0.0,0.0,0.0,0.0,0.0,0.0,0.0,0.0,0.0,0.0,0.0,0.0,0.0,0.0,0.0,0.0,0.0,0.0,0.0,0.0,0.0,0.0,0.0,0.0,0.0,0.0,0.0,0.0,0.0,0.0,0.0,0.5321,0.5227,0.5063,0.4981,0.0,0.0,0.0,0.0,0.0,0.0,0.0,0.0,0.0,0.0,0.0,0.0,0.0,0.0,0.0,0.0,0.0,0.0,0.0,0.0,0.0,0.0,0.0,0.0,0.0,0.0,0.0,0.0,0.0,0.0,0.0,0.0,0.0,0.0,0.0,0.0,0.0,0.0,0.0,0.0,0.0,0.0,0.0,0.0,0.0,0.0,0.0,0.0,0.0,0.0,0.0,0.0,0.0,0.0,0.0,0.0,0.0,0.0,0.0,0.0,0.0,0.0,0.0,0.0,0.0,0.0,0.0,0.0,0.0,0.0,0.0,0.0,0.0,0.0,0.0,0.0,0.0,0.0,0.0,0.0,0.0,0.0,0.0,0.0,0.0,0.0,0.0,0.0,0.0,0.0,0.0,0.0,0.0,0.0,0.0,0.0,0.0,0.0,0.0,0.0,0.0,0.0,0.0,0.0,0.0,0.0,0.0,0.0,0.0,0.0,0.5744,0.5616,0.5398,0.5329,0.5257,0.5126,0.0,0.0,0.0,0.0,0.0,0.0,0.0,0.0,0.0,0.0,0.0,0.0,0.0,0.0,0.0,0.0,0.0,0.0,0.0,0.0,0.0,0.0,0.0,0.0,0.0,0.0,0.0,0.0,0.0,0.0,0.0,0.0,0.0,0.0,0.0,0.0,0.0,0.0,0.0,0.0,0.0,0.0,0.0,0.0,0.0,0.0,0.0,0.0,0.0,0.0,0.0,0.0,0.0,0.0,0.0,0.0,0.0,0.0,0.0,0.0,0.0,0.0,0.0,0.0,0.0,0.0,0.0,0.0,0.0,0.0,0.0,0.0,0.0,0.0,0.0,0.0,0.0,0.0,0.0,0.0,0.0,0.0,0.0,0.0,0.0,0.0,0.0,0.0,0.0,0.0,0.0,0.0,0.0,0.0,0.0,0.0,0.0,0.0,0.0,0.0,0.0,0.0,0.0,0.0,0.0,0.0,0.0,0.0,0.6669,0.6275,0.5983,0.5763,0.5652,0.5468,0.0,0.0,0.0,0.0,0.0,0.0,0.0,0.0,0.0,0.0,0.0,0.0,0.0,0.0,0.0,0.0,0.0,0.0,0.0,0.0,0.0,0.0,0.0,0.0,0.0,0.0,0.0,0.0,0.0,0.0,0.0,0.0,0.0,0.0,0.0,0.0,0.0,0.0,0.0,0.0,0.0,0.0,0.0,0.0,0.0,0.0,0.0,0.0,0.0,0.0,0.0,0.0,0.0,0.0,0.0,0.0,0.0,0.0,0.0,0.0,0.0,0.0,0.0,0.0,0.0,0.0,0.0,0.0,0.0,0.0,0.0,0.0,0.0,0.0,0.0,0.0,0.0,0.0,0.0,0.0,0.0,0.0,0.0,0.0,0.0,0.0,0.0,0.0,0.0,0.0,0.0,0.0,0.0,0.0,0.0,0.0,0.0,0.0,0.0,0.0,0.0,0.0,0.0,0.0,0.0,0.0,0.0,0.0,0.0,0.615,0.6083,0.605,0.6056,0.5885,0.5787,0.0,0.0,0.0,0.0,0.0,0.0,0.0,0.0,0.0,0.0,0.0,0.0,0.0,0.0,0.0,0.0,0.0,0.0,0.0,0.0,0.0,0.0,0.0,0.0,0.0,0.0,0.0,0.0,0.0,0.0,0.0,0.0,0.0,0.0,0.0,0.0,0.0,0.0,0.0,0.0,0.0,0.0,0.0,0.0,0.0,0.0,0.0,0.0,0.0,0.0,0.0,0.0,0.0,0.0,0.0,0.0,0.0,0.0,0.0,0.0,0.0,0.0,0.0,0.0,0.0,0.0,0.0,0.0,0.0,0.0,0.0,0.0,0.0,0.0,0.0,0.0,0.0,0.0,0.0,0.0,0.0,0.0,0.0,0.0,0.0,0.0,0.0,0.0,0.0,0.0,0.0,0.0,0.0,0.0,0.0,0.0,0.0,0.0,0.0,0.0,0.0,0.0,0.0,0.0,0.0,0.0,0.0,0.0,0.0,0.6194,0.6368,0.6437,0.6362,0.6185,0.6055,0.0,0.0,0.0,0.0,0.0,0.0,0.0,0.0,0.0,0.0,0.0,0.0,0.0,0.0,0.0,0.0,0.0,0.0,0.0,0.0,0.0,0.0,0.0,0.0,0.0,0.0,0.0,0.0,0.0,0.0,0.0,0.0,0.0,0.0,0.0,0.0,0.0,0.0,0.0,0.0,0.0,0.0,0.0,0.0,0.0,0.0,0.0,0.0,0.0,0.0,0.0,0.0,0.0,0.0,0.0,0.0,0.0,0.0,0.0,0.0,0.0,0.0,0.0,0.0,0.0,0.0,0.0,0.0,0.0,0.0,0.0,0.0,0.0,0.0,0.0,0.0,0.0,0.0,0.0,0.0,0.0,0.0,0.0,0.0,0.0,0.0,0.0,0.0,0.0,0.0,0.0,0.0,0.0,0.0,0.0,0.0,0.0,0.0,0.0,0.0,0.0,0.0,0.0,0.0,0.0,0.0,0.0,0.0,0.6486,0.6961,0.7241,0.7202,0.6723,0.6586,0.6322,0.0,0.0,0.0,0.0,0.0,0.0,0.0,0.0,0.0,0.0,0.0,0.0,0.0,0.0,0.0,0.0,0.0,0.0,0.0,0.0,0.0,0.0,0.0,0.0,0.0,0.0,0.0,0.0,0.0,0.0,0.0,0.0,0.0,0.0,0.0,0.0,0.0,0.0,0.0,0.0,0.0,0.0,0.0,0.0,0.0,0.0,0.0,0.0,0.0,0.0,0.0,0.0,0.0,0.0,0.0,0.0,0.0,0.0,0.0,0.0,0.0,0.0,0.0,0.0,0.0,0.0,0.0,0.0,0.0,0.0,0.0,0.0,0.0,0.0,0.0,0.0,0.0,0.0,0.0,0.0,0.0,0.0,0.0,0.0,0.0,0.0,0.0,0.0,0.0,0.0,0.0,0.0,0.0,0.0,0.0,0.0,0.0,0.0,0.0,0.0,0.0,0.0,0.0,0.0,0.0,0.0,0.0,0.0,0.0,0.6913,0.7726,0.7958,0.7544,0.7317,0.7143,0.0,0.0,0.0,0.0,0.0,0.0,0.0,0.0,0.0,0.0,0.0,0.0,0.0,0.0,0.0,0.0,0.0,0.0,0.0,0.0,0.0,0.0,0.0,0.0,0.0,0.0,0.0,0.0,0.0,0.0,0.0,0.0,0.0,0.0,0.0,0.0,0.0,0.0,0.0,0.0,0.0,0.0,0.0,0.0,0.0,0.0,0.0,0.0,0.0,0.0,0.0,0.0,0.0,0.0,0.0,0.0,0.0,0.0,0.0,0.0,0.0,0.0,0.0,0.0,0.0,0.0,0.0,0.0,0.0,0.0,0.0,0.0,0.0,0.0,0.0,0.0,0.0,0.0,0.0,0.0,0.0,0.0,0.0,0.0,0.0,0.0,0.0,0.0,0.0,0.0,0.0,0.0,0.0,0.0,0.0,0.0,0.0,0.0,0.0,0.0,0.0,0.0,0.0,0.0,0.0,0.0,0.0,0.0,0.0,0.7791,0.8448,0.8655,0.8283,0.7929,0.7705,0.7664,0.0,0.0,0.0,0.0,0.0,0.0,0.0,0.0,0.0,0.0,0.0,0.0,0.0,0.0,0.0,0.0,0.0,0.0,0.0,0.0,0.0,0.0,0.0,0.0,0.0,0.0,0.0,0.0,0.0,0.0,0.0,0.0,0.0,0.0,0.0,0.0,0.0,0.0,0.0,0.0,0.0,0.0,0.0,0.0,0.0,0.0,0.0,0.0,0.0,0.0,0.0,0.0,0.0,0.0,0.0,0.0,0.0,0.0,0.0,0.0,0.0,0.0,0.0,0.0,0.0,0.0,0.0,0.0,0.0,0.0,0.0,0.0,0.0,0.0,0.0,0.0,0.0,0.0,0.0,0.0,0.0,0.0,0.0,0.0,0.0,0.0,0.0,0.0,0.0,0.0,0.0,0.0,0.0,0.0,0.0,0.0,0.0,0.0,0.0,0.0,0.0,0.0,0.0,0.0,0.0,0.0,0.0,0.0,0.9385,0.9437,0.9334,0.9073,0.8479,0.81,0.0,0.0,0.0,0.0,0.0,0.0,0.0,0.0,0.0,0.0,0.0,0.0,0.0,0.0,0.0,0.0,0.0,0.0,0.0,0.0,0.0,0.0,0.0,0.0,0.0,0.0,0.0,0.0,0.0,0.0,0.0,0.0,0.0,0.0,0.0,0.0,0.0,0.0,0.0,0.0,0.0,0.0,0.0,0.0,0.0,0.0,0.0,0.0,0.0,0.0,0.0,0.0,0.0,0.0,0.0,0.0,0.0,0.0,0.0,0.0,0.0,0.0,0.0,0.0,0.0,0.0,0.0,0.0,0.0,0.0,0.0,0.0,0.0,0.0,0.0,0.0,0.0,0.0,0.0,0.0,0.0,0.0,0.0,0.0,0.0,0.0,0.0,0.0,0.0,0.0,0.0,0.0,0.0,0.0,0.0,0.0,0.0,0.0,0.0,0.0,0.0,0.0,0.0,0.0,0.0,0.0,0.0,0.0,0.0,1.0327,1.0342,1.0492,1.0711,0.9648,0.9232,0.0,0.0,0.0,0.0,0.0,0.0,0.0,0.0,0.0,0.0,0.0,0.0,0.0,0.0,0.0,0.0,0.0,0.0,0.0,0.0,0.0,0.0,0.0,0.0,0.0,0.0,0.0,0.0,0.0,0.0,0.0,0.0,0.0,0.0,0.0,0.0,0.0,0.0,0.0,0.0,0.0,0.0,0.0,0.0,0.0,0.0,0.0,0.0,0.0,0.0,0.0,0.0,0.0,0.0,0.0,0.0,0.0,0.0,0.0,0.0,0.0,0.0,0.0,0.0,0.0,0.0,0.0,0.0,0.0,0.0,0.0,0.0,0.0,0.0,0.0,0.0,0.0,0.0,0.0,0.0,0.0,0.0,0.0,0.0,0.0,0.0,0.0,0.0,0.0,0.0,0.0,0.0,0.0,0.0,0.0,0.0,0.0,0.0,0.0,0.0,0.0,0.0,0.0,0.0,0.0,0.0,0.0,0.0,1.0372,1.0868,1.0724,1.1114,1.2048,1.0846,1.0246,0.0,0.0,0.0,0.0,0.0,0.0,0.0,0.0,0.0,0.0,0.0,0.0,0.0,0.0,0.0,0.0,0.0,0.0,0.0,0.0,0.0,0.0,0.0,0.0,0.0,0.0,0.0,0.0,0.0,0.0,0.0,0.0,0.0,0.0,0.0,0.0,0.0,0.0,0.0,0.0,0.0,0.0,0.0,0.0,0.0,0.0,0.0,0.0,0.0,0.0,0.0,0.0,0.0,0.0,0.0,0.0,0.0,0.0,0.0,0.0,0.0,0.0,0.0,0.0,0.0,0.0,0.0,0.0,0.0,0.0,0.0,0.0,0.0,0.0,0.0,0.0,0.0,0.0,0.0,0.0,0.0,0.0,0.0,0.0,0.0,0.0,0.0,0.0,0.0,0.0,0.0,0.0,0.0,0.0,0.0,0.0,0.0,0.0,0.0,0.0,0.0,0.0,0.0,0.0,0.0,0.0,0.0,0.0,1.0828,1.1308,1.1025,1.16,1.3028,1.1943,1.1128,0.0,0.0,0.0,0.0,0.0,0.0,0.0,0.0,0.0,0.0,0.0,0.0,0.0,0.0,0.0,0.0,0.0,0.0,0.0,0.0,0.0,0.0,0.0,0.0,0.0,0.0,0.0,0.0,0.0,0.0,0.0,0.0,0.0,0.0,0.0,0.0,0.0,0.0,0.0,0.0,0.0,0.0,0.0,0.0,0.0,0.0,0.0,0.0,0.0,0.0,0.0,0.0,0.0,0.0,0.0,0.0,0.0,0.0,0.0,0.0,0.0,0.0,0.0,0.0,0.0,0.0,0.0,0.0,0.0,0.0,0.0,0.0,0.0,0.0,0.0,0.0,0.0,0.0,0.0,0.0,0.0,0.0,0.0,0.0,0.0,0.0,0.0,0.0,0.0,0.0,0.0,0.0,0.0,0.0,0.0,0.0,0.0,0.0,0.0,0.0,0.0,0.0,0.0,0.0,0.0,0.0,0.0,0.0,1.2414,1.2886,1.2636,1.294,1.3927,1.2281,1.1491,0.0,0.0,0.0,0.0,0.0,0.0,0.0,0.0,0.0,0.0,0.0,0.0,0.0,0.0,0.0,0.0,0.0,0.0,0.0,0.0,0.0,0.0,0.0,0.0,0.0,0.0,0.0,0.0,0.0,0.0,0.0,0.0,0.0,0.0,0.0,0.0,0.0,0.0,0.0,0.0,0.0,0.0,0.0,0.0,0.0,0.0,0.0,0.0,0.9092,0.0,0.0,0.0,0.0,0.0,0.0,0.0,0.0,0.0,0.0,0.0,0.0,0.0,0.0,0.0,0.0,0.0,0.0,0.0,0.0,0.0,0.0,0.0,0.0,0.0,0.0,0.0,0.0,0.0,0.0,0.0,0.0,0.0,0.0,0.0,0.0,0.0,0.0,0.0,0.0,0.0,0.0,0.0,0.0,0.0,0.0,0.0,0.0,0.0,0.0,0.0,0.0,0.0,0.0,0.0,0.0,0.0,0.0,0.0,1.294,1.338,1.3156,1.3403,1.4118,1.3259,1.2578,0.0,0.0,0.0,0.0,0.0,0.0,0.0,0.0,0.0,0.0,0.0,0.0,0.0,0.0,0.0,0.0,0.0,0.0,0.0,0.0,0.0,0.0,0.0,0.0,0.0,0.0,0.0,0.0,0.0,0.0,0.0,0.0,0.0,0.0,0.0,0.0,0.0,0.0,0.0,0.0,0.0,0.0,0.0,0.0,0.0,0.0,0.0,0.0,0.0,0.0,0.0,0.0,0.0,0.0,0.0,0.0,0.0,0.0,0.0,0.0,0.0,0.0,0.0,0.0,0.0,0.0,0.0,0.0,0.0,0.0,0.0,0.0,0.0,0.0,0.0,0.0,0.0,0.0,0.0,0.0,0.0,0.0,0.0,0.0,0.0,0.0,0.0,0.0,0.0,0.0,0.0,0.0,0.0,0.0,0.0,0.0,0.0,0.0,0.0,0.0,0.0,0.0,0.0,0.0,0.0,0.0,0.0,1.2575,1.3126,1.3652,1.3471,1.3696,1.4382,1.4573,1.3908,1.2284,0.0,0.0,0.0,0.0,0.0,0.0,0.0,0.0,0.0,0.0,0.0,0.0,0.0,0.0,0.0,0.0,0.0,0.0,0.0,0.0,0.0,0.0,0.0,0.0,0.0,0.0,0.0,0.0,0.0,0.0,0.0,0.0,0.0,0.0,0.0,0.0,0.0,0.0,0.7503,0.8951,0.0,0.0,0.0,0.0,0.0,0.0,0.0,0.0,0.9647,0.0,0.0,0.0,0.0,0.0,0.0,0.0,0.0,0.0,0.0,0.0,0.0,0.0,0.0,0.0,0.0,0.0,0.0,0.0,0.0,0.0,0.0,0.0,0.0,0.0,0.0,0.0,0.0,0.0,0.0,0.0,0.0,0.0,0.0,0.0,0.0,0.0,0.0,0.0,0.0,0.0,0.0,0.0,0.0,0.0,0.0,0.0,0.0,0.0,0.0,0.0,0.0,0.0,0.0,0.0,0.0,1.3986,1.3707,1.4026,1.5052,1.5041,1.505,1.5216,1.5984,1.506,1.24,0.0,0.0,0.0,0.0,0.0,0.0,0.0,0.0,0.0,0.0,0.0,0.0,0.0,0.0,0.0,0.0,0.0,0.0,0.0,0.0,0.0,0.0,0.0,0.0,0.0,0.0,0.0,0.0,0.0,0.0,0.0,0.0,0.0,0.0,0.0,0.0,0.0,0.0,0.0,1.0215,1.0782,0.0,0.0,0.0,0.0,0.0,0.0,0.0,0.0,1.0655,0.0,0.0,0.0,0.0,0.0,0.0,0.0,0.0,0.0,0.0,0.0,0.0,0.0,0.0,0.0,0.0,0.0,0.0,0.0,0.0,0.0,0.0,0.0,0.0,0.0,0.0,0.0,0.0,0.0,0.0,0.0,0.0,0.0,0.0,0.0,0.0,0.0,0.0,0.0,0.0,0.0,0.0,0.0,0.0,0.0,0.0,0.0,0.0,0.0,0.0,0.0,0.0,0.0,0.0,0.0,1.3473,1.4514,1.5167,1.54,1.542,1.5584,1.594,1.6143,1.5192,0.0,0.0,0.0,0.0,0.0,0.0,0.0,0.0,0.0,0.0,0.0,0.0,0.0,0.0,0.0,0.0,0.0,0.0,0.0,0.0,0.0,0.0,0.0,0.0,0.0,0.0,0.0,0.0,0.0,0.0,0.0,0.0,0.0,0.0,0.0,0.0,0.0,0.0,0.0,0.0,1.1453,1.2292,1.3299,0.0,0.0,0.0,0.0,0.0,0.0,1.1465,1.1503,0.0,0.0,0.0,0.0,0.0,0.0,0.0,0.0,0.0,0.0,0.0,0.0,0.0,0.0,0.0,0.0,0.0,0.0,0.0,0.0,0.0,0.0,0.0,0.0,0.0,0.0,0.0,0.0,0.0,0.0,0.0,0.0,0.0,0.0,0.0,0.0,0.0,0.0,0.0,0.0,0.0,0.0,0.0,0.0,0.0,0.0,0.0,0.0,0.0,0.0,0.0,0.0,0.0,0.0,0.0,1.3215,1.5206,1.6121,1.5852,1.5853,1.6112,1.6687,1.6249,1.5269,0.0,0.0,0.0,0.0,0.0,0.0,0.0,0.0,0.0,0.0,0.0,0.0,0.0,0.0,0.0,0.0,0.0,0.0,0.0,0.0,0.0,0.0,0.0,0.0,0.0,0.0,0.0,0.0,0.0,0.0,0.0,0.0,0.0,0.0,0.0,0.0,0.0,0.0,0.0,0.0,0.0,1.3519,1.4816,1.3865,0.0,0.0,0.0,0.0,1.1902,1.2544,0.0,0.0,0.0,0.0,0.0,0.0,0.0,0.0,0.0,0.0,0.0,0.0,0.0,0.0,0.0,0.0,0.0,0.0,0.0,0.0,0.0,0.0,0.0,0.0,0.0,0.0,0.0,0.0,0.0,0.0,0.0,0.0,0.0,0.0,0.0,0.0,0.0,0.0,0.0,0.0,0.0,0.0,0.0,0.0,0.0,0.0,0.0,0.0,0.0,0.0,0.0,0.0,0.0,0.0,0.0,0.0,1.5195,1.5881,1.6558,1.7297,1.7357,1.7374,1.7457,1.724,1.6021,0.0,0.0,0.0,0.0,0.0,0.0,0.0,0.0,0.0,0.0,0.0,0.0,0.0,0.0,0.0,0.0,0.0,0.0,0.0,0.0,0.0,0.0,0.0,0.0,0.0,0.0,0.0,0.0,0.0,0.0,0.0,0.0,0.0,0.0,0.0,0.0,0.0,0.0,0.0,0.0,0.0,1.3206,1.3269,1.3186,1.3032,0.0,0.0,1.3558,1.3972,1.4992,0.0,0.0,0.0,0.0,0.0,0.0,0.0,0.0,0.0,0.0,0.0,0.0,0.0,0.0,0.0,0.0,0.0,0.0,0.0,0.0,0.0,0.0,0.0,0.0,0.0,0.0,0.0,0.0,0.0,0.0,0.0,0.0,0.0,0.0,0.0,0.0,0.0,0.0,0.0,0.0,0.0,0.0,0.0,0.0,0.0,0.0,0.0,0.0,0.0,0.0,0.0,0.0,0.0,0.0,0.0,1.4513,1.5234,1.6788,1.7624,1.7599,1.7605,1.7786,1.8194,1.7843,1.6661,0.0,0.0,0.0,0.0,0.0,0.0,0.0,0.0,0.0,0.0,0.0,0.0,0.0,0.0,0.0,0.0,0.0,0.0,0.0,0.0,0.0,0.0,0.0,0.0,0.0,0.0,0.0,0.0,0.0,0.0,0.0,0.0,0.0,0.0,0.0,0.0,0.0,0.0,0.0,0.0,0.0,0.0,1.5463,1.5027,0.0,0.0,0.0,1.5039,1.5479,0.0,0.0,0.0,0.0,0.0,0.0,0.0,0.0,0.0,0.0,0.0,0.0,0.0,0.0,0.0,0.0,0.0,0.0,0.0,0.0,0.0,0.0,0.0,0.0,0.0,0.0,0.0,0.0,0.0,0.0,0.0,0.0,0.0,0.0,0.0,0.0,0.0,0.0,0.0,0.0,0.0,0.0,0.0,0.0,0.0,0.0,0.0,0.0,0.0,0.0,0.0,0.0,0.0,0.0,0.0,0.0,0.0,1.5536,1.78,1.8715,1.8178,1.814,1.8421,1.8941,1.8647,0.0,0.0,0.0,0.0,0.0,0.0,0.0,0.0,0.0,0.0,0.0,0.0,0.0,0.0,0.0,0.0,0.0,0.0,0.0,0.0,0.0,0.0,0.0,0.0,0.0,0.0,0.0,0.8447,0.0,0.0,0.0,0.0,0.0,0.0,0.0,0.0,0.0,0.0,0.0,0.0,0.0,0.0,1.6358,1.7424,1.7086,1.7191,0.0,0.0,1.6963,1.7725,1.9275,1.9672,0.0,0.0,0.0,0.0,0.0,0.0,0.0,0.0,0.0,0.0,0.0,0.0,0.0,0.0,0.0,0.0,0.0,0.0,0.0,0.0,0.0,0.0,0.0,0.0,0.0,0.0,0.0,0.0,0.0,0.0,0.0,0.0,0.0,0.0,0.0,0.0,0.0,0.0,0.0,0.0,0.0,0.0,0.0,0.0,0.0,0.0,0.0,0.0,0.0,0.0,0.0,0.0,0.0,0.0,1.6081,1.716,1.8849,1.9734,1.9643,1.9643,1.9657,1.9747,1.9874,1.8583,0.0,0.0,0.0,0.0,0.0,0.0,0.0,0.0,0.0,0.0,0.0,0.0,0.0,0.0,0.0,0.0,0.0,0.0,0.0,0.0,0.0,0.0,0.0,0.0,0.0,0.0,0.0,0.0,0.0,0.0,0.0,0.0,0.0,0.0,0.0,0.0,0.0,0.0,0.0,0.0,0.0,1.6794,1.7652,1.8583,1.981,0.0,2.0328,1.9775,2.1504,2.2686,2.2122,1.83,0.0,0.0,0.0,0.0,0.0,0.0,0.0,0.0,0.0,0.0,0.0,0.0,0.0,0.0,0.0,0.0,0.0,0.0,0.0,0.0,0.0,0.0,0.0,0.0,0.0,0.0,0.0,0.0,0.0,0.0,0.0,0.0,0.0,0.0,0.0,0.0,0.0,0.0,0.0,0.0,0.0,0.0,0.0,0.0,0.0,0.0,0.0,0.0,0.0,0.0,0.0,0.0,0.0,1.6858,1.7968,1.9951,2.0794,2.0421,2.0421,2.0396,2.0434,2.0491,1.956,0.0,0.0,0.0,0.0,0.0,0.0,0.0,0.0,0.0,0.0,0.0,0.0,0.0,0.0,0.0,0.0,0.0,0.0,0.0,0.0,0.0,0.0,0.0,0.0,0.0,0.0,0.0,0.0,1.4132,1.4407,1.2866,0.0,0.0,0.0,0.0,0.0,0.0,0.0,0.0,0.0,0.0,1.9315,2.0801,2.1346,0.0,0.0,2.2315,2.1863,2.2583,2.2898,2.2263,1.9981,1.898,0.0,0.0,0.0,0.0,0.0,0.0,0.0,0.0,0.0,0.0,0.0,0.0,0.0,0.0,0.0,0.0,0.0,0.0,0.0,0.0,0.0,0.0,0.0,0.0,0.0,0.0,0.0,0.0,0.0,0.0,0.0,0.0,0.0,0.0,0.0,0.0,0.0,0.0,0.0,0.0,0.0,0.0,0.0,0.0,0.0,0.0,0.0,0.0,0.0,0.0,0.0,0.0,1.7341,1.8544,2.0832,2.1794,2.1356,2.1569,2.1688,2.1661,2.1852,2.1203,0.0,0.0,0.0,0.0,0.0,0.0,0.0,0.0,0.0,0.0,0.0,0.0,0.0,0.0,0.0,0.0,0.0,0.0,0.0,0.0,0.0,0.0,0.0,0.0,0.0,0.0,0.0,0.0,1.5332,1.5384,1.3793,0.0,0.0,0.0,0.0,0.0,0.0,0.0,0.0,0.0,0.0,2.1633,2.2828,2.3131,2.3397,2.3803,2.322,2.2762,2.2929,2.315,2.2745,2.1083,0.0,0.0,0.0,0.0,0.0,0.0,0.0,0.0,0.0,0.0,0.0,0.0,0.0,0.0,0.0,0.0,0.0,0.0,0.0,0.0,0.0,0.0,0.0,0.0,0.0,0.0,0.0,1.3303,0.0,0.0,1.3287,0.0,0.0,0.0,0.0,0.0,0.0,0.0,0.0,0.0,0.0,0.0,0.0,0.0,0.0,0.0,0.0,0.0,0.0,0.0,0.0,0.0,0.0,1.7601,1.8907,2.1445,2.2685,2.2699,2.3303,2.3606,2.3631,2.4248,2.3677,2.1657,0.0,0.0,0.0,0.0,0.0,0.0,0.0,0.0,0.0,0.0,0.0,0.0,0.0,0.0,0.0,0.0,0.0,0.0,0.0,0.0,0.0,0.0,0.0,0.0,0.0,0.0,1.1327,1.2603,1.3967,0.0,0.0,0.0,0.0,0.0,0.0,0.0,0.0,0.0,1.8767,2.1658,2.3391,2.309,2.3451,2.3869,2.3884,2.2868,2.2284,2.2894,2.3967,2.3943,0.0,0.0,0.0,0.0,0.0,0.0,0.0,0.0,0.0,0.0,0.0,0.0,0.0,0.0,0.0,0.0,0.0,0.0,0.0,0.0,0.0,0.0,0.0,0.0,0.0,0.0,0.0,1.6075,1.5627,0.0,0.0,0.0,0.0,0.0,0.0,0.0,0.0,0.0,0.0,0.0,2.0645,2.1097,0.0,0.0,0.0,0.0,0.0,0.0,0.0,0.0,0.0,0.0,0.0,0.0,1.8897,2.0224,2.3106,2.4433,2.403,2.4244,2.4369,2.4369,2.4581,2.3961,2.2431,0.0,0.0,0.0,0.0,0.0,0.0,0.0,0.0,0.0,0.0,0.0,0.0,0.0,0.0,0.0,0.0,0.0,0.0,0.0,0.0,0.0,0.0,0.0,0.0,0.0,1.418,0.0,0.0,0.0,0.0,0.0,0.0,0.0,0.0,0.0,0.0,1.7411,1.9561,2.1345,2.2533,2.345,2.4155,2.4844,2.5538,0.0,0.0,0.0,0.0,0.0,0.0,0.0,0.0,0.0,0.0,0.0,0.0,0.0,2.2317,2.1766,1.8157,1.7783,1.8065,1.808,0.0,0.0,0.0,0.0,0.0,0.0,0.0,0.0,0.0,0.0,0.0,0.0,0.0,0.0,1.8973,1.8162,1.8752,0.0,0.0,0.0,0.0,0.0,0.0,0.0,0.0,2.2492,2.3565,2.3831,2.4248,2.4014,2.314,2.2329,2.0769,0.0,0.0,0.0,0.0,0.0,0.0,0.0,0.0,2.0446,2.1783,2.4918,2.6382,2.6019,2.6007,2.602,2.602,2.583,2.5408,2.4726,2.3524,2.2188,0.0,0.0,0.0,0.0,0.0,0.0,0.0,0.0,0.0,0.0,0.0,0.0,0.0,0.0,0.0,0.0,0.0,0.0,0.0,0.0,0.0,0.0,0.0,1.5709,0.0,0.0,0.0,0.0,0.0,0.0,0.0,0.0,0.0,1.7602,2.0063,2.2457,2.388,2.443,2.4696,2.4777,0.0,0.0,0.0,0.0,0.0,0.0,0.0,2.2515,2.2437,2.2186,2.2297,2.3249,2.4474,2.5233,2.4863,0.0,0.0,2.1559,2.1093,2.135,2.135,2.1132,2.0988,2.1218,2.1261,2.1277,0.0,0.0,0.0,0.0,2.0888,0.0,0.0,0.0,2.2723,2.1975,0.0,2.2517,0.0,0.0,0.0,0.0,2.0499,2.2019,0.0,0.0,2.7248,2.7909,2.7352,2.7286,2.7282,2.7218,2.6319,2.5459,2.4566,2.1653,1.924,0.0,0.0,0.0,0.0,0.0,2.215,2.3561,2.6748,2.8431,2.8414,2.8466,2.8496,2.848,2.7938,2.7898,2.8363,2.6139,2.5084,2.5459,2.0559,0.0,0.0,0.0,0.0,0.0,0.0,0.0,0.0,0.0,0.0,0.0,0.0,0.0,0.0,0.0,0.0,0.0,0.0,0.0,0.0,1.676,0.0,0.0,0.0,0.0,0.0,0.0,0.0,0.0,0.0,2.2651,2.0319,2.2342,2.4661,2.6195,0.0,0.0,0.0,0.0,2.5128,2.2908,2.2536,2.244,2.1935,2.3728,2.5162,2.5119,0.0,0.0,2.6363,2.616,2.5956,2.4768,2.6594,2.7455,2.568,2.4397,2.3631,2.3569,2.3165,2.2851,2.3349,2.3843,2.4003,2.872,0.0,0.0,0.0,0.0,2.602,2.6359,2.7263,2.7014,2.613,2.4843,2.5633,0.0,0.0,0.0,0.0,0.0,0.0,2.5463,2.7401,2.8211,2.9248,3.0446,2.9634,2.928,2.9248,2.875,2.8417,2.8142,2.7572,2.4354,1.8679,0.0,0.0,0.0,0.0,2.4416,2.5805,2.797,2.9108,2.9102,2.9153,2.915,2.9134,2.8989,2.8973,2.9134,2.843,2.7283,2.5656,2.4103,0.0,0.0,0.0,0.0,0.0,0.0,0.0,0.0,0.0,0.0,0.0,0.0,0.0,0.0,0.0,0.0,0.0,0.0,0.0,1.4327,1.7786,1.9052,0.0,0.0,0.0,0.0,0.0,0.0,0.0,0.0,0.0,2.5014,2.5275,2.5538,0.0,0.0,2.4926,2.351,2.5524,2.7134,2.6996,2.7397,0.0,2.9392,2.8217,2.7668,2.9086,3.0176,3.051,2.954,3.0099,3.0555,3.0197,3.035,3.0141,2.9215,2.8353,2.7775,2.7775,2.764,2.7579,2.7735,2.7855,2.788,3.432,3.2502,3.0642,3.013,3.0528,3.0125,3.0525,3.1463,3.1249,3.0355,2.9116,3.0051,2.861,2.5389,2.4803,0.0,0.0,0.0,2.8021,3.0198,3.0201,3.0781,3.172,3.1101,3.0687,3.0518,3.0195,3.0196,3.0456,3.0088,2.7632,2.3209,0.0,2.2577,2.2708,2.506,2.6756,2.7871,2.9325,3.0107,3.0123,2.987,2.9635,2.939,2.9406,2.9518,2.9739,2.9761,2.9158,2.7869,2.6679,2.5161,0.0,0.0,0.0,0.0,0.0,0.0,0.0,0.0,0.0,0.0,0.0,1.6051,1.3991,0.0,0.0,0.0,1.7529,1.7362,1.7181,1.9744,0.0,0.0,0.0,0.0,0.0,0.0,0.0,2.2306,2.5766,2.8214,2.8217,2.8204,2.8135,2.8006,2.7902,2.7462,2.6471,0.0,2.9775,2.977,2.9851,3.032,3.1482,3.0433,3.0068,3.175,3.2541,3.264,3.2038,3.2693,3.3259,3.299,3.2437,3.1801,3.1389,3.0805,3.0148,2.9684,2.9621,2.9621,2.9621,2.9621,2.9621,3.8854,3.8432,3.4079,3.2721,3.3373,3.3524,3.4112,3.4977,3.5012,3.4314,3.3277,3.4916,3.2907,2.8231,2.6866,0.0,3.0754,3.0321,3.1317,3.3409,3.2973,3.2526,3.2106,3.2071,3.1849,3.1502,3.1216,3.1446,3.2021,3.0599,2.9786,2.9639,2.8923,2.8067,2.7191,2.8164,2.9093,2.9813,3.0767,3.1263,3.1275,3.0742,3.0151,2.9563,2.954,2.9805,3.0335,3.0372,3.0638,3.1086,2.8552,2.7046,2.6944,0.0,0.0,0.0,0.0,0.0,0.0,0.0,0.0,0.0,0.0,0.0,0.0,0.0,0.0,2.0997,2.2968,0.0,2.3117,2.2491,0.0,0.0,0.0,2.2441,2.3796,2.5922,2.7215,2.7182,0.0,0.0,3.0567,3.1159,3.1883,3.2722,3.2847,3.2562,3.18,3.2394,3.272,3.1634,3.098,3.0643,3.1439,3.1967,3.2785,3.3686,3.4415,3.4638,3.3998,3.4324,3.4542,3.4069,3.3319,3.2882,3.2866,3.2356,3.1456,3.031,2.9916,2.9774,2.9819,2.9849,2.9879,4.0157,3.9515,3.8389,3.7468,3.6741,3.6775,3.6394,3.5794,3.6128,3.5776,3.5024,3.5781,3.5428,3.4206,3.3862,3.4132,3.4867,3.4751,3.5001,3.5517,3.5085,3.481,3.4694,3.4339,3.4111,3.4022,3.4297,3.4531,3.4691,3.4664,3.3994,3.2771,3.2534,3.0912,2.8018,2.921,3.0525,3.1803,3.1704,3.1794,3.2026,3.1901,3.1472,3.0794,3.076,3.0838,3.0975,3.0978,3.1072,3.1173,3.0514,3.0042,2.9851,2.504,0.0,0.0,0.0,0.0,0.0,0.0,0.0,0.0,0.0,1.8821,1.5791,0.0,1.9939,0.0,2.5925,2.7433,2.4718,2.6305,0.0,0.0,2.5946,2.604,2.7657,2.9273,3.0275,3.0296,3.2281,3.3837,3.4359,3.458,3.5176,3.6367,3.4186,3.2252,3.1819,3.3585,3.4741,3.4307,3.5025,3.6119,3.6427,3.7049,3.6852,3.6151,3.6605,3.6809,3.6147,3.6142,3.6244,3.6029,3.5501,3.5101,3.4988,3.4884,3.4254,3.3008,3.183,3.1047,3.1047,3.1017,3.1032,4.0838,4.0432,4.0432,4.001,3.9267,3.8558,3.7863,3.7228,3.7481,3.7358,3.6968,3.689,3.6835,3.6813,3.6464,3.6285,3.6285,3.6285,3.6285,3.627,3.6042,3.5805,3.5596,3.5332,3.5096,3.4924,3.5365,3.563,3.5645,3.6054,3.5826,3.4908,3.4908,3.3652,3.126,3.0751,3.077,3.1194,3.1807,3.2543,3.3419,3.3272,3.2544,3.1301,3.1278,3.095,3.0212,3.0433,3.0295,2.9678,2.9644,2.9574,2.9419,2.6237,2.4567,0.0,0.0,0.0,0.0,0.0,0.0,0.0,0.0,0.0,0.0,0.0,2.2254,2.3381,2.7895,2.9672,2.6945,2.867,2.989,2.9748,2.9618,3.0073,3.1402,3.2866,3.3761,3.3803,3.5191,3.6288,3.6695,3.6746,3.7146,3.8227,3.6626,3.5183,3.5092,3.6224,3.6999,3.6812,3.7335,3.7921,3.8374,3.845,3.819,3.7508,3.7822,3.8058,3.7392,3.7548,3.7701,3.7319,3.6699,3.6267,3.6224,3.5959,3.5491,3.4786,3.372,3.264,3.1685,3.1496,3.1496,4.1368,4.126,4.1242,4.1187,4.0985,3.9606,3.8964,3.8854,3.8744,3.8707,3.867,3.7955,3.7658,3.7603,3.6909,3.6597,3.6615,3.6615,3.6615,3.6597,3.6597,3.6398,3.6017,3.6001,3.5788,3.5399,3.5786,3.5983,3.6001,3.6413,3.6519,3.6303,3.6285,3.5771,3.4642,3.2351,3.0816,3.008,3.1818,3.3328,3.4552,3.3982,3.279,3.1079,3.1132,3.0542,2.9099,2.9551,2.9273,2.8097,2.8024,2.8123,2.8341,2.7441,2.6752,0.0,2.4877,0.0,0.0,0.0,0.0,0.0,0.0,0.0,0.0,2.5386,2.5661,2.6034,2.9688,3.147,3.0118,3.0898,3.1857,3.2824,3.3421,3.4051,3.475,3.6045,3.6981,3.7083,3.7635,3.8058,3.8176,3.8193,3.8447,3.8988,3.8988,3.8768,3.9006,3.8922,3.8947,3.9043,3.8497,3.8318,3.829,3.8218,3.8213,3.8185,3.8625,3.8817,3.8275,3.8664,3.8913,3.8306,3.7753,3.7301,3.7235,3.6787,3.6357,3.6152,3.5439,3.4277,3.2442,3.1771,3.1611,4.2671,4.2084,4.2084,4.1699,4.1077,4.0765,4.0286,3.9625,3.8982,3.8707,3.8707,3.8542,3.8469,3.8469,3.8303,3.8233,3.8248,3.8248,3.8248,3.8248,3.8248,3.82,3.8123,3.8104,3.8073,3.7992,3.8073,3.8104,3.8104,3.82,3.7588,3.6321,3.6285,3.5202,3.317,0.0,0.0,0.0,3.3489,3.3693,3.2941,3.159,3.0317,2.9187,2.9935,0.0,2.9662,2.9894,2.992,2.9669,2.9634,0.0,0.0,0.0,0.0,0.0,0.0,0.0,0.0,0.0,0.0,0.0,2.8749,2.8294,2.8142,2.9859,3.1039,3.121,3.3136,3.4794,3.5779,3.568,3.5749,3.62,3.6514,3.6603,3.6463,3.7161,3.7905,3.8514,3.87,3.9005,3.9537,3.969,3.9723,3.9825,3.9893,3.9893,3.9893,3.9843,3.9859,3.985,3.9653,3.9627,3.9653,3.9601,3.9506,3.9705,3.9731,3.98,3.9716,3.9758,3.9884,3.9656,3.9573,3.9438,3.9379,3.9362,3.8718,3.7788,3.6924,3.5784,3.3724,3.2807,3.2231,4.3259,4.2892,4.2892,4.2653,0.0,4.1864,4.146,4.1001,3.9808,3.9074,3.8707,3.8707,3.8707,3.8707,3.8707,3.8707,3.8707,3.8707,3.8707,3.8707,3.8707,3.8707,3.8707,3.8707,3.8707,3.8707,3.8707,3.8707,3.8707,3.8707,3.8285,3.7496,3.7477,3.6853,3.5665,3.6028,3.5725,3.4699,3.5114,3.5405,3.5525,3.451,3.3248,3.1853,3.2317,0.0,0.0,0.0,0.0,0.0,0.0,0.0,0.0,3.0698,3.069,3.2637,3.0705,3.0265,3.1942,3.1636,3.2201,3.4179,3.4344,3.3488,3.1497,3.3195,3.4559,3.4986,3.5779,3.664,3.7569,3.7433,3.7327,3.7358,3.7447,3.746,3.743,3.8007,3.8565,3.8979,3.9334,3.9706,4.0045,4.0113,4.0113,4.0113,4.0113,4.0265,4.051,4.0333,4.0113,4.0113,4.0113,4.0113,4.0113,4.0113,4.0282,4.051,4.0646,4.0798,4.1128,4.1196,4.1111,4.0773,4.0646,4.045,3.9651,3.9532,3.9163,3.8139,3.727,3.6349,3.4893,3.38,3.2967,4.3479,4.3479,4.3479,4.3479,4.3424,4.2782,4.2433,4.2213,4.0744,0.0,0.0,3.8927,3.8854,3.8707,3.8707,3.8707,3.8707,3.8707,3.8781,3.8909,3.8781,3.8781,3.8909,3.8781,3.8707,3.8707,3.8707,3.8707,3.8707,3.8707,3.8707,3.8707,3.8707,3.8707,3.8707,3.8707,3.8077,3.6844,3.6342,3.6721,3.7991,3.7355,3.6199,3.4577,3.4814,3.4261,3.2833,3.3264,3.3022,3.1916,3.1881,3.2047,3.2324,3.2416,3.3252,3.4938,3.4277,3.4718,3.6853,3.6178,3.6527,3.8579,3.8707,3.7554,3.4834,3.594,3.7,3.7658,3.7747,3.7838,3.8073,3.8061,3.7943,3.7727,3.7741,3.7871,3.8095,3.8734,3.9191,3.9242,3.9698,4.0163,4.0299,4.0333,4.0367,4.0485,4.062,4.0671,4.117,4.0976,4.0637,4.0637,4.0705,4.057,4.0519,4.0587,4.0756,4.1305,4.139,4.1627,4.2117,4.2303,4.2049,4.1491,4.139,4.0831,3.9642,3.9325,3.8848,3.8097,3.7294,3.6498,3.5851,3.476,3.383,4.3479,4.3479,4.3479,4.3479,4.3479,4.3386,4.2928,4.2231,4.1315,4.0487,3.9717,3.9735,3.935,3.8707,3.8707,3.8707,3.8707,3.8707,3.9074,3.968,3.9019,3.9074,3.9677,3.9038,3.8707,3.8707,3.8707,3.8707,3.8707,3.8707,3.8707,3.8707,3.8707,3.8707,3.8707,3.8707,3.8689,3.8645,3.6436,3.5363,3.5584,3.4192,3.3231,3.2839,3.3652,3.383,3.3399,3.3648,3.367,3.349,3.3741,3.4504,3.587,3.6171,3.7016,3.8281,3.8271,3.8271,3.839,3.8245,3.8322,3.867,3.8707,3.849,3.8068,3.8215,3.8432,3.8527,3.8631,3.8813,3.8833,3.8636,3.8442,3.8446,3.8636,3.8798,3.8836,3.9445,3.9926,3.996,4.0011,4.04,4.0933,4.1052,4.1255,4.1779,4.183,4.1999,4.2066,4.2049,4.1982,4.1982,4.1982,4.1982,4.1813,4.1965,4.1948,4.21,4.2134,4.2202,4.2465,4.2489,4.2388,4.2151,4.2151,4.1722,4.0816,4.0275,3.9548,3.8667,3.7487,3.6567,3.6307,3.5625,3.4786,4.3479,4.3479,4.3479,4.3479,4.3479,4.3479,4.3294,4.291,4.2561,4.1699,4.0561,4.0084,3.968,3.935,3.935,3.935,3.9368,3.9808,4.0212,4.0506,4.0175,4.0178,4.0451,3.9717,3.9331,3.9331,3.8909,3.8707,3.8707,3.8707,3.8707,3.8707,3.8707,3.8707,3.8741,3.9302,3.9672,3.9764,3.8001,3.7108,3.7243,3.6408,3.5936,3.5831,3.6256,3.6406,3.6318,3.6424,3.645,3.6468,3.6732,3.7243,3.7951,3.8329,3.8742,3.932,3.9199,3.9031,3.8937,3.9178,3.9166,3.8762,3.9111,3.935,3.9331,3.8946,3.8745,3.8849,3.8938,3.8939,3.8795,3.8684,3.8669,3.8813,3.8938,3.9165,3.9554,3.9859,4.0265,4.0612,4.0696,4.0984,4.1711,4.1796,4.188,4.2269,4.2591,4.2878,4.2929,4.325,4.32,4.2506,4.2286,4.2286,4.232,4.2303,4.2455,4.2811,4.2895,4.3081,4.3386,4.3532,4.3362,4.2997,4.2912,4.2393,4.139,4.0491,3.9608,3.8381,3.7373,3.6558,3.6095,3.5701,3.5297,4.3479,4.3479,4.3479,4.3529,4.3614,4.3531,4.358,4.3728,4.358,4.2832,4.1738,4.0811,4.0341,4.0175,4.0157,4.0175,4.0265,4.0896,4.1248,4.135,4.1282,4.1282,4.1295,4.0543,4.0175,4.0084,3.9368,3.8982,3.8964,3.8799,3.8817,3.8946,3.8964,3.9056,3.9258,4.0108,4.0631,4.0712,3.9841,3.94,3.9498,3.93,3.9106,3.8921,3.8796,3.8788,3.8773,3.8735,3.8827,3.9061,3.9342,3.9531,3.9621,3.9833,3.9868,3.9625,3.9295,3.9165,3.9291,3.9663,3.9717,3.9313,3.9808,4.0175,4.012,3.9625,3.9298,3.944,3.9446,3.9316,3.9153,3.9007,3.9014,3.9231,3.9266,3.9462,3.9994,4.0231,4.0527,4.1102,4.1339,4.1728,4.2337,4.254,4.2658,4.2912,4.3318,4.3639,4.3758,4.4231,4.4005,4.3278,4.2811,4.2895,4.2811,4.2888,4.3115,4.3623,4.3646,4.391,4.4344,4.4547,4.4367,4.3809,4.369,4.3166,4.1976,4.1079,4.0011,3.8717,3.7749,3.6859,3.6007,3.5642,3.5504,4.3533,4.3479,4.3551,4.3677,4.3927,4.3646,4.3884,4.435,4.3825,4.3623,4.3522,4.256,4.1662,4.104,4.1001,4.0985,4.1034,4.1371,4.1822,4.213,4.1742,4.1801,4.2101,4.1387,4.0967,4.0893,4.0175,3.9772,3.9735,3.9111,3.9093,3.9717,3.979,4.012,4.0799,4.0976,4.1345,4.1914,4.1543,4.1146,4.0764,4.0714,4.0313,3.9536,3.9218,3.9077,3.9063,3.8829,3.9183,4.0151,4.0528,4.0848,4.1047,4.1128,4.0693,3.9698,3.9314,3.9296,3.9752,3.9895,4.0212,4.0802,4.0912,4.0983,4.0985,4.0912,4.0893,4.0859,4.0629,4.0377,4.0401,4.0095,3.9915,3.9985,4.0011,4.0028,4.0248,4.0696,4.1136,4.1187,4.1847,4.2472,4.3149,4.3318,4.3572,4.4073,4.4198,4.4316,4.435,4.4462,4.4581,4.4361,4.4344,4.4293,4.4242,4.4361,4.4259,4.4384,4.4434,4.4496,4.4564,4.4598,4.453,4.435,4.4367,4.3979,4.3307,4.2509,4.1457,3.9977,3.8913,3.7995,3.6758,3.6013,3.5699,4.4911,4.4891,4.4633,4.4448,4.4327,4.4194,4.4327,4.454,4.428,4.4091,4.3949,4.3497,4.2754,4.1846,4.1792,4.1827,4.1879,4.2644,4.3002,4.3033,4.2996,4.3021,4.2907,4.2176,4.1809,4.1754,4.1001,4.06,4.0561,4.0286,4.027,4.0579,4.0616,4.0799,4.113,4.1773,4.2342,4.2806,4.3384,4.3411,4.2867,4.206,4.1201,4.0441,4.022,3.9908,3.9452,3.9288,3.9681,4.061,4.0984,4.1419,4.2037,4.2026,4.1521,4.0453,3.9862,3.9681,3.9898,4.0763,4.1258,4.1132,4.1535,4.1792,4.1809,4.1809,4.1974,4.2295,4.1348,4.0651,4.0761,4.0391,4.0282,4.0629,4.0747,4.0899,4.1382,4.166,4.1982,4.2439,4.276,4.325,4.391,4.4113,4.4248,4.4564,4.4598,4.4598,4.4598,4.4598,4.4598,4.4598,4.4598,4.4598,4.4598,4.4598,4.4598,4.4598,4.4598,4.4598,4.4598,4.4598,4.4598,4.4598,4.4598,4.4497,4.4174,4.3393,4.246,4.1227,3.9643,3.847,3.7881,3.7192,3.6637,4.6232,4.6153,4.5609,4.5251,4.5041,4.4726,4.4707,4.4837,4.4682,4.4487,4.4285,4.4087,4.355,4.2834,4.2665,4.2635,4.274,4.359,4.3818,4.3563,4.3833,4.3802,4.344,4.2928,4.2635,4.2488,4.1809,4.1297,4.115,4.1113,4.1205,4.137,4.1425,4.1583,4.1931,4.276,4.3343,4.3811,4.4684,4.4947,4.4525,4.3623,4.2582,4.1592,4.1173,4.0806,4.0454,4.0129,4.0499,4.1662,4.1916,4.2335,4.2986,4.2864,4.22,4.1091,4.0511,4.0322,4.0543,4.1644,4.2158,4.1864,4.2323,4.2635,4.2635,4.2635,4.2873,4.3244,4.2276,4.164,4.1639,4.1078,4.0983,4.164,4.163,4.1745,4.2185,4.2422,4.2794,4.3308,4.3555,4.3927,4.4445,4.4564,4.4581,4.4581,4.4598,4.4598,4.4598,4.4598,4.4598,4.4598,4.4598,4.4598,4.4598,4.4598,4.4598,4.4598,4.4598,4.4598,4.4598,4.4598,4.4598,4.4598,4.4598,4.457,4.444,4.3881,4.3386,4.2433,4.0934,3.931,3.8907,3.8272,3.7533,4.7051,4.6957,4.6145,4.5963,4.6142,4.5079,4.4977,4.5448,4.4877,4.4776,4.4877,4.4318,4.3964,4.3847,4.35,4.3406,4.3474,4.3812,4.3818,4.3546,4.3833,4.3836,4.3496,4.3442,4.3441,4.3294,4.2665,4.1917,4.1242,4.1187,4.148,4.2213,4.2249,4.2779,4.3593,4.3781,4.4298,4.4863,4.5047,4.5234,4.5463,4.5405,4.4533,4.3105,4.1925,4.1702,4.2169,4.14,4.1742,4.3649,4.368,4.3857,4.4122,4.3588,4.2573,4.132,4.1071,4.1352,4.1992,4.2268,4.2598,4.3203,4.3294,4.3423,4.3314,4.3314,4.3369,4.3479,4.3541,4.3592,4.3517,4.2542,4.2247,4.2888,4.2569,4.2339,4.2371,4.3047,4.3318,4.3555,4.4045,4.4445,4.4581,4.4598,4.4598,4.4598,4.4598,4.4598,4.4598,4.4598,4.4598,4.4598,4.4598,4.4598,4.4598,4.4598,4.4598,4.4598,4.4598,4.4598,4.4598,4.4598,4.4598,4.4598,4.4598,4.4598,4.457,4.4384,4.4047,4.3168,4.1947,4.0722,4.0065,3.9178,3.8341,4.8448,4.8112,4.7263,4.6813,4.657,4.5647,4.5371,4.5549,4.5371,4.5171,4.5041,4.4574,4.4233,4.3967,4.3646,4.3479,4.3531,4.3849,4.3836,4.3563,4.3833,4.3836,4.3529,4.3728,4.3712,4.3493,4.3414,4.3137,4.2688,4.2635,4.2763,4.3019,4.3057,4.3402,4.3903,4.4016,4.4373,4.503,4.5115,4.5272,4.5568,4.5594,4.5267,4.472,4.3728,4.3107,4.2935,4.2527,4.2891,4.4105,4.4143,4.4458,4.4926,4.3969,4.288,4.2014,4.1864,4.1992,4.2323,4.2817,4.3167,4.3441,4.3479,4.3479,4.3479,4.3479,4.3479,4.3591,4.4089,4.4434,4.4358,4.3543,4.3007,4.3218,4.3158,4.32,4.3673,4.4012,4.4147,4.4198,4.4434,4.4581,4.4598,4.4598,4.4598,4.4598,4.4598,4.4598,4.4598,4.4598,4.4598,4.4598,4.4598,4.4598,4.4598,4.4598,4.4598,4.4598,4.4598,4.4598,4.4598,4.4598,4.4598,4.4598,4.4598,4.4598,4.457,4.457,4.4281,4.3997,4.2742,4.1754,4.1261,4.0236,3.9189,4.97,4.9304,4.8463,4.7776,4.7212,4.6394,4.5864,4.5633,4.5594,4.5419,4.5074,4.4751,4.4373,4.3986,4.3664,4.3479,4.3513,4.3724,4.371,4.3548,4.3833,4.3881,4.374,4.4016,4.4076,4.3915,4.4076,4.408,4.3871,4.371,4.3726,4.3852,4.3726,4.3896,4.4257,4.4373,4.4676,4.518,4.5272,4.539,4.5577,4.5594,4.5594,4.5518,4.5037,4.4489,4.3893,4.3643,4.3874,4.4566,4.4701,4.4889,4.5129,4.4284,4.3404,4.2803,4.269,4.269,4.2727,4.3203,4.3496,4.3479,4.3479,4.3479,4.3479,4.3479,4.3589,4.3956,4.4617,4.5131,4.4974,4.4594,4.4252,4.4082,4.3895,4.3995,4.4513,4.4581,4.4581,4.4547,4.4564,4.4598,4.4598,4.4598,4.4598,4.4598,4.4598,4.4598,4.4598,4.4598,4.4598,4.4598,4.4598,4.4598,4.4598,4.4598,4.4598,4.4598,4.4598,4.4598,4.4598,4.4598,4.4598,4.4598,4.4598,4.4598,4.4598,4.4598,4.4542,4.4497,4.3626,4.2467,4.1885,4.1266,4.0388,5.0654,5.0471,4.974,4.8837,4.8048,4.7163,4.6374,4.5787,4.5614,4.5429,4.5148,4.4769,4.4447,4.4031,4.371,4.3513,4.3496,4.3529,4.3512,4.3512,4.3849,4.4001,4.3986,4.4387,4.458,4.454,4.4567,4.4567,4.4487,4.4194,4.4175,4.4433,4.418,4.4346,4.5044,4.5019,4.5211,4.5475,4.554,4.5577,4.5594,4.5594,4.5594,4.5594,4.5537,4.546,4.546,4.472,4.4682,4.5383,4.5518,4.5264,4.4762,4.4511,4.421,4.3537,4.3442,4.346,4.3424,4.346,4.3479,4.3479,4.3479,4.3479,4.3479,4.3497,4.3791,4.4525,4.526,4.5671,4.5379,4.5729,4.5828,4.5502,4.476,4.4513,4.4564,4.4598,4.4598,4.4598,4.4598,4.4598,4.4598,4.4598,4.4598,4.4598,4.4598,4.4598,4.4598,4.4598,4.4598,4.4598,4.4598,4.4598,4.4598,4.4598,4.4598,4.4598,4.4598,4.4598,4.4598,4.4598,4.4598,4.4598,4.4598,4.4598,4.4598,4.4598,4.4598,4.4412,4.3651,4.3108,4.2599,4.2078,4.1804,5.0683,5.0596,4.976,4.926,4.8798,4.7509,4.6721,4.6432,4.5874,4.555,4.5381,4.5096,4.4745,4.4392,4.4016,4.371,4.3496,4.3479,4.3479,4.3546,4.3849,4.4031,4.4132,4.4651,4.4943,4.4908,4.4714,4.4593,4.4593,4.4474,4.4501,4.454,4.4487,4.4657,4.5066,4.5126,4.5282,4.5559,4.5594,4.5594,4.5594,4.5594,4.5594,4.5594,4.5594,4.5594,4.5575,4.5316,4.5325,4.5594,4.5594,4.5293,4.4745,4.4593,4.4237,4.3614,4.3479,4.3479,4.3479,4.3479,4.3479,4.3479,4.3479,4.3479,4.3479,4.3516,4.3883,4.4654,4.5406,4.5704,4.5463,4.5947,4.5954,4.4981,4.4737,4.4598,4.4598,4.4598,4.4598,4.4598,4.4598,4.4598,4.4598,4.4598,4.4598,4.4598,4.4598,4.4598,4.4598,4.4598,4.4598,4.4598,4.4598,4.4598,4.4598,4.4598,4.4598,4.4598,4.4598,4.4598,4.4598,4.4598,4.4598,4.4598,4.4598,4.4598,4.4598,4.4598,4.4598,4.4384,4.3785,4.3472,4.3246,4.2878,4.2442,5.0683,5.0635,5.0106,4.9663,4.9317,4.8221,4.7471,4.6894,4.6336,4.5829,4.5448,4.5201,4.4938,4.4567,4.4175,4.3896,4.3695,4.3582,4.3479,4.358,4.4016,4.4204,4.4318,4.4966,4.5292,4.5253,4.5066,4.4977,4.4966,4.4861,4.4842,4.4954,4.4861,4.4954,4.5253,4.5302,4.5391,4.5577,4.5594,4.5594,4.5594,4.5594,4.5594,4.5594,4.5594,4.5594,4.5594,4.5594,4.5594,4.5594,4.5594,4.5292,4.467,4.458,4.4266,4.3662,4.3479,4.3479,4.3479,4.3479,4.3479,4.3479,4.3479,4.3479,4.3534,4.3681,4.4305,4.5076,4.5902,4.6238,4.6153,4.6187,4.5922,4.5062,4.4748,4.4626,4.4598,4.4598,4.4598,4.4598,4.4598,4.4598,4.4598,4.4598,4.4598,4.4598,4.4598,4.4598,4.4598,4.4598,4.4598,4.4598,4.4598,4.4598,4.4598,4.4598,4.4598,4.4598,4.4598,4.4598,4.4598,4.4598,4.4598,4.4598,4.4598,4.4598,4.4598,4.4598,4.457,4.4196,4.3977,4.3756,4.3515,4.3139,4.2847,5.0683,5.0683,5.0693,5.0212,4.9567,4.9317,4.8471,4.7259,4.6981,4.6417,4.5585,4.5573,4.5194,4.4751,4.4651,4.4416,4.3977,4.4042,4.3731,4.3804,4.4277,4.4704,4.4726,4.5253,4.5541,4.5559,4.5522,4.5531,4.5476,4.5262,4.5273,4.5457,4.5272,4.5282,4.5504,4.5605,4.5568,4.5586,4.5594,4.5594,4.5594,4.5594,4.5594,4.5594,4.5594,4.5594,4.5594,4.5594,4.5594,4.5594,4.5594,4.5293,4.4745,4.4593,4.4266,4.3563,4.3479,4.3479,4.3479,4.3479,4.3479,4.3479,4.3479,4.3534,4.3718,4.4232,4.4966,4.5865,4.6599,4.7046,4.6993,4.672,4.607,4.5468,4.4879,4.4626,4.4598,4.4598,4.4598,4.4598,4.4598,4.4598,4.4598,4.4598,4.4598,4.4598,4.4598,4.4598,4.4598,4.4598,4.4598,4.4598,4.4598,4.4598,4.4598,4.4598,4.4598,4.4598,4.4598,4.4598,4.4598,4.4598,4.4598,4.4598,4.4598,4.4598,4.4598,4.4598,4.4598,4.444,4.4224,4.4018,4.3798,4.3515,4.3456,5.0683,5.0683,5.0683,5.0558,5.0269,4.9702,4.9163,4.8663,4.8048,4.7559,4.729,4.73,4.6689,4.5978,4.6358,4.5744,4.4692,4.5204,4.4761,4.3869,4.4897,4.5218,4.5084,4.539,4.5633,4.5633,4.5633,4.5594,4.5586,4.5495,4.5523,4.5586,4.5504,4.5495,4.5586,4.5594,4.5594,4.5594,4.5594,4.5594,4.5594,4.5594,4.5594,4.5594,4.5594,4.5594,4.5594,4.5594,4.5594,4.5594,4.5594,4.5283,4.4701,4.458,4.4266,4.3629,4.3479,4.3479,4.3479,4.3479,4.3479,4.3479,4.3479,4.3772,4.436,4.458,4.5388,4.6397,4.7002,4.7001,4.6735,4.6501,4.5915,4.5052,4.4692,4.4598,4.4598,4.4598,4.4598,4.4598,4.4598,4.4598,4.4598,4.4598,4.4598,4.4598,4.4598,4.4598,4.4598,4.4598,4.4598,4.4598,4.4598,4.4598,4.4598,4.4598,4.4598,4.4598,4.4598,4.4598,4.4598,4.4598,4.4598,4.4598,4.4598,4.4598,4.4598,4.4598,4.4598,4.4598,4.4497,4.431,4.4367,4.4224,4.415,5.0683,5.0683,5.0683,5.0683,5.0635,5.0144,4.974,4.9356,4.8894,4.8413,4.8163,4.8096,4.7722,4.7141,4.7406,4.687,4.5765,4.6373,4.6049,4.5447,4.6127,4.6271,4.6019,4.6079,4.6144,4.6086,4.5787,4.5614,4.5594,4.5594,4.5594,4.5594,4.5594,4.5594,4.5594,4.5594,4.5594,4.5594,4.5594,4.5594,4.5594,4.5594,4.5594,4.5594,4.5594,4.5594,4.5594,4.5594,4.5594,4.5594,4.5577,4.5293,4.4682,4.4593,4.4252,4.3563,4.3479,4.3479,4.3479,4.3479,4.3479,4.3479,4.3479,4.3901,4.4562,4.4984,4.581,4.6837,4.7333,4.7306,4.6834,4.6359,4.5622,4.4841,4.4598,4.4598,4.4598,4.4598,4.4598,4.4598,4.4598,4.4598,4.4598,4.4598,4.4598,4.4598,4.4598,4.4598,4.4598,4.4598,4.4598,4.4598,4.4598,4.4598,4.4598,4.4598,4.4598,4.4598,4.4598,4.4598,4.4598,4.4598,4.4598,4.4598,4.4598,4.4598,4.4598,4.4598,4.4598,4.4598,4.4598,4.4598,4.4598,4.4598,4.4598,5.0683,5.0683,5.0683,5.0683,5.0683,5.0673,5.025,4.9644,4.9548,4.9144,4.8644,4.8432,4.8452,4.8241,4.8262,4.7842,4.7487,4.7567,4.7418,4.7275,4.7521,4.7499,4.7271,4.7039,4.7028,4.6932,4.621,4.596,4.5941,4.5825,4.5691,4.5633,4.5594,4.5594,4.5594,4.5594,4.5594,4.5594,4.5594,4.5594,4.5594,4.5594,4.5594,4.5594,4.5594,4.5594,4.5594,4.5594,4.5594,4.5594,4.5594,4.5273,4.4745,4.4644,4.4266,4.3728,4.3548,4.3479,4.3479,4.3479,4.3479,4.3497,4.3589,4.3975,4.4837,4.559,4.6397,4.7296,4.7845,4.7609,4.6937,4.6056,4.5284,4.4692,4.4598,4.4598,4.4598,4.4598,4.4598,4.4598,4.4598,4.4598,4.4598,4.4598,4.4598,4.4598,4.4598,4.4598,4.4598,4.4598,4.4598,4.4598,4.4598,4.4598,4.4598,4.4598,4.4598,4.4598,4.4598,4.4598,4.4598,4.4598,4.4598,4.4598,4.4598,4.4598,4.4598,4.4598,4.4598,4.4598,4.4598,4.4598,4.4598,4.4598,4.4598,5.0683,5.0683,5.0683,5.0683,5.0683,5.0693,5.0596,5.0404,5.0385,5.0212,5.0135,5.0087,4.9702,4.9163,4.9537,4.9205,4.8082,4.8729,4.9137,4.8483,4.8562,4.8758,4.8645,4.824,4.7875,4.7778,4.7682,4.7221,4.6778,4.6509,4.6259,4.571,4.5633,4.5594,4.5594,4.5594,4.5594,4.5594,4.5594,4.5594,4.5594,4.5594,4.5594,4.5594,4.5594,4.5594,4.5594,4.5594,4.5594,4.5594,4.5577,4.54,4.5019,4.4739,4.4364,4.3943,4.3612,4.3479,4.3479,4.3479,4.3479,4.3534,4.4048,4.48,4.5571,4.6324,4.7131,4.7771,4.7786,4.7194,4.6161,4.5284,4.4841,4.4637,4.4598,4.4598,4.4598,4.4598,4.4598,4.4598,4.4598,4.4598,4.4598,4.4598,4.4598,4.4598,4.4598,4.4598,4.4598,4.4598,4.4598,4.4598,4.4598,4.4598,4.4598,4.4598,4.4598,4.4598,4.4598,4.4598,4.4598,4.4598,4.4598,4.4598,4.4598,4.4598,4.4598,4.4598,4.4598,4.4598,4.4598,4.4598,4.4598,4.4598,4.4598,5.0683,5.0683,5.0683,5.0683,5.0683,5.0683,5.0683,5.0683,5.0683,5.0683,5.0683,5.0683,5.0423,5.0048,5.0433,4.9969,4.9446,4.9882,5.0139,4.9756,4.974,4.9832,4.9913,4.9529,4.9163,4.8759,4.824,4.7827,4.7481,4.7077,4.6644,4.6182,4.5825,4.5614,4.5594,4.5594,4.5594,4.5594,4.5594,4.5594,4.5594,4.5594,4.5594,4.5594,4.5594,4.5594,4.5594,4.5594,4.5594,4.5594,4.5586,4.5467,4.5118,4.48,4.4433,4.4031,4.3677,4.3513,4.3479,4.3479,4.3479,4.3515,4.4232,4.5039,4.5847,4.6617,4.7424,4.7934,4.7697,4.6905,4.5648,4.4971,4.4637,4.4598,4.4598,4.4598,4.4598,4.4598,4.4598,4.4598,4.4598,4.4598,4.4598,4.4598,4.4598,4.4598,4.4598,4.4598,4.4598,4.4598,4.4598,4.4598,4.4598,4.4598,4.4598,4.4598,4.4598,4.4598,4.4598,4.4598,4.4598,4.4598,4.4598,4.4598,4.4598,4.4598,4.4598,4.4598,4.4598,4.4598,4.4598,4.4598,4.4598,4.4598,4.4598,5.0683,5.0683,5.0683,5.0683,5.0683,5.0683,5.0683,5.0683,5.0683,5.0683,5.0683,5.0683,5.0654,5.0673,5.0654,5.0683,5.0625,5.0596,5.0528,5.0509,5.047,5.0509,5.051,5.0423,5.0154,4.9529,4.9048,4.8606,4.8182,4.7519,4.7077,4.6778,4.6009,4.5633,4.5594,4.5594,4.5594,4.5594,4.5594,4.5594,4.5594,4.5594,4.5594,4.5594,4.5594,4.5594,4.5594,4.5594,4.5594,4.5594,4.5594,4.5438,4.5191,4.48,4.4474,4.4106,4.3742,4.3513,4.3479,4.3479,4.3497,4.3551,4.4433,4.5149,4.5902,4.6782,4.7608,4.7781,4.7593,4.6653,4.5511,4.4906,4.4626,4.4598,4.4598,4.4598,4.4598,4.4598,4.4598,4.4598,4.4598,4.4598,4.4598,4.4598,4.4598,4.4598,4.4598,4.4598,4.4598,4.4598,4.4598,4.4598,4.4598,4.4598,4.4598,4.4598,4.4598,4.4598,4.4598,4.4598,4.4598,4.4598,4.4598,4.4598,4.4598,4.4598,4.4598,4.4598,4.4598,4.4598,4.4598,4.4598,4.4598,4.4598,4.4598,5.0683,5.0683,5.0683,5.0683,5.0683,5.0683,5.0683,5.0683,5.0683,5.0683,5.0683,5.0683,5.0683,5.0683,5.0683,5.0683,5.0683,5.0683,5.0683,5.0683,5.0683,5.0683,5.0683,5.0683,5.0577,5.0539,5.0144,4.974,4.9106,4.8355,4.7635,4.6913,4.6105,4.571,4.5614,4.5594,4.5594,4.5594,4.5594,4.5594,4.5594,4.5594,4.5594,4.5594,4.5594,4.5594,4.5594,4.5594,4.5594,4.5594,4.5594,4.5568,4.54,4.4924,4.4606,4.435,4.382,4.3479,4.3479,4.3479,4.3479,4.3809,4.4782,4.5553,4.6177,4.7131,4.7862,4.7751,4.7154,4.6112,4.4923,4.4682,4.4626,4.4598,4.4598,4.4598,4.4598,4.4598,4.4598,4.4598,4.4598,4.4598,4.4598,4.4598,4.4598,4.4598,4.4598,4.4598,4.4598,4.4598,4.4598,4.4598,4.4598,4.4598,4.4598,4.4598,4.4598,4.4598,4.4598,4.4598,4.4598,4.4598,4.4598,4.4598,4.4598,4.4598,4.4598,4.4598,4.4598,4.4598,4.4598,4.4598,4.4598,4.4598,4.4598,5.0683,5.0683,5.0683,5.0683,5.0683,5.0683,5.0683,5.0683,5.0683,5.0683,5.0683,5.0683,5.0683,5.0683,5.0683,5.0683,5.0683,5.0683,5.0683,5.0683,5.0683,5.0683,5.0683,5.0683,5.0683,5.0673,5.0654,5.0519,5.0029,4.9202,4.8336,4.7519,4.6682,4.6067,4.5691,4.5594,4.5614,4.5614,4.5594,4.5594,4.5594,4.5594,4.5594,4.5594,4.5594,4.5594,4.5594,4.5594,4.5594,4.5594,4.5594,4.5594,4.5448,4.5161,4.4776,4.4533,4.3915,4.3496,4.3496,4.3479,4.3479,4.368,4.4984,4.5792,4.6287,4.7186,4.7904,4.7345,4.6959,4.5915,4.4759,4.4626,4.4598,4.4598,4.4598,4.4598,4.4598,4.4598,4.4598,4.4598,4.4598,4.4598,4.4598,4.4598,4.4598,4.4598,4.4598,4.4598,4.4598,4.4598,4.4598,4.4598,4.4598,4.4598,4.4598,4.4598,4.4598,4.4598,4.4598,4.4598,4.4598,4.4598,4.4598,4.4598,4.4598,4.4598,4.4598,4.4598,4.4598,4.4598,4.4598,4.4598,4.4598,4.4598,4.4598,5.0683,5.0683,5.0683,5.0683,5.0683,5.0683,5.0683,5.0683,5.0683,5.0683,5.0683,5.0683,5.0683,5.0683,5.0683,5.0683,5.0683,5.0683,5.0683,5.0683,5.0683,5.0683,5.0683,5.0683,5.0683,5.0683,5.0683,5.0683,5.0442,4.9702,4.9029,4.8336,4.7538,4.6721,4.6105,4.6009,4.5825,4.5614,4.5594,4.5594,4.5594,4.5594,4.5594,4.5594,4.5594,4.5594,4.5594,4.5594,4.5594,4.5594,4.5594,4.5594,4.5522,4.5222,4.4884,4.4559,4.3962,4.3664,4.3496,4.3479,4.3479,4.357,4.5002,4.5645,4.5989,4.6684,4.7388,4.6501,4.6167,4.5757,4.4786,4.4598,4.4598,4.4598,4.4598,4.4598,4.4598,4.4598,4.4598,4.4598,4.4598,4.4598,4.4598,4.4598,4.4598,4.4598,4.4598,4.4598,4.4598,4.4598,4.4598,4.4598,4.4598,4.4598,4.4598,4.4598,4.4598,4.4598,4.4598,4.4598,4.4598,4.4598,4.4598,4.4598,4.4598,4.4598,4.4598,4.4598,4.4598,4.4598,4.4598,4.4598,4.4598,4.4598,4.4598,5.0683,5.0683,5.0683,5.0683,5.0683,5.0683,5.0683,5.0683,5.0683,5.0683,5.0683,5.0683,5.0683,5.0683,5.0683,5.0683,5.0683,5.0683,5.0683,5.0683,5.0683,5.0683,5.0683,5.0683,5.0683,5.0683,5.0683,5.0683,5.0539,4.9885,4.9394,4.9009,4.8336,4.7509,4.6663,4.6547,4.6355,4.5748,4.5594,4.5594,4.5594,4.5594,4.5594,4.5594,4.5594,4.5594,4.5594,4.5594,4.5594,4.5594,4.5594,4.5594,4.5504,4.4969,4.4726,4.4501,4.4175,4.382,4.3563,4.3479,4.3479,4.3754,4.4984,4.5405,4.5858,4.6151,4.6548,4.5732,4.563,4.5355,4.4786,4.4598,4.4598,4.4598,4.4598,4.4598,4.4598,4.4598,4.4598,4.4598,4.4598,4.4598,4.4598,4.4598,4.4598,4.4598,4.4598,4.4598,4.4598,4.4598,4.4598,4.4598,4.4598,4.4598,4.4598,4.4598,4.4598,4.4598,4.4598,4.4598,4.4598,4.4598,4.4598,4.4598,4.4598,4.4598,4.4598,4.4598,4.4598,4.4598,4.4598,4.4598,4.4598,4.4598,4.4598,5.0683,5.0683,5.0683,5.0683,5.0683,5.0683,5.0683,5.0683,5.0683,5.0683,5.0683,5.0683,5.0683,5.0683,5.0683,5.0683,5.0683,5.0683,5.0683,5.0683,5.0683,5.0683,5.0683,5.0683,5.0683,5.0683,5.0683,5.0683,5.0539,5.0327,4.9952,4.9394,4.8971,4.8105,4.7144,4.6923,4.6374,4.5836,4.5594,4.5594,4.5594,4.5594,4.5594,4.5594,4.5594,4.5594,4.5594,4.5594,4.5594,4.5594,4.5594,4.5594,4.5568,4.5293,4.5044,4.458,4.446,4.408,4.3614,4.3513,4.3497,4.3883,4.4948,4.599,4.6215,4.6229,4.6112,4.5571,4.5511,4.5205,4.4731,4.4598,4.4598,4.4598,4.4598,4.4598,4.4598,4.4598,4.4598,4.4598,4.4598,4.4598,4.4598,4.4598,4.4598,4.4598,4.4598,4.4598,4.4598,4.4598,4.4598,4.4598,4.4598,4.4598,4.4598,4.4598,4.4598,4.4598,4.4598,4.4598,4.4598,4.4598,4.4598,4.4598,4.4598,4.4598,4.4598,4.4598,4.4598,4.4598,4.4598,4.4598,4.4598,4.4598,4.4598,5.0683,5.0683,5.0683,5.0683,5.0683,5.0683,5.0683,5.0683,5.0683,5.0683,5.0683,5.0683,5.0683,5.0683,5.0683,5.0683,5.0683,5.0683,5.0683,5.0683,5.0683,5.0683,5.0683,5.0683,5.0683,5.0683,5.0683,5.0683,5.0683,5.0587,5.0279,4.9721,4.976,4.8779,4.7663,4.7201,4.6797,4.5691,4.5594,4.5594,4.5594,4.5594,4.5594,4.5594,4.5594,4.5594,4.5594,4.5594,4.5594,4.5594,4.5594,4.5568,4.5457,4.5232,4.4912,4.4487,4.4252,4.3974,4.3647,4.3497,4.3606,4.4124,4.4817,4.5985,4.6729,4.6495,4.5833,4.5214,4.5205,4.4971,4.4731,4.4598,4.4598,4.4598,4.4598,4.4598,4.4598,4.4598,4.4598,4.4598,4.4598,4.4598,4.4598,4.4598,4.4598,4.4598,4.4598,4.4598,4.4598,4.4598,4.4598,4.4598,4.4598,4.4598,4.4598,4.4598,4.4598,4.4598,4.4598,4.4598,4.4598,4.4598,4.4598,4.4598,4.4598,4.4598,4.4598,4.4598,4.4598,4.4598,4.4598,4.4598,4.4598,4.4598,4.4598,5.0683,5.0683,5.0683,5.0683,5.0683,5.0683,5.0683,5.0683,5.0683,5.0683,5.0683,5.0683,5.0683,5.0683,5.0683,5.0683,5.0683,5.0683,5.0683,5.0683,5.0683,5.0683,5.0683,5.0683,5.0683,5.0683,5.0683,5.0683,5.0683,5.0683,5.0654,5.0596,5.0385,4.9433,4.8336,4.749,4.6797,4.5845,4.5594,4.5594,4.5594,4.5594,4.5594,4.5594,4.5594,4.5594,4.5594,4.5594,4.554,4.554,4.5522,4.5371,4.515,4.4954,4.4606,4.4233,4.3943,4.3742,4.3548,4.3534,4.3938,4.4473,4.5003,4.5593,4.6493,4.5451,4.4814,4.4786,4.4824,4.4759,4.4626,4.4598,4.4598,4.4598,4.4598,4.4598,4.4598,4.4598,4.4598,4.4598,4.4598,4.4598,4.4598,4.4598,4.4598,4.4598,4.4598,4.4598,4.4598,4.4598,4.4598,4.4598,4.4598,4.4598,4.4598,4.4598,4.4598,4.4598,4.4598,4.4598,4.4598,4.4598,4.4598,4.4598,4.4598,4.4598,4.4598,4.4598,4.4598,4.4598,4.4598,4.4598,4.4598,4.4598,4.4598,5.0683,5.0683,5.0683,5.0683,5.0683,5.0683,5.0683,5.0683,5.0683,5.0683,5.0683,5.0683,5.0683,5.0683,5.0683,5.0683,5.0683,5.0683,5.0683,5.0683,5.0683,5.0683,5.0683,5.0683,5.0683,5.0683,5.0683,5.0683,5.0683,5.0683,5.0683,5.0693,5.0683,4.9586,4.849,4.7298,4.6297,4.5932,4.5586,4.5594,4.5594,4.5594,4.5594,4.5594,4.5594,4.5594,4.5594,4.5594,4.5485,4.5342,4.5293,4.5115,4.4936,4.4707,4.4472,4.4177,4.3971,4.3826,4.366,4.3663,4.4066,4.4985,4.5,4.5011,4.6147,4.5267,4.472,4.4598,4.4598,4.4598,4.4598,4.4598,4.4598,4.4598,4.4598,4.4598,4.4598,4.4598,4.4598,4.4598,4.4598,4.4598,4.4598,4.4598,4.4598,4.4598,4.4598,4.4598,4.4598,4.4598,4.4598,4.4598,4.4598,4.4598,4.4598,4.4598,4.4598,4.4598,4.4598,4.4598,4.4598,4.4598,4.4598,4.4598,4.4598,4.4598,4.4598,4.4598,4.4598,4.4598,4.4598,4.4598,4.4598,4.4598,4.4598,5.0683,5.0683,5.0683,5.0683,5.0683,5.0683,5.0683,5.0683,5.0683,5.0683,5.0683,5.0683,5.0683,5.0683,5.0683,5.0683,5.0683,5.0683,5.0683,5.0683,5.0683,5.0683,5.0683,5.0683,5.0683,5.0683,5.0683,5.0683,5.0683,5.0683,5.0683,5.0683,5.0606,4.976,4.8567,4.6913,4.5874,4.5643,4.5495,4.5467,4.5438,4.5322,4.5263,4.5253,4.5243,4.5232,4.5222,4.5201,4.511,4.5011,4.4938,4.4889,4.4817,4.474,4.4695,4.46,4.4522,4.441,4.4281,4.4342,4.4766,4.5617,4.5409,4.5481,4.56,4.5205,4.4637,4.4598,4.4598,4.4598,4.4598,4.4598,4.4598,4.4598,4.4598,4.4598,4.4598,4.4598,4.4598,4.4598,4.4598,4.4598,4.4598,4.4598,4.4598,4.4598,4.4598,4.4598,4.4598,4.4598,4.4598,4.4598,4.4598,4.4598,4.4598,4.4598,4.4598,4.4598,4.4598,4.4598,4.4598,4.4598,4.4598,4.4598,4.4598,4.4598,4.4598,4.4598,4.4598,4.4598,4.4598,4.4598,4.4598,4.4598,4.4598,5.0683,5.0683,5.0683,5.0683,5.0683,5.0683,5.0683,5.0683,5.0683,5.0683,5.0683,5.0683,5.0683,5.0683,5.0683,5.0683,5.0683,5.0683,5.0683,5.0683,5.0683,5.0683,5.0683,5.0683,5.0683,5.0683,5.0683,5.0683,5.0683,5.0683,5.0683,5.0683,5.0635,5.0135,4.924,4.7673,4.6462,4.5666,4.5272,4.5129,4.5063,4.4884,4.4793,4.4781,4.4793,4.4825,4.4837,4.4837,4.4745,4.4612,4.4762,4.4838,4.4972,4.5134,4.5315,4.5621,4.5661,4.5718,4.581,4.581,4.5897,4.6029,4.5708,4.5775,4.5475,4.4998,4.4598,4.4598,4.4598,4.4598,4.4598,4.4598,4.4598,4.4598,4.4598,4.4598,4.4598,4.4598,4.4598,4.4598,4.4598,4.4598,4.4598,4.4598,4.4598,4.4598,4.4598,4.4598,4.4598,4.4598,4.4598,4.4598,4.4598,4.4598,4.4598,4.4598,4.4598,4.4598,4.4598,4.4598,4.4598,4.4598,4.4598,4.4598,4.4598,4.4598,4.4598,4.4598,4.4598,4.4598,4.4598,4.4598,4.4598,4.4598,4.4598,5.0683,5.0683,5.0683,5.0683,5.0683,5.0683,5.0683,5.0683,5.0683,5.0683,5.0683,5.0683,5.0683,5.0683,5.0683,5.0683,5.0683,5.0683,5.0683,5.0683,5.0673,5.0683,5.0683,5.0673,5.0683,5.0683,5.0683,5.0683,5.0683,5.0683,5.0683,5.0683,5.0548,4.9856,4.8577,4.7175,4.6086,4.5364,4.4966,4.4776,4.4763,4.4631,4.4553,4.454,4.454,4.4527,4.4514,4.4501,4.4406,4.4327,4.4489,4.487,4.5072,4.5246,4.5731,4.5938,4.5957,4.6177,4.6359,4.6389,4.6108,4.6076,4.5868,4.5677,4.5416,4.4927,4.4692,4.4598,4.4598,4.4598,4.4598,4.4598,4.4598,4.4598,4.4598,4.4598,4.4598,4.4598,4.4598,4.4598,4.4598,4.4598,4.4598,4.4598,4.4598,4.4598,4.4598,4.4598,4.4598,4.4598,4.4598,4.4598,4.4598,4.4598,4.4598,4.4598,4.4598,4.4598,4.4598,4.4598,4.4598,4.4598,4.4598,4.4598,4.4598,4.4598,4.4598,4.4598,4.4598,4.4598,4.4598,4.4598,4.4598,4.4598,4.4598,5.0683,5.0683,5.0683,5.0683,5.0683,5.0683,5.0683,5.0683,5.0683,5.0683,5.0683,5.0683,5.0683,5.0683,5.0683,5.0683,5.0683,5.0683,5.0683,5.0673,5.0514,5.0565,5.0614,5.0575,5.0565,5.0624,5.0683,5.0683,5.0683,5.0683,5.0683,5.0663,5.0516,4.9695,4.8473,4.7371,4.6426,4.5658,4.5048,4.4373,4.4332,4.4266,4.4165,4.4184,4.4184,4.4184,4.4213,4.4184,4.4125,4.4098,4.4286,4.4835,4.511,4.5553,4.6177,4.6489,4.6801,4.6946,4.6986,4.6914,4.6518,4.5932,4.5523,4.5302,4.519,4.4769,4.4637,4.4598,4.4598,4.4598,4.4598,4.4598,4.4598,4.4598,4.4598,4.4598,4.4598,4.4598,4.4598,4.4598,4.4598,4.4598,4.4598,4.4598,4.4598,4.4598,4.4598,4.4598,4.4598,4.4598,4.4598,4.4598,4.4598,4.4598,4.4598,4.4598,4.4598,4.4598,4.4598,4.4598,4.4598,4.4598,4.4598,4.4598,4.4598,4.4598,4.4598,4.4598,4.4598,4.4598,4.4598,4.4598,4.4598,4.4598,4.4598,5.0683,5.0683,5.0683,5.0683,5.0683,5.0683,5.0683,5.0683,5.0683,5.0683,5.0683,5.0683,5.0683,5.0683,5.0683,5.0683,5.0634,5.0663,5.0614,5.0493,5.0249,5.0388,5.041,5.0317,5.0432,5.0604,5.0643,5.0544,5.0634,5.0472,5.0483,5.0483,5.0195,4.957,4.876,4.7876,4.6991,4.6013,4.5158,4.4568,4.4346,4.3978,4.3857,4.3804,4.3695,4.3695,4.3679,4.3646,4.3614,4.362,4.3696,4.4616,4.5333,4.5902,4.6948,4.7755,4.8104,4.7814,4.7394,4.7204,4.6567,4.5804,4.545,4.5108,4.4852,4.4682,4.4626,4.4598,4.4598,4.4598,4.4598,4.4598,4.4598,4.4598,4.4598,4.4598,4.4598,4.4598,4.4598,4.4598,4.4598,4.4598,4.4598,4.4598,4.4598,4.4598,4.4598,4.4598,4.4598,4.4598,4.4598,4.4598,4.4598,4.4598,4.4598,4.4598,4.4598,4.4598,4.4598,4.4598,4.4598,4.4598,4.4598,4.4598,4.4598,4.4598,4.4598,4.4598,4.4598,4.4598,4.4598,4.4598,4.4598,4.4598,4.4598,5.0683,5.0683,5.0683,5.0683,5.0683,5.0683,5.0683,5.0683,5.0683,5.0683,5.0683,5.0683,5.0683,5.0683,5.0683,5.0683,5.0594,5.0432,5.0294,5.0147,5.0019,5.0062,5.0123,5.0183,5.0358,5.0442,5.0462,5.0279,5.0183,5.0068,4.9898,4.9773,4.976,4.9427,4.8971,4.8229,4.7333,4.6495,4.5628,4.5035,4.4638,4.4429,4.4121,4.3828,4.3718,4.3718,4.3735,4.3625,4.3606,4.3588,4.4066,4.4929,4.5718,4.6434,4.7314,4.8104,4.8212,4.8017,4.7449,4.6955,4.6312,4.5571,4.5142,4.4869,4.4626,4.4598,4.4598,4.4598,4.4598,4.4598,4.4598,4.4598,4.4598,4.4598,4.4598,4.4598,4.4598,4.4598,4.4598,4.4598,4.4598,4.4598,4.4598,4.4598,4.4598,4.4598,4.4598,4.4598,4.4598,4.4598,4.4598,4.4598,4.4598,4.4598,4.4598,4.4598,4.4598,4.4598,4.4598,4.4598,4.4598,4.4598,4.4598,4.4598,4.4598,4.4598,4.4598,4.4598,4.4598,4.4598,4.4598,4.4598,4.4598,4.4598,4.4598,5.0683,5.0683,5.0683,5.0683,5.0683,5.0683,5.0683,5.0683,5.0683,5.0683,5.0683,5.0683,5.0683,5.0683,5.0683,5.0683,5.0692,5.0534,5.0391,5.0306,4.9872,5.0135,5.0214,5.0043,5.0111,5.0183,5.0104,4.9872,4.9773,4.9659,4.9518,4.9518,4.9386,4.928,4.8968,4.8373,4.7801,4.7069,4.6376,4.5718,4.5369,4.5186,4.4819,4.4507,4.436,4.4378,4.4322,4.4176,4.3956,4.3864,4.4415,4.4782,4.581,4.6893,4.7608,4.8288,4.8287,4.7777,4.7088,4.6664,4.5989,4.532,4.4824,4.4692,4.4598,4.4598,4.4598,4.4598,4.4598,4.4598,4.4598,4.4598,4.4598,4.4598,4.4598,4.4598,4.4598,4.4598,4.4598,4.4598,4.4598,4.4598,4.4598,4.4598,4.4598,4.4598,4.4598,4.4598,4.4598,4.4598,4.4598,4.4598,4.4598,4.4598,4.4598,4.4598,4.4598,4.4598,4.4598,4.4598,4.4598,4.4626,4.4654,4.4626,4.4598,4.4626,4.4692,4.4626,4.4598,4.4598,4.4598,4.4598,4.4598,4.4598,4.4598,5.0683,5.0683,5.0683,5.0683,5.0683,5.0683,5.0683,5.0683,5.0683,5.0683,5.0683,5.0683,5.0683,5.0683,5.0683,5.0683,5.0653,5.0544,5.0432,5.0585,4.9936,4.9949,5.0043,4.9898,4.976,4.9787,4.9673,4.9401,4.9371,4.9249,4.9187,4.9371,4.9046,4.8864,4.874,4.8439,4.8052,4.7831,4.7022,4.6305,4.6104,4.5975,4.5938,4.5792,4.5736,4.5736,4.5553,4.5223,4.4709,4.4433,4.425,4.4415,4.581,4.7164,4.7897,4.8058,4.8017,4.7409,4.6756,4.6312,4.5673,4.5062,4.4598,4.4598,4.4598,4.4598,4.4598,4.4598,4.4598,4.4598,4.4598,4.4598,4.4598,4.4598,4.4598,4.4598,4.4598,4.4598,4.4598,4.4598,4.4598,4.4598,4.4598,4.4598,4.4598,4.4598,4.4598,4.4598,4.4598,4.4598,4.4598,4.4598,4.4598,4.4598,4.4598,4.4598,4.4598,4.4598,4.4598,4.4598,4.4598,4.4654,4.4709,4.4814,4.4917,4.4814,4.4814,4.472,4.4637,4.4598,4.4598,4.4598,4.4598,4.4598,4.4598,5.0683,5.0683,5.0683,5.0683,5.0683,5.0683,5.0683,5.0683,5.0683,5.0683,5.0683,5.0683,5.0683,5.0683,5.0683,5.0683,5.0663,5.0523,5.0283,5.0104,4.9733,4.9773,4.9714,4.9504,4.9371,4.9401,4.9265,4.8932,4.878,4.8676,4.8622,4.8623,4.8495,4.8513,4.8495,4.8306,4.8288,4.8251,4.7865,4.7168,4.6837,4.6691,4.6617,4.6232,4.5993,4.6085,4.5828,4.5278,4.4892,4.458,4.3901,4.4452,4.581,4.6984,4.7769,4.8035,4.7431,4.6847,4.6389,4.5965,4.5399,4.4934,4.4598,4.4598,4.4598,4.4598,4.4598,4.4598,4.4598,4.4598,4.4598,4.4598,4.4598,4.4598,4.4598,4.4598,4.4598,4.4598,4.4598,4.4598,4.4598,4.4598,4.4598,4.4598,4.4598,4.4598,4.4598,4.4598,4.4598,4.4598,4.4598,4.4598,4.4598,4.4598,4.4598,4.4598,4.4598,4.4598,4.4598,4.4598,4.4626,4.4852,4.5089,4.5232,4.532,4.5232,4.5062,4.4814,4.4703,4.4637,4.4598,4.4598,4.4598,4.4598,4.4598,5.0683,5.0683,5.0683,5.0683,5.0683,5.0683,5.0683,5.0683,5.0683,5.0683,5.0683,5.0683,5.0683,5.0683,5.0683,5.0683,5.0663,5.0513,5.0472,5.0214,4.9924,4.984,4.9617,4.9326,4.9202,4.9171,4.883,4.8514,4.8325,4.8325,4.8344,4.8324,4.8324,4.8324,4.8324,4.8324,4.8324,4.8324,4.8324,4.8012,4.7571,4.7516,4.748,4.7021,4.6948,4.6929,4.6709,4.6195,4.5645,4.5351,4.4856,4.4693,4.5729,4.6724,4.7301,4.7259,4.6824,4.6288,4.5989,4.5648,4.5196,4.4786,4.4598,4.4598,4.4598,4.4598,4.4598,4.4598,4.4598,4.4598,4.4598,4.4598,4.4598,4.4598,4.4598,4.4598,4.4598,4.4598,4.4598,4.4598,4.4598,4.4598,4.4598,4.4598,4.4598,4.4598,4.4598,4.4598,4.4598,4.4598,4.4598,4.4649,4.4699,4.4632,4.4598,4.4598,4.4598,4.4598,4.4716,4.4899,4.5091,4.5292,4.5485,4.5819,4.592,4.5699,4.5485,4.5089,4.4786,4.4682,4.4626,4.4598,4.4598,4.4598,4.4598,5.0683,5.0683,5.0683,5.0683,5.0683,5.0683,5.0683,5.0683,5.0683,5.0683,5.0683,5.0683,5.0683,5.0683,5.0683,5.0683,5.0673,5.0614,5.0653,5.0643,5.0523,5.0183,4.9872,4.9594,4.9187,4.883,4.8513,4.8402,4.8324,4.8324,4.8324,4.8324,4.8324,4.8324,4.8324,4.8324,4.8324,4.8324,4.8324,4.8324,4.8288,4.8324,4.8177,4.8233,4.8324,4.8324,4.8048,4.7498,4.6709,4.6159,4.5718,4.5717,4.5805,4.6609,4.6801,4.6842,4.624,4.5883,4.5622,4.5399,4.5025,4.4731,4.4637,4.4598,4.4598,4.4598,4.4598,4.4598,4.4598,4.4598,4.4598,4.4598,4.4598,4.4598,4.4598,4.4598,4.4598,4.4598,4.4598,4.4598,4.4598,4.4598,4.4598,4.4598,4.4598,4.4598,4.4598,4.4598,4.4598,4.4598,4.4598,4.4739,4.4874,4.479,4.4801,4.5038,4.5173,4.506,4.5235,4.5408,4.563,4.6074,4.6438,4.6666,4.6655,4.6165,4.5732,4.5303,4.5035,4.4682,4.4626,4.4598,4.4598,4.4598,4.4598,5.0683,5.0683,5.0683,5.0683,5.0683,5.0683,5.0683,5.0683,5.0683,5.0683,5.0683,5.0683,5.0683,5.0683,5.0683,5.0683,5.0683,5.0683,5.0683,5.0673,5.0513,5.026,4.9962,4.9537,4.8863,4.8586,4.8458,4.8363,4.8344,4.8325,4.8324,4.8324,4.8324,4.8324,4.8324,4.8324,4.8324,4.8324,4.8324,4.8324,4.8324,4.8324,4.8324,4.8324,4.8324,4.8324,4.8085,4.7498,4.6709,4.6159,4.5957,4.6176,4.6319,4.6529,4.6659,4.6472,4.5858,4.5407,4.5205,4.5052,4.4703,4.4665,4.4598,4.4598,4.4598,4.4598,4.4598,4.4598,4.4598,4.4598,4.4598,4.4598,4.4598,4.4598,4.4598,4.4598,4.4598,4.4598,4.4598,4.4598,4.4598,4.4598,4.4598,4.4598,4.4598,4.4598,4.4598,4.4598,4.4598,4.4598,4.4598,4.479,4.501,4.5348,4.55,4.594,4.6092,4.5923,4.588,4.6193,4.6593,4.7129,4.7437,4.7528,4.7007,4.6418,4.5965,4.5433,4.5008,4.4682,4.4626,4.4598,4.4598,4.4598,4.4598]}]]